[[{"header":{"parameterUnit":"m.s-1","parameterCategory":1,"la1":31.0,"la2":29.5877,"lo1":-88.7671,"lo2":-86.6584,"dx":0.0162,"dy":0.0185,"nx":115,"ny":88,"refTime":"2022-11-24T18:00:00:Z","depth":0,"parameterNumber":2,"parameterNumberName":"U-component_of_WINDS"},"data":[0.0,0.0,0.0,0.0,0.0,0.0,0.0,0.0,0.0,0.0,0.0,0.0,0.0,0.0,0.0,0.0,0.0,0.0,0.0,0.0,0.0,0.0,0.0,0.0,0.0,0.0,0.0,0.0,0.0,0.0,0.0,0.0,0.0,0.0,0.0,0.0,0.0,0.0,0.0,0.0,0.0,0.0,0.0,0.0,0.0,0.0,0.0,0.0,0.0,0.0,0.0,0.0,0.0,0.0,0.0,0.0,0.0,0.0,0.0,0.0,0.0,0.0,0.0,0.0,0.0,0.0,0.0,0.0,0.0,0.0,0.0,0.0,0.0,0.0,0.0,0.0,0.0,0.0,0.0,0.0,0.0,0.0,0.0,0.0,0.0,0.0,0.0,0.0,0.0,0.0,0.0,0.0,0.0,0.0,0.0,0.0,0.0,0.0,0.0,0.0,0.0,0.0,0.0,0.0,0.0,0.0,0.0,0.0,0.0,0.0,0.0,0.0,0.0,0.0,0.0,0.0,0.0,0.0,0.0,0.0,0.0,0.0,0.0,0.0,0.0,0.0,0.0,0.0,0.0,0.0,0.0,0.0,0.0,0.0,0.0,0.0,0.0,0.0,0.0,0.0,0.0,0.0,0.0,0.0,0.0,0.0,0.0,0.0,0.0,0.0,0.0,0.0,0.0,0.0,0.0,0.0,0.0,0.0,0.0,0.0,0.0,0.0,0.0,0.0,0.0,0.0,0.0,0.0,0.0,0.0,0.0,0.0,0.0,0.0,0.0,0.0,0.0,0.0,0.0,0.0,0.0,0.0,0.0,0.0,0.0,0.0,0.0,0.0,0.0,0.0,0.0,0.0,0.0,0.0,0.0,0.0,0.0,0.0,0.0,0.0,0.0,0.0,0.0,0.0,0.0,0.0,0.0,0.0,0.0,0.0,0.0,0.0,0.0,0.0,0.0,0.0,0.0,0.0,0.0,0.0,0.0,0.0,0.0,0.0,0.0,0.0,0.0,0.0,0.0,0.0,0.0,0.0,0.0,0.0,0.0,0.0,0.0,0.0,0.0,0.0,0.0,0.0,0.0,0.0,0.0,0.0,0.0,0.0,0.0,0.0,0.0,0.0,0.0,0.0,0.0,0.0,0.0,0.0,0.0,0.0,0.0,0.0,0.0,0.0,0.0,0.0,0.0,0.0,0.0,0.0,0.0,0.0,0.0,0.0,0.0,0.0,0.0,0.0,0.0,0.0,0.0,0.0,0.0,0.0,0.0,0.0,0.0,0.0,0.0,0.0,0.0,0.0,0.0,0.0,0.0,0.0,0.0,0.0,0.0,0.0,0.0,0.0,0.0,0.0,0.0,0.0,0.0,0.0,0.0,0.0,0.0,0.0,0.0,0.0,0.0,0.0,0.0,0.0,0.0,0.0,0.0,0.0,0.0,0.0,0.0,0.0,0.0,0.0,0.0,0.0,0.0,0.0,0.0,0.0,0.0,0.0,0.0,0.0,0.0,0.0,0.0,0.0,0.0,0.0,0.0,0.0,0.0,0.0,0.0,0.0,0.0,0.0,0.0,0.0,0.0,0.0,0.0,0.0,0.0,0.0,0.0,0.0,0.0,0.0,0.0,0.0,0.0,0.0,0.0,0.0,0.0,0.0,0.0,0.0,0.0,0.0,0.0,0.0,0.0,0.0,0.0,0.0,0.0,0.0,0.0,0.0,0.0,0.0,0.0,0.0,0.0,0.0,0.0,0.0,0.0,0.0,0.0,0.0,0.0,0.0,0.0,0.0,0.0,0.0,0.0,0.0,0.0,0.0,0.0,0.0,0.0,0.0,0.0,0.0,0.0,0.0,0.0,0.0,0.0,0.0,0.0,0.0,0.0,0.0,0.0,0.0,0.0,0.0,0.0,0.0,0.0,0.0,0.0,0.0,0.0,0.0,0.0,0.0,0.0,0.0,0.0,0.0,0.0,0.0,0.0,0.0,0.0,0.0,0.0,0.0,0.0,0.0,0.0,0.0,0.0,0.0,0.0,0.0,0.0,0.0,0.0,0.0,0.0,0.0,0.0,0.0,0.0,0.0,0.0,0.0,0.0,0.0,0.0,0.0,0.0,0.0,0.0,0.0,0.0,0.0,0.0,0.0,0.0,0.0,0.0,0.0,0.0,0.0,0.0,0.0,0.0,0.0,0.0,0.0,0.0,0.0,0.0,0.0,0.0,0.0,0.0,0.0,0.0,0.0,0.0,0.0,0.0,0.0,0.0,0.0,0.0,0.0,0.0,0.0,0.0,0.0,0.0,0.0,0.0,0.0,0.0,0.0,0.0,0.0,0.0,0.0,0.0,0.0,0.0,0.0,0.0,0.0,0.0,0.0,0.0,0.0,0.0,0.0,0.0,0.0,0.0,0.0,0.0,0.0,0.0,0.0,0.0,0.0,0.0,0.0,0.0,0.0,0.0,0.0,0.0,0.0,0.0,0.0,0.0,0.0,0.0,0.0,0.0,0.0,0.0,0.0,0.0,0.0,0.0,0.0,0.0,0.0,0.0,0.0,0.0,0.0,0.0,0.0,0.0,0.0,0.0,0.0,0.0,0.0,0.0,0.0,0.0,0.0,0.0,0.0,0.0,0.0,0.0,0.0,0.0,0.0,0.0,0.0,0.0,0.0,0.0,0.0,0.0,0.0,0.0,0.0,0.0,0.0,0.0,0.0,0.0,0.0,0.0,0.0,0.0,0.0,0.0,0.0,0.0,0.0,0.0,0.0,0.0,0.0,0.0,0.0,0.0,0.0,0.0,0.0,0.0,0.0,0.0,0.0,0.0,0.0,0.0,0.0,0.0,0.0,0.0,0.0,0.0,0.0,0.0,0.0,0.0,0.0,0.0,0.0,0.0,0.0,0.0,0.0,0.0,0.0,0.0,0.0,0.0,0.0,0.0,0.0,0.0,0.0,0.0,0.0,0.0,0.0,0.0,0.0,0.0,0.0,0.0,0.0,0.0,0.0,0.0,0.0,0.0,0.0,0.0,0.0,0.0,0.0,0.0,0.0,0.0,0.0,0.0,0.0,0.0,0.0,0.0,0.0,0.0,0.0,0.0,0.0,0.0,0.0,0.0,0.0,0.0,0.0,0.0,0.0,0.0,0.0,0.0,0.0,0.0,0.0,0.0,0.0,0.0,0.0,0.0,0.0,0.0,0.0,0.0,0.0,0.0,0.0,0.0,0.0,0.0,0.0,0.0,0.0,0.0,0.0,0.0,0.0,0.0,0.0,0.0,0.0,0.0,0.0,0.0,0.0,0.0,0.0,0.0,0.0,0.0,0.0,0.0,0.0,0.0,0.0,0.0,0.0,0.0,0.0,0.0,0.0,0.0,0.0,0.0,0.0,0.0,0.0,0.0,0.0,0.0,0.0,0.0,0.0,0.0,0.0,0.0,0.0,0.0,0.0,0.0,0.0,0.0,0.0,0.0,0.0,0.0,0.0,0.0,0.0,0.0,0.0,0.0,0.0,0.0,0.0,0.0,0.0,0.0,0.0,0.0,0.0,0.0,0.0,0.0,0.0,0.0,0.0,0.0,0.0,0.0,0.0,0.0,0.0,0.0,0.0,0.0,0.0,0.0,0.0,0.0,0.0,0.0,0.0,0.0,0.0,0.0,0.0,0.0,0.0,0.0,0.0,0.0,0.0,0.0,0.0,0.0,0.0,0.0,0.0,0.0,0.0,0.0,0.0,0.0,0.0,0.0,0.0,0.0,0.0,0.0,0.0,0.0,0.0,0.0,0.0,0.0,0.0,0.0,0.0,0.0,0.0,0.0,0.0,0.0,0.0,0.0,0.0,0.0,0.0,0.0,0.0,0.0,0.0,0.0,0.0,0.0,0.0,0.0,0.0,0.0,0.0,0.0,0.0,0.0,0.0,0.0,0.0,0.0,0.0,0.0,0.0,0.0,0.0,0.0,0.0,0.0,0.0,0.0,0.0,0.0,0.0,0.0,0.0,0.0,0.0,0.0,0.0,0.0,0.0,0.0,0.0,0.0,0.0,0.0,0.0,0.0,0.0,0.0,0.0,0.0,0.0,0.0,0.0,0.0,0.0,0.0,0.0,0.0,0.0,0.0,0.0,0.0,0.0,0.0,0.0,0.0,0.0,0.0,0.0,0.0,0.0,0.0,0.0,0.0,0.0,0.0,0.0,0.0,0.0,0.0,0.0,0.0,0.0,0.0,0.0,0.0,0.0,0.0,0.0,0.0,0.0,0.0,0.0,0.0,0.0,1.6723,0.0,0.0,0.0,1.6163,0.0,0.0,0.0,0.0,0.0,0.0,0.0,0.0,0.0,0.0,0.0,0.0,0.0,0.0,0.0,0.0,0.0,0.0,0.0,0.0,0.0,0.0,0.0,0.0,0.0,0.0,0.0,0.0,0.0,0.0,0.0,0.0,0.0,0.0,0.0,0.0,0.0,0.0,0.0,0.0,0.0,0.0,0.0,0.0,0.0,0.0,0.0,0.0,0.0,0.0,0.0,0.0,0.0,0.0,0.0,0.0,0.0,0.0,0.0,0.0,0.0,0.0,0.0,0.0,0.0,0.0,0.0,0.0,0.0,0.0,0.0,0.0,0.0,0.0,0.0,0.0,0.0,0.0,0.0,0.0,0.0,0.0,0.0,0.0,0.0,0.0,0.0,0.0,0.0,0.0,0.0,0.0,0.0,0.0,0.0,0.0,0.0,0.0,0.0,0.0,0.0,0.0,0.0,0.0,0.0,0.0,0.0,0.0,0.0,0.0,1.6735,1.6552,1.7544,1.7516,1.625,0.0,0.0,0.0,0.0,0.0,0.0,0.0,0.0,0.0,0.0,0.0,0.0,0.0,0.0,0.0,0.0,0.0,0.0,0.0,0.0,0.0,0.0,0.0,0.0,0.0,0.0,0.0,0.0,0.0,0.0,0.0,0.0,0.0,0.0,0.0,0.0,0.0,0.0,0.0,0.0,0.0,0.0,0.0,0.0,0.0,0.0,0.0,0.0,0.0,0.0,0.0,0.0,0.0,0.0,0.0,0.0,0.0,0.0,0.0,0.0,0.0,0.0,0.0,0.0,0.0,0.0,0.0,0.0,0.0,0.0,0.0,0.0,0.0,0.0,0.0,0.0,0.0,0.0,0.0,0.0,0.0,0.0,0.0,0.0,0.0,0.0,0.0,0.0,0.0,0.0,0.0,0.0,0.0,0.0,0.0,0.0,0.0,0.0,0.0,0.0,0.0,0.0,0.0,0.0,0.0,0.0,0.0,0.0,0.0,0.0,0.0,0.0,1.772,1.7598,1.6837,0.0,0.0,0.0,0.0,0.0,0.0,0.0,0.0,0.0,0.0,0.0,0.0,0.0,0.0,0.0,0.0,0.0,0.0,0.0,0.0,0.0,0.0,0.0,0.0,0.0,0.0,0.0,0.0,0.0,0.0,0.0,0.0,0.0,0.0,0.0,0.0,0.0,0.0,0.0,0.0,0.0,0.0,0.0,0.0,0.0,0.0,0.0,0.0,0.0,0.0,0.0,0.0,0.0,0.0,0.0,0.0,0.0,0.0,0.0,0.0,0.0,0.0,0.0,0.0,0.0,0.0,0.0,0.0,0.0,0.0,0.0,0.0,0.0,0.0,0.0,0.0,0.0,0.0,0.0,0.0,0.0,0.0,0.0,0.0,0.0,0.0,0.0,0.0,0.0,0.0,0.0,0.0,0.0,0.0,0.0,0.0,0.0,0.0,0.0,0.0,0.0,0.0,0.0,0.0,0.0,0.0,0.0,0.0,0.0,0.0,1.7227,1.7476,1.8082,0.0,1.7639,0.0,0.0,0.0,0.0,0.0,0.0,0.0,0.0,0.0,0.0,0.0,0.0,0.0,0.0,0.0,0.0,0.0,0.0,0.0,0.0,0.0,0.0,0.0,0.0,0.0,0.0,0.0,0.0,0.0,0.0,0.0,0.0,0.0,0.0,0.0,0.0,0.0,0.0,0.0,0.0,0.0,0.0,0.0,0.0,0.0,0.0,0.0,0.0,0.0,0.0,0.0,0.0,0.0,0.0,0.0,0.0,0.0,0.0,0.0,0.0,0.0,0.0,0.0,0.0,0.0,0.0,0.0,0.0,0.0,0.0,0.0,0.0,0.0,0.0,0.0,0.0,0.0,0.0,0.0,0.0,0.0,0.0,0.0,0.0,0.0,0.0,0.0,0.0,0.0,0.0,0.0,0.0,0.0,0.0,0.0,0.0,0.0,0.0,0.0,0.0,0.0,0.0,0.0,0.0,0.0,0.0,0.0,0.0,0.0,0.0,1.7214,1.7774,1.776,1.7572,0.0,0.0,0.0,0.0,0.0,0.0,0.0,0.0,0.0,0.0,0.0,0.0,0.0,0.0,0.0,0.0,0.0,0.0,0.0,0.0,0.0,0.0,0.0,0.0,0.0,0.0,0.0,0.0,0.0,0.0,0.0,0.0,0.0,0.0,0.0,0.0,0.0,0.0,0.0,0.0,0.0,0.0,0.0,0.0,0.0,0.0,0.0,0.0,0.0,0.0,0.0,0.0,0.0,0.0,0.0,0.0,0.0,0.0,0.0,0.0,0.0,0.0,0.0,0.0,0.0,0.0,0.0,0.0,0.0,0.0,0.0,0.0,0.0,0.0,0.0,0.0,0.0,0.0,0.0,0.0,0.0,0.0,0.0,0.0,0.0,0.0,0.0,0.0,0.0,0.0,0.0,0.0,0.0,0.0,0.0,0.0,0.0,0.0,0.0,0.0,0.0,0.0,0.0,0.0,0.0,0.0,0.0,0.0,0.0,0.0,1.7201,1.7449,1.8068,1.7638,1.7275,1.7088,0.0,0.0,0.0,0.0,0.0,0.0,0.0,0.0,0.0,0.0,0.0,0.0,0.0,0.0,0.0,0.0,0.0,0.0,0.0,0.0,0.0,0.0,0.0,0.0,0.0,0.0,0.0,0.0,0.0,0.0,0.0,0.0,0.0,0.0,0.0,0.0,0.0,0.0,0.0,0.0,0.0,0.0,0.0,0.0,0.0,0.0,0.0,0.0,0.0,0.0,0.0,0.0,0.0,0.0,0.0,0.0,0.0,0.0,0.0,0.0,0.0,0.0,0.0,0.0,0.0,0.0,0.0,0.0,0.0,0.0,0.0,0.0,0.0,0.0,0.0,0.0,0.0,0.0,0.0,0.0,0.0,0.0,0.0,0.0,0.0,0.0,0.0,0.0,0.0,0.0,0.0,0.0,0.0,0.0,0.0,0.0,0.0,0.0,0.0,0.0,0.0,0.0,0.0,0.0,0.0,0.0,0.0,0.0,1.7679,1.7868,1.8121,1.8464,1.7951,1.7627,0.0,0.0,0.0,0.0,0.0,0.0,0.0,0.0,0.0,0.0,0.0,0.0,0.0,0.0,0.0,0.0,0.0,0.0,0.0,0.0,0.0,0.0,0.0,0.0,0.0,0.0,0.0,0.0,0.0,0.0,0.0,0.0,0.0,0.0,0.0,0.0,0.0,0.0,0.0,0.0,0.0,0.0,0.0,0.0,0.0,0.0,0.0,0.0,0.0,0.0,0.0,0.0,0.0,0.0,0.0,0.0,0.0,0.0,0.0,0.0,0.0,0.0,0.0,0.0,0.0,0.0,0.0,0.0,0.0,0.0,0.0,0.0,0.0,0.0,0.0,0.0,0.0,0.0,0.0,0.0,0.0,0.0,0.0,0.0,0.0,0.0,0.0,0.0,0.0,0.0,0.0,0.0,0.0,0.0,0.0,0.0,0.0,0.0,0.0,0.0,0.0,0.0,0.0,0.0,0.0,0.0,0.0,0.0,0.0,1.7961,1.8279,1.8503,1.862,1.7989,1.7444,0.0,0.0,0.0,0.0,0.0,0.0,0.0,0.0,0.0,0.0,0.0,0.0,0.0,0.0,0.0,0.0,0.0,0.0,0.0,0.0,0.0,0.0,0.0,0.0,0.0,0.0,0.0,0.0,0.0,0.0,0.0,0.0,0.0,0.0,0.0,0.0,0.0,0.0,0.0,0.0,0.0,0.0,0.0,0.0,0.0,0.0,0.0,0.0,0.0,0.0,0.0,0.0,0.0,0.0,0.0,0.0,0.0,0.0,0.0,0.0,0.0,0.0,0.0,0.0,0.0,0.0,0.0,0.0,0.0,0.0,0.0,0.0,0.0,0.0,0.0,0.0,0.0,0.0,0.0,0.0,0.0,0.0,0.0,0.0,0.0,0.0,0.0,0.0,0.0,0.0,0.0,0.0,0.0,0.0,0.0,0.0,0.0,0.0,0.0,0.0,0.0,0.0,0.0,0.0,0.0,0.0,0.0,0.0,0.0,1.8496,1.8921,1.9078,1.886,1.7998,1.7263,0.0,0.0,0.0,0.0,0.0,0.0,0.0,0.0,0.0,0.0,0.0,0.0,0.0,0.0,0.0,0.0,0.0,0.0,0.0,0.0,0.0,0.0,0.0,0.0,0.0,0.0,0.0,0.0,0.0,0.0,0.0,0.0,0.0,0.0,0.0,0.0,0.0,0.0,0.0,0.0,0.0,0.0,0.0,0.0,0.0,0.0,0.0,0.0,0.0,0.0,0.0,0.0,0.0,0.0,0.0,0.0,0.0,0.0,0.0,0.0,0.0,0.0,0.0,0.0,0.0,0.0,0.0,0.0,0.0,0.0,0.0,0.0,0.0,0.0,0.0,0.0,0.0,0.0,0.0,0.0,0.0,0.0,0.0,0.0,0.0,0.0,0.0,0.0,0.0,0.0,0.0,0.0,0.0,0.0,0.0,0.0,0.0,0.0,0.0,0.0,0.0,0.0,0.0,0.0,0.0,0.0,0.0,0.0,1.8693,1.9369,1.9803,1.9732,1.9177,1.7992,1.7166,0.0,0.0,0.0,0.0,0.0,0.0,0.0,0.0,0.0,0.0,0.0,0.0,0.0,0.0,0.0,0.0,0.0,0.0,0.0,0.0,0.0,0.0,0.0,0.0,0.0,0.0,0.0,0.0,0.0,0.0,0.0,0.0,0.0,0.0,0.0,0.0,0.0,0.0,0.0,0.0,0.0,0.0,0.0,0.0,0.0,0.0,0.0,0.0,0.0,0.0,0.0,0.0,0.0,0.0,0.0,0.0,0.0,0.0,0.0,0.0,0.0,0.0,0.0,0.0,0.0,0.0,0.0,0.0,0.0,0.0,0.0,0.0,0.0,0.0,0.0,0.0,0.0,0.0,0.0,0.0,0.0,0.0,0.0,0.0,0.0,0.0,0.0,0.0,0.0,0.0,0.0,0.0,0.0,0.0,0.0,0.0,0.0,0.0,0.0,0.0,0.0,0.0,0.0,0.0,0.0,0.0,0.0,0.0,0.0,1.9011,1.9406,1.9406,1.8916,1.7662,1.6809,0.0,0.0,0.0,0.0,0.0,0.0,0.0,0.0,0.0,0.0,0.0,0.0,0.0,0.0,0.0,0.0,0.0,0.0,0.0,0.0,0.0,0.0,0.0,0.0,0.0,0.0,0.0,0.0,0.0,0.0,0.0,0.0,0.0,0.0,0.0,0.0,0.0,0.0,0.0,0.0,0.0,0.0,0.0,0.0,0.0,0.0,0.0,0.0,0.0,0.0,0.0,0.0,0.0,0.0,0.0,0.0,0.0,0.0,0.0,0.0,0.0,0.0,0.0,0.0,0.0,0.0,0.0,0.0,0.0,0.0,0.0,0.0,0.0,0.0,0.0,0.0,0.0,0.0,0.0,0.0,0.0,0.0,0.0,0.0,0.0,0.0,0.0,0.0,0.0,0.0,0.0,0.0,0.0,0.0,0.0,0.0,0.0,0.0,0.0,0.0,0.0,0.0,0.0,0.0,0.0,0.0,0.0,0.0,0.0,1.9656,1.9852,1.9717,1.9295,1.8056,1.7057,1.6302,0.0,0.0,0.0,0.0,0.0,0.0,0.0,0.0,0.0,0.0,0.0,0.0,0.0,0.0,0.0,0.0,0.0,0.0,0.0,0.0,0.0,0.0,0.0,0.0,0.0,0.0,0.0,0.0,0.0,0.0,0.0,0.0,0.0,0.0,0.0,0.0,0.0,0.0,0.0,0.0,0.0,0.0,0.0,0.0,0.0,0.0,0.0,0.0,0.0,0.0,0.0,0.0,0.0,0.0,0.0,0.0,0.0,0.0,0.0,0.0,0.0,0.0,0.0,0.0,0.0,0.0,0.0,0.0,0.0,0.0,0.0,0.0,0.0,0.0,0.0,0.0,0.0,0.0,0.0,0.0,0.0,0.0,0.0,0.0,0.0,0.0,0.0,0.0,0.0,0.0,0.0,0.0,0.0,0.0,0.0,0.0,0.0,0.0,0.0,0.0,0.0,0.0,0.0,0.0,0.0,0.0,0.0,0.0,2.1136,2.1002,2.0689,2.0161,1.9016,1.7745,0.0,0.0,0.0,0.0,0.0,0.0,0.0,0.0,0.0,0.0,0.0,0.0,0.0,0.0,0.0,0.0,0.0,0.0,0.0,0.0,0.0,0.0,0.0,0.0,0.0,0.0,0.0,0.0,0.0,0.0,0.0,0.0,0.0,0.0,0.0,0.0,0.0,0.0,0.0,0.0,0.0,0.0,0.0,0.0,0.0,0.0,0.0,0.0,0.0,0.0,0.0,0.0,0.0,0.0,0.0,0.0,0.0,0.0,0.0,0.0,0.0,0.0,0.0,0.0,0.0,0.0,0.0,0.0,0.0,0.0,0.0,0.0,0.0,0.0,0.0,0.0,0.0,0.0,0.0,0.0,0.0,0.0,0.0,0.0,0.0,0.0,0.0,0.0,0.0,0.0,0.0,0.0,0.0,0.0,0.0,0.0,0.0,0.0,0.0,0.0,0.0,0.0,0.0,0.0,0.0,0.0,0.0,0.0,0.0,2.151,2.2051,2.1918,2.1013,1.9411,1.7835,0.0,0.0,0.0,0.0,0.0,0.0,0.0,0.0,0.0,0.0,0.0,0.0,0.0,0.0,0.0,0.0,0.0,0.0,0.0,0.0,0.0,0.0,0.0,0.0,0.0,0.0,0.0,0.0,0.0,0.0,0.0,0.0,0.0,0.0,0.0,0.0,0.0,0.0,0.0,0.0,0.0,0.0,0.0,0.0,0.0,0.0,0.0,0.0,0.0,0.0,0.0,0.0,0.0,0.0,0.0,0.0,0.0,0.0,0.0,0.0,0.0,0.0,0.0,0.0,0.0,0.0,0.0,0.0,0.0,0.0,0.0,0.0,0.0,0.0,0.0,0.0,0.0,0.0,0.0,0.0,0.0,0.0,0.0,0.0,0.0,0.0,0.0,0.0,0.0,0.0,0.0,0.0,0.0,0.0,0.0,0.0,0.0,0.0,0.0,0.0,0.0,0.0,0.0,0.0,0.0,0.0,0.0,0.0,2.1737,2.2439,2.2908,2.298,2.2639,2.0727,1.8856,0.0,0.0,0.0,0.0,0.0,0.0,0.0,0.0,0.0,0.0,0.0,0.0,0.0,0.0,0.0,0.0,0.0,0.0,0.0,0.0,0.0,0.0,0.0,0.0,0.0,0.0,0.0,0.0,0.0,0.0,0.0,0.0,0.0,0.0,0.0,0.0,0.0,0.0,0.0,0.0,0.0,0.0,0.0,0.0,0.0,0.0,0.0,0.0,0.0,0.0,0.0,0.0,0.0,0.0,0.0,0.0,0.0,0.0,0.0,0.0,0.0,0.0,0.0,0.0,0.0,0.0,0.0,0.0,0.0,0.0,0.0,0.0,0.0,0.0,0.0,0.0,0.0,0.0,0.0,0.0,0.0,0.0,0.0,0.0,0.0,0.0,0.0,0.0,0.0,0.0,0.0,0.0,0.0,0.0,0.0,0.0,0.0,0.0,0.0,0.0,0.0,0.0,0.0,0.0,0.0,0.0,0.0,0.0,2.2404,2.356,2.3657,2.3948,2.4434,2.2321,2.0273,0.0,0.0,0.0,0.0,0.0,0.0,0.0,0.0,0.0,0.0,0.0,0.0,0.0,0.0,0.0,0.0,0.0,0.0,0.0,0.0,0.0,0.0,0.0,0.0,0.0,0.0,0.0,0.0,0.0,0.0,0.0,0.0,0.0,0.0,0.0,0.0,0.0,0.0,0.0,0.0,0.0,0.0,0.0,0.0,0.0,0.0,0.0,0.0,0.0,0.0,0.0,0.0,0.0,0.0,0.0,0.0,0.0,0.0,0.0,0.0,0.0,0.0,0.0,0.0,0.0,0.0,0.0,0.0,0.0,0.0,0.0,0.0,0.0,0.0,0.0,0.0,0.0,0.0,0.0,0.0,0.0,0.0,0.0,0.0,0.0,0.0,0.0,0.0,0.0,0.0,0.0,0.0,0.0,0.0,0.0,0.0,0.0,0.0,0.0,0.0,0.0,0.0,0.0,0.0,0.0,0.0,0.0,0.0,2.3175,2.4256,2.4855,2.4936,2.4499,2.2658,2.0949,0.0,0.0,0.0,0.0,0.0,0.0,0.0,0.0,0.0,0.0,0.0,0.0,0.0,0.0,0.0,0.0,0.0,0.0,0.0,0.0,0.0,0.0,0.0,0.0,0.0,0.0,0.0,0.0,0.0,0.0,0.0,0.0,0.0,0.0,0.0,0.0,0.0,0.0,0.0,0.0,0.0,0.0,0.0,0.0,0.0,0.0,0.0,0.0,1.4082,0.0,0.0,0.0,0.0,0.0,0.0,0.0,0.0,0.0,0.0,0.0,0.0,0.0,0.0,0.0,0.0,0.0,0.0,0.0,0.0,0.0,0.0,0.0,0.0,0.0,0.0,0.0,0.0,0.0,0.0,0.0,0.0,0.0,0.0,0.0,0.0,0.0,0.0,0.0,0.0,0.0,0.0,0.0,0.0,0.0,0.0,0.0,0.0,0.0,0.0,0.0,0.0,0.0,0.0,0.0,0.0,0.0,0.0,0.0,2.3594,2.4482,2.5227,2.5422,2.4984,2.3433,2.1913,0.0,0.0,0.0,0.0,0.0,0.0,0.0,0.0,0.0,0.0,0.0,0.0,0.0,0.0,0.0,0.0,0.0,0.0,0.0,0.0,0.0,0.0,0.0,0.0,0.0,0.0,0.0,0.0,0.0,0.0,0.0,0.0,0.0,0.0,0.0,0.0,0.0,0.0,0.0,0.0,0.0,0.0,0.0,0.0,0.0,0.0,0.0,0.0,0.0,0.0,0.0,0.0,0.0,0.0,0.0,0.0,0.0,0.0,0.0,0.0,0.0,0.0,0.0,0.0,0.0,0.0,0.0,0.0,0.0,0.0,0.0,0.0,0.0,0.0,0.0,0.0,0.0,0.0,0.0,0.0,0.0,0.0,0.0,0.0,0.0,0.0,0.0,0.0,0.0,0.0,0.0,0.0,0.0,0.0,0.0,0.0,0.0,0.0,0.0,0.0,0.0,0.0,0.0,0.0,0.0,0.0,0.0,2.2967,2.3902,2.4644,2.5292,2.5616,2.5562,2.4223,2.2844,2.1487,0.0,0.0,0.0,0.0,0.0,0.0,0.0,0.0,0.0,0.0,0.0,0.0,0.0,0.0,0.0,0.0,0.0,0.0,0.0,0.0,0.0,0.0,0.0,0.0,0.0,0.0,0.0,0.0,0.0,0.0,0.0,0.0,0.0,0.0,0.0,0.0,0.0,0.0,1.5792,1.5792,0.0,0.0,0.0,0.0,0.0,0.0,0.0,0.0,1.4812,0.0,0.0,0.0,0.0,0.0,0.0,0.0,0.0,0.0,0.0,0.0,0.0,0.0,0.0,0.0,0.0,0.0,0.0,0.0,0.0,0.0,0.0,0.0,0.0,0.0,0.0,0.0,0.0,0.0,0.0,0.0,0.0,0.0,0.0,0.0,0.0,0.0,0.0,0.0,0.0,0.0,0.0,0.0,0.0,0.0,0.0,0.0,0.0,0.0,0.0,0.0,0.0,0.0,0.0,0.0,0.0,2.3165,2.3414,2.411,2.5389,2.5551,2.5616,2.5584,2.4223,2.3103,2.2164,0.0,0.0,0.0,0.0,0.0,0.0,0.0,0.0,0.0,0.0,0.0,0.0,0.0,0.0,0.0,0.0,0.0,0.0,0.0,0.0,0.0,0.0,0.0,0.0,0.0,0.0,0.0,0.0,0.0,0.0,0.0,0.0,0.0,0.0,0.0,0.0,0.0,0.0,0.0,1.5792,1.5792,0.0,0.0,0.0,0.0,0.0,0.0,0.0,0.0,1.5017,0.0,0.0,0.0,0.0,0.0,0.0,0.0,0.0,0.0,0.0,0.0,0.0,0.0,0.0,0.0,0.0,0.0,0.0,0.0,0.0,0.0,0.0,0.0,0.0,0.0,0.0,0.0,0.0,0.0,0.0,0.0,0.0,0.0,0.0,0.0,0.0,0.0,0.0,0.0,0.0,0.0,0.0,0.0,0.0,0.0,0.0,0.0,0.0,0.0,0.0,0.0,0.0,0.0,0.0,0.0,2.3416,2.3583,2.4284,2.5551,2.5616,2.5616,2.56,2.4223,2.3131,0.0,0.0,0.0,0.0,0.0,0.0,0.0,0.0,0.0,0.0,0.0,0.0,0.0,0.0,0.0,0.0,0.0,0.0,0.0,0.0,0.0,0.0,0.0,0.0,0.0,0.0,0.0,0.0,0.0,0.0,0.0,0.0,0.0,0.0,0.0,0.0,0.0,0.0,0.0,0.0,1.5792,1.5792,1.5792,0.0,0.0,0.0,0.0,0.0,0.0,1.5334,1.5424,0.0,0.0,0.0,0.0,0.0,0.0,0.0,0.0,0.0,0.0,0.0,0.0,0.0,0.0,0.0,0.0,0.0,0.0,0.0,0.0,0.0,0.0,0.0,0.0,0.0,0.0,0.0,0.0,0.0,0.0,0.0,0.0,0.0,0.0,0.0,0.0,0.0,0.0,0.0,0.0,0.0,0.0,0.0,0.0,0.0,0.0,0.0,0.0,0.0,0.0,0.0,0.0,0.0,0.0,0.0,2.3517,2.3769,2.451,2.5705,2.5712,2.5675,2.5659,2.4275,2.3202,0.0,0.0,0.0,0.0,0.0,0.0,0.0,0.0,0.0,0.0,0.0,0.0,0.0,0.0,0.0,0.0,0.0,0.0,0.0,0.0,0.0,0.0,0.0,0.0,0.0,0.0,0.0,0.0,0.0,0.0,0.0,0.0,0.0,0.0,0.0,0.0,0.0,0.0,0.0,0.0,0.0,1.5792,1.5792,1.5551,0.0,0.0,0.0,0.0,1.5255,1.557,0.0,0.0,0.0,0.0,0.0,0.0,0.0,0.0,0.0,0.0,0.0,0.0,0.0,0.0,0.0,0.0,0.0,0.0,0.0,0.0,0.0,0.0,0.0,0.0,0.0,0.0,0.0,0.0,0.0,0.0,0.0,0.0,0.0,0.0,0.0,0.0,0.0,0.0,0.0,0.0,0.0,0.0,0.0,0.0,0.0,0.0,0.0,0.0,0.0,0.0,0.0,0.0,0.0,0.0,0.0,0.0,2.3786,2.4065,2.4879,2.623,2.6082,2.5954,2.5937,2.4349,2.3307,0.0,0.0,0.0,0.0,0.0,0.0,0.0,0.0,0.0,0.0,0.0,0.0,0.0,0.0,0.0,0.0,0.0,0.0,0.0,0.0,0.0,0.0,0.0,0.0,0.0,0.0,0.0,0.0,0.0,0.0,0.0,0.0,0.0,0.0,0.0,0.0,0.0,0.0,0.0,0.0,0.0,1.5792,1.5792,1.613,1.6274,0.0,0.0,1.6274,1.5775,1.5736,0.0,0.0,0.0,0.0,0.0,0.0,0.0,0.0,0.0,0.0,0.0,0.0,0.0,0.0,0.0,0.0,0.0,0.0,0.0,0.0,0.0,0.0,0.0,0.0,0.0,0.0,0.0,0.0,0.0,0.0,0.0,0.0,0.0,0.0,0.0,0.0,0.0,0.0,0.0,0.0,0.0,0.0,0.0,0.0,0.0,0.0,0.0,0.0,0.0,0.0,0.0,0.0,0.0,0.0,0.0,2.2524,2.3852,2.4225,2.5293,2.6971,2.6369,2.6208,2.6603,2.4971,2.371,0.0,0.0,0.0,0.0,0.0,0.0,0.0,0.0,0.0,0.0,0.0,0.0,0.0,0.0,0.0,0.0,0.0,0.0,0.0,0.0,0.0,0.0,0.0,0.0,0.0,0.0,0.0,0.0,0.0,0.0,0.0,0.0,0.0,0.0,0.0,0.0,0.0,0.0,0.0,0.0,0.0,0.0,1.6281,1.6715,0.0,0.0,0.0,1.65,1.6317,0.0,0.0,0.0,0.0,0.0,0.0,0.0,0.0,0.0,0.0,0.0,0.0,0.0,0.0,0.0,0.0,0.0,0.0,0.0,0.0,0.0,0.0,0.0,0.0,0.0,0.0,0.0,0.0,0.0,0.0,0.0,0.0,0.0,0.0,0.0,0.0,0.0,0.0,0.0,0.0,0.0,0.0,0.0,0.0,0.0,0.0,0.0,0.0,0.0,0.0,0.0,0.0,0.0,0.0,0.0,0.0,0.0,2.3967,2.4647,2.5907,2.7705,2.6749,2.6521,2.7164,2.5609,0.0,0.0,0.0,0.0,0.0,0.0,0.0,0.0,0.0,0.0,0.0,0.0,0.0,0.0,0.0,0.0,0.0,0.0,0.0,0.0,0.0,0.0,0.0,0.0,0.0,0.0,0.0,1.2975,0.0,0.0,0.0,0.0,0.0,0.0,0.0,0.0,0.0,0.0,0.0,0.0,0.0,0.0,1.7202,1.6849,1.73,1.7666,0.0,0.0,1.6931,1.6799,1.6332,1.5984,0.0,0.0,0.0,0.0,0.0,0.0,0.0,0.0,0.0,0.0,0.0,0.0,0.0,0.0,0.0,0.0,0.0,0.0,0.0,0.0,0.0,0.0,0.0,0.0,0.0,0.0,0.0,0.0,0.0,0.0,0.0,0.0,0.0,0.0,0.0,0.0,0.0,0.0,0.0,0.0,0.0,0.0,0.0,0.0,0.0,0.0,0.0,0.0,0.0,0.0,0.0,0.0,0.0,0.0,0.0,2.4271,2.5401,2.6736,2.8233,2.7282,2.7012,2.7506,2.615,2.4762,0.0,0.0,0.0,0.0,0.0,0.0,0.0,0.0,0.0,0.0,0.0,0.0,0.0,0.0,0.0,0.0,0.0,0.0,0.0,0.0,0.0,0.0,0.0,0.0,0.0,0.0,0.0,0.0,0.0,0.0,0.0,0.0,0.0,0.0,0.0,0.0,0.0,0.0,0.0,0.0,0.0,1.7383,1.7247,1.8169,1.8511,0.0,0.0,1.7929,1.7436,1.6871,1.6524,1.657,0.0,0.0,0.0,0.0,0.0,0.0,0.0,0.0,0.0,0.0,0.0,0.0,0.0,0.0,0.0,0.0,0.0,0.0,0.0,0.0,0.0,0.0,0.0,0.0,0.0,0.0,0.0,0.0,0.0,0.0,0.0,0.0,0.0,0.0,0.0,0.0,0.0,0.0,0.0,0.0,0.0,0.0,0.0,0.0,0.0,0.0,0.0,0.0,0.0,0.0,0.0,0.0,0.0,2.355,2.4303,2.5483,2.7075,2.8954,2.8049,2.7861,2.8484,2.7345,2.6012,0.0,0.0,0.0,0.0,0.0,0.0,0.0,0.0,0.0,0.0,0.0,0.0,0.0,0.0,0.0,0.0,0.0,0.0,0.0,0.0,0.0,0.0,0.0,0.0,0.0,0.0,0.0,0.0,1.455,1.4989,1.572,0.0,0.0,0.0,0.0,0.0,0.0,0.0,0.0,0.0,0.0,1.8656,1.8399,1.8961,0.0,0.0,1.8277,1.8133,1.7929,1.7448,1.7111,1.7063,1.6644,0.0,0.0,0.0,0.0,0.0,0.0,0.0,0.0,0.0,0.0,0.0,0.0,0.0,0.0,0.0,0.0,0.0,0.0,0.0,0.0,0.0,0.0,0.0,0.0,0.0,0.0,0.0,0.0,0.0,0.0,0.0,0.0,0.0,0.0,0.0,0.0,0.0,0.0,0.0,0.0,0.0,0.0,0.0,0.0,0.0,0.0,0.0,0.0,0.0,0.0,0.0,0.0,2.3869,2.4607,2.6065,2.7661,2.9455,2.8819,2.8766,2.936,2.842,2.7024,0.0,0.0,0.0,0.0,0.0,0.0,0.0,0.0,0.0,0.0,0.0,0.0,0.0,0.0,0.0,0.0,0.0,0.0,0.0,0.0,0.0,0.0,0.0,0.0,0.0,0.0,0.0,0.0,1.4971,1.5384,1.5756,0.0,0.0,0.0,0.0,0.0,0.0,0.0,0.0,0.0,0.0,1.9766,1.9503,1.9759,1.9759,1.9294,1.8778,1.8434,1.8446,1.7989,1.7652,1.7652,0.0,0.0,0.0,0.0,0.0,0.0,0.0,0.0,0.0,0.0,0.0,0.0,0.0,0.0,0.0,0.0,0.0,0.0,0.0,0.0,0.0,0.0,0.0,0.0,0.0,0.0,0.0,0.0,0.0,0.0,2.1049,0.0,0.0,0.0,0.0,0.0,0.0,0.0,0.0,0.0,0.0,0.0,0.0,0.0,0.0,0.0,0.0,0.0,0.0,0.0,0.0,0.0,0.0,2.4624,2.538,2.7313,2.8696,2.9472,2.9489,2.9677,3.0128,2.9025,2.7658,2.6082,0.0,0.0,0.0,0.0,0.0,0.0,0.0,0.0,0.0,0.0,0.0,0.0,0.0,0.0,0.0,0.0,0.0,0.0,0.0,0.0,0.0,0.0,0.0,0.0,0.0,0.0,1.4893,1.5456,1.5768,0.0,0.0,0.0,0.0,0.0,0.0,0.0,0.0,0.0,0.0,1.9799,2.0566,2.0495,2.0536,2.0383,1.985,1.9331,1.9016,1.9004,1.853,1.8181,0.0,0.0,0.0,0.0,0.0,0.0,0.0,0.0,0.0,0.0,0.0,0.0,0.0,0.0,0.0,0.0,0.0,0.0,0.0,0.0,0.0,0.0,0.0,0.0,0.0,0.0,0.0,2.2939,2.2493,0.0,0.0,0.0,0.0,0.0,0.0,0.0,0.0,0.0,0.0,0.0,2.529,2.5547,0.0,0.0,0.0,0.0,0.0,0.0,0.0,0.0,0.0,0.0,0.0,0.0,2.5416,2.5741,2.7639,2.896,2.9489,3.0024,3.0385,3.0537,3.0144,2.8784,2.6432,0.0,0.0,0.0,0.0,0.0,0.0,0.0,0.0,0.0,0.0,0.0,0.0,0.0,0.0,0.0,0.0,0.0,0.0,0.0,0.0,0.0,0.0,0.0,0.0,0.0,1.4761,0.0,0.0,0.0,0.0,0.0,0.0,0.0,0.0,0.0,0.0,0.0,1.9544,2.0599,2.1124,2.1414,2.1407,2.126,2.0921,0.0,0.0,0.0,0.0,0.0,0.0,0.0,0.0,0.0,0.0,0.0,0.0,0.0,0.0,1.6407,1.583,1.5575,1.5279,1.471,0.0,0.0,0.0,0.0,0.0,0.0,0.0,0.0,0.0,0.0,0.0,0.0,0.0,0.0,0.0,0.0,2.4,0.0,0.0,0.0,0.0,0.0,0.0,0.0,0.0,2.6015,2.6531,2.7118,2.7296,2.7447,0.0,2.677,2.5579,0.0,0.0,0.0,0.0,0.0,0.0,0.0,0.0,2.6189,2.6727,2.8331,2.9627,3.0507,3.113,3.1528,3.1654,3.0829,2.9289,2.6957,2.5533,2.3875,0.0,0.0,0.0,0.0,0.0,0.0,0.0,0.0,0.0,0.0,0.0,0.0,0.0,0.0,0.0,0.0,0.0,0.0,0.0,0.0,0.0,0.0,0.0,1.5679,0.0,0.0,0.0,0.0,0.0,0.0,0.0,0.0,0.0,1.9503,2.0087,2.0944,2.1786,2.2221,2.2489,2.2503,0.0,0.0,0.0,0.0,0.0,0.0,0.0,2.018,2.008,1.9255,1.853,1.8501,1.8341,1.8182,1.8182,0.0,0.0,1.6727,1.6378,1.6076,1.572,1.5978,1.6202,1.5806,1.6211,1.6525,0.0,0.0,0.0,0.0,0.0,0.0,0.0,0.0,2.5843,2.5893,0.0,2.5864,0.0,0.0,0.0,0.0,0.0,0.0,0.0,0.0,2.746,2.8495,2.9485,2.9986,3.0374,3.0538,2.9289,2.8281,2.7459,2.61,0.0,0.0,0.0,0.0,0.0,0.0,2.7,2.8375,2.9554,3.0841,3.235,3.2767,3.313,3.3424,3.1141,2.9223,2.7777,2.6393,2.5234,2.4324,2.2216,0.0,0.0,0.0,0.0,0.0,0.0,0.0,0.0,0.0,0.0,0.0,0.0,0.0,0.0,0.0,0.0,0.0,0.0,0.0,0.0,1.622,0.0,0.0,0.0,0.0,0.0,0.0,0.0,0.0,0.0,0.0,2.1119,2.1764,2.2357,2.2416,0.0,0.0,0.0,0.0,2.3382,2.3316,2.2924,2.2352,2.1681,2.1342,2.1056,2.078,0.0,0.0,1.9376,1.9771,2.0041,2.01,2.0006,1.9488,1.7475,1.6706,1.6265,1.6133,1.6232,1.6214,1.6598,1.7137,1.7487,3.0095,0.0,0.0,0.0,0.0,2.7743,2.7453,2.7077,2.7013,2.6658,2.6116,2.6098,0.0,0.0,0.0,0.0,0.0,0.0,2.8184,2.924,3.0157,3.0849,3.1334,3.1478,3.1526,3.1414,3.108,3.0678,3.0265,2.9842,2.8031,2.5051,0.0,0.0,0.0,0.0,2.8674,2.913,3.1231,3.2491,3.2749,3.3671,3.4097,3.3908,3.1888,3.0594,3.0171,2.7723,2.5873,2.4773,2.3344,0.0,0.0,0.0,0.0,0.0,0.0,0.0,0.0,0.0,0.0,0.0,0.0,0.0,0.0,0.0,0.0,0.0,0.0,0.0,1.6304,1.6801,1.7262,0.0,0.0,0.0,0.0,0.0,0.0,0.0,0.0,0.0,2.3566,2.3296,2.334,0.0,0.0,2.4671,2.5148,2.493,2.4609,2.4326,0.0,0.0,0.0,2.2981,2.2602,2.2544,2.1506,2.0766,2.0927,2.0466,2.0228,2.0574,2.0216,1.975,1.9249,1.8995,1.8927,1.8883,1.8849,1.8771,1.892,1.8965,1.9043,3.2292,3.066,3.0358,3.016,3.0055,2.9894,2.9628,2.9329,2.9209,2.8837,2.8263,2.8379,2.8221,2.7911,2.7789,0.0,0.0,0.0,3.0125,3.11,3.1981,3.2687,3.3204,3.3465,3.3573,3.3529,3.3222,3.2723,3.204,3.1836,3.0441,2.7989,0.0,0.0,2.8138,2.9375,3.0304,3.0912,3.2473,3.3683,3.4515,3.5099,3.5092,3.453,3.2986,3.1902,3.1291,2.9178,2.7267,2.5741,2.4333,2.294,0.0,0.0,0.0,0.0,0.0,0.0,0.0,0.0,0.0,0.0,0.0,1.43,1.4112,0.0,0.0,0.0,1.6969,1.7479,1.7776,1.8074,0.0,0.0,0.0,0.0,0.0,0.0,0.0,2.2496,2.3335,2.4249,2.5256,2.4897,2.4825,2.5641,2.5636,2.5711,2.6087,0.0,2.5923,2.5675,2.5524,2.5336,2.5095,2.456,2.4054,2.3838,2.331,2.2757,2.2609,2.2149,2.1946,2.2128,2.1958,2.1665,2.1665,2.1726,2.1319,2.0193,2.0004,2.0072,2.0084,2.0335,2.0572,3.4196,3.3479,3.3058,3.2539,3.2053,3.2031,3.1986,3.1958,3.1974,3.1894,3.1667,3.1853,3.1653,3.1174,3.0928,0.0,3.1592,3.1666,3.1994,3.2486,3.3353,3.4225,3.5135,3.5679,3.6075,3.6273,3.5528,3.4537,3.3329,3.2818,3.2546,3.2518,3.1792,3.1329,3.122,3.1257,3.2018,3.3422,3.3567,3.4764,3.6961,3.6662,3.609,3.5307,3.4257,3.3093,3.1747,3.0676,2.9156,2.714,2.5413,2.4153,2.3299,0.0,0.0,0.0,0.0,0.0,0.0,0.0,0.0,0.0,0.0,0.0,0.0,0.0,0.0,0.0,1.8865,0.0,1.9624,1.9727,0.0,0.0,0.0,2.0094,2.0967,2.1913,2.2914,2.393,0.0,0.0,2.638,0.0,2.658,2.6626,2.6701,2.6796,2.6886,2.7166,2.7262,2.7321,2.7039,2.6761,2.6707,2.6115,2.5465,2.4842,2.4905,2.4797,2.4287,2.4191,2.4344,2.4335,2.4406,2.4304,2.4406,2.4205,2.3481,2.0756,2.0514,2.0804,2.0935,2.1499,2.2012,3.7247,3.7044,3.6841,3.5152,3.2619,3.2457,3.2711,3.3223,3.3086,3.3342,3.3802,3.3264,3.2962,3.2854,3.3388,3.3783,3.4071,3.4732,3.5172,3.551,3.6309,3.6803,3.7048,3.7184,3.7205,3.7127,3.6906,3.6498,3.5845,3.5699,3.5551,3.5337,3.5135,3.4319,3.2918,3.3633,3.4229,3.4613,3.5857,3.678,3.7362,3.7292,3.6849,3.6067,3.5211,3.4579,3.4202,3.2244,3.058,2.9361,2.7815,2.6075,2.4148,2.317,0.0,0.0,0.0,0.0,0.0,0.0,0.0,0.0,0.0,1.6509,1.6207,0.0,1.8131,0.0,1.9816,2.0117,1.9794,2.0093,0.0,0.0,2.2136,2.2677,2.4051,2.4671,2.5063,2.5319,2.5832,2.6395,2.7072,2.7611,2.8119,2.8611,2.7839,2.7607,2.8587,2.8843,2.893,2.9094,2.9011,2.891,2.8502,2.788,2.6967,2.6049,2.5608,2.5413,2.5402,2.4823,2.4484,2.4795,2.4613,2.4418,2.4455,2.4431,2.423,2.3445,2.3369,2.3442,2.3454,2.3311,2.3124,3.8337,3.8323,3.8169,3.6948,3.5089,3.4868,3.4999,3.5362,3.5267,3.5413,3.5625,3.5192,3.5004,3.5023,3.5456,3.5809,3.6046,3.6501,3.6844,3.7082,3.7884,3.8285,3.8285,3.8686,3.8803,3.8689,3.8571,3.8194,3.7606,3.7361,3.7153,3.6999,3.6904,3.6465,3.5787,3.563,3.5752,3.6119,3.7367,3.7963,3.7791,3.7774,3.7395,3.6597,3.6093,3.5566,3.505,3.3463,3.1946,3.0544,2.9141,2.7606,2.5793,2.4453,2.3423,0.0,0.0,0.0,0.0,0.0,0.0,0.0,0.0,0.0,0.0,0.0,1.9546,2.0428,2.1415,2.1908,2.164,2.2083,2.2842,2.4076,2.421,2.4593,2.5633,2.6182,2.6626,2.693,2.744,2.798,2.8658,2.9073,2.9427,2.9812,2.9212,2.9012,2.9673,2.9858,2.9894,3.0038,2.9872,2.953,2.9,2.8781,2.8354,2.7507,2.694,2.6684,2.6775,2.6259,2.5853,2.6128,2.5985,2.5788,2.58,2.5788,2.5788,2.58,2.58,2.5335,2.4242,2.4117,2.4092,3.8736,3.872,3.854,3.8431,3.8363,3.8076,3.785,3.77,3.7681,3.7543,3.7254,3.7367,3.7367,3.7254,3.7367,3.7551,3.7773,3.7773,3.7871,3.8075,3.882,3.9164,3.9202,3.9947,4.0329,4.0291,4.0058,3.9575,3.8852,3.8334,3.8096,3.8096,3.7839,3.8081,3.8718,3.7411,3.7043,3.7684,3.837,3.8515,3.8101,3.8101,3.7685,3.6939,3.6764,3.6186,3.517,3.452,3.335,3.1487,3.0266,2.9013,2.7674,2.5795,2.4563,0.0,2.2363,0.0,0.0,0.0,0.0,0.0,0.0,0.0,0.0,2.0781,2.1287,2.1847,2.3335,2.4204,2.4182,2.4626,2.5253,2.6086,2.6195,2.638,2.6765,2.7411,2.8011,2.8596,2.9181,2.9766,3.0258,3.0474,3.0535,3.0551,3.0612,3.0643,3.0674,3.056,3.0529,3.0591,3.0221,2.9882,2.9272,2.9454,2.9546,2.8949,2.846,2.8278,2.8345,2.8026,2.7691,2.7678,2.7691,2.7678,2.7758,2.7691,2.7691,2.7691,2.7691,2.6912,2.4962,2.4786,2.4866,4.0591,4.0593,4.05,4.0427,4.0325,4.0061,3.9473,3.8707,3.8707,3.8689,3.8671,3.9356,3.93,3.8671,3.9356,3.9681,3.9738,3.9738,3.9757,3.9833,3.9986,4.0062,4.0081,4.0234,4.0329,4.031,4.0273,4.0041,3.9667,3.9373,3.9183,3.9202,3.8941,3.8961,3.9331,0.0,0.0,0.0,3.8718,3.8515,3.8101,3.8034,3.7614,3.6786,3.6678,0.0,3.5814,3.5385,3.4621,3.3483,3.2497,0.0,0.0,0.0,0.0,0.0,0.0,0.0,0.0,0.0,0.0,0.0,2.3467,2.2817,2.1423,2.2879,2.3906,2.3943,2.4606,2.5267,2.5815,2.5938,2.6614,2.8112,2.8314,2.8627,2.95,2.9766,2.992,3.0027,3.0151,3.0289,3.051,3.0874,3.1197,3.1281,3.1674,3.1997,3.1982,3.1428,3.1267,3.1686,3.1612,3.1207,3.0513,3.051,3.0524,3.0108,2.958,2.9375,2.9754,2.9356,2.8992,2.8895,2.8935,2.8922,2.8922,2.8948,2.8869,2.8935,2.8922,2.8525,2.7043,2.654,2.6458,4.1112,0.0,4.0992,4.0921,0.0,4.068,4.0265,3.9744,3.9659,3.9642,3.968,4.0119,4.0062,3.968,4.0119,4.0329,4.0329,4.0329,4.0329,4.0329,4.0329,4.0329,4.0329,4.0329,4.0329,4.0329,4.0329,4.0215,4.0098,3.9807,3.9693,3.9693,3.9427,3.9376,3.9483,3.9357,3.9227,3.9101,3.8822,3.8578,3.8419,3.8751,3.863,3.7982,0.0,0.0,0.0,0.0,0.0,0.0,0.0,0.0,0.0,0.0,0.0,2.7649,2.6931,2.6494,2.6415,2.6253,2.614,2.6155,2.6249,2.5633,2.3983,2.5345,2.6232,2.636,2.6865,2.7424,2.7942,2.8053,2.8463,2.9505,2.9648,2.9852,3.033,3.072,3.0994,3.1285,3.1587,3.1878,3.2136,3.2455,3.2573,3.2342,3.2554,3.2711,3.2422,3.205,3.1986,3.2516,3.254,3.2299,3.1777,3.1652,3.1464,3.1098,3.0713,3.0455,3.0392,3.0117,2.9741,2.9403,2.9274,2.9274,2.9274,2.9274,2.9274,2.9274,2.9274,2.9144,2.8477,2.7958,2.7439,4.1074,4.1099,4.0998,4.0929,4.0929,4.0779,4.0655,4.0519,0.0,0.0,0.0,4.0329,4.0329,4.0329,4.0329,4.0329,4.0329,4.0329,4.0329,4.0329,4.0329,4.0329,4.0329,4.0329,4.0329,4.0329,4.0329,4.0329,4.0291,4.0038,4.0011,4.0144,3.992,3.9881,4.0037,3.9832,3.9647,3.9593,3.9128,3.8982,3.9148,3.974,3.9856,3.9391,3.9426,3.8925,3.7845,3.7263,3.6468,3.539,3.4629,3.3678,3.2599,3.1274,3.0254,2.9616,2.8728,2.8423,2.8701,2.8423,2.8258,2.8258,2.8449,2.8144,2.7006,2.7655,2.8297,2.8562,2.9113,2.9579,3.0038,3.0107,3.0259,3.0698,3.0782,3.0782,3.0812,3.1228,3.1712,3.2248,3.2714,3.3287,3.3515,3.3684,3.3681,3.3214,3.3219,3.3376,3.2967,3.269,3.266,3.3172,3.315,3.2976,3.2768,3.2683,3.2469,3.217,3.1952,3.165,3.1265,3.0966,3.0635,3.0281,2.9989,3.01,3.0016,3.0197,2.9918,2.986,2.9789,2.9718,2.9607,2.9196,2.8612,4.1043,4.111,4.1072,4.1074,4.1052,4.0932,4.0807,4.0655,4.0415,4.0329,4.0329,4.0329,4.0329,4.0329,4.0329,4.0329,4.0329,4.0329,4.0329,0.0,4.0329,4.0329,4.0329,4.0329,4.0329,4.0329,4.0329,4.0329,4.0291,4.0055,4.0359,4.1149,4.1,4.1361,4.2233,4.2079,4.1806,4.1496,4.0318,4.0065,4.0744,4.0708,4.0469,4.0057,3.9554,3.8996,3.8476,3.7984,3.7655,3.7455,3.635,3.5136,3.389,3.2634,3.1397,3.0387,3.013,3.0084,3.0151,3.0068,3.0017,3.0032,3.0057,2.9855,2.9373,2.9433,2.9682,3.0051,3.0219,3.0501,3.1098,3.1137,3.1405,3.1982,3.209,3.2105,3.2044,3.2136,3.2252,3.2416,3.2886,3.3055,3.3002,3.323,3.3366,3.2912,3.3644,3.4358,3.462,3.3759,3.3368,3.39,3.3743,3.3456,3.3419,3.3391,3.3535,3.4059,3.3463,3.3215,3.3403,3.2998,3.2598,3.2569,3.2346,3.2458,3.2471,3.2611,3.2162,3.1707,3.1537,3.1374,3.0877,3.065,3.0406,4.1039,4.1091,4.1113,4.1071,4.1046,4.0945,4.0859,4.0776,4.0607,4.0504,4.0523,4.0523,4.0476,4.0413,4.0432,4.0363,4.0329,4.0329,4.0346,4.0452,4.0835,4.1097,4.1212,4.1651,4.1863,4.1848,4.1788,4.1775,4.1738,4.157,4.1721,4.2183,4.2082,4.2292,4.2755,4.2503,4.2397,4.249,4.1319,4.0799,4.0991,4.1296,4.1359,4.1125,4.0974,4.0506,3.9608,3.9135,3.8564,3.7905,3.736,3.6652,3.5794,3.4843,3.3964,3.3161,3.2819,3.2628,3.2628,3.2628,3.2628,3.2613,3.2613,3.2484,3.223,3.1213,3.0876,3.1459,3.149,3.1597,3.1905,3.1921,3.2059,3.2351,3.2398,3.2398,3.2398,3.2398,3.2641,3.3161,3.3475,3.3767,3.4103,3.471,3.4955,3.4514,3.5009,3.5734,3.6573,3.5824,3.4903,3.4772,3.4394,3.4343,3.4487,3.4592,3.4726,3.5011,3.4768,3.4449,3.4418,3.3973,3.3699,3.3297,3.3227,3.3227,3.3227,3.2861,3.2648,3.2791,3.229,3.2087,3.2101,3.2173,3.1788,4.1457,4.1657,4.1685,4.164,4.1579,4.1533,4.1505,4.1479,4.1401,4.135,4.1319,4.0924,4.0758,4.0834,4.0819,4.0873,4.0933,4.0971,4.1001,4.1166,4.1759,4.2082,4.2254,4.2905,4.3215,4.3202,4.3091,4.3018,4.2989,4.2889,4.2929,4.308,4.3232,4.3347,4.3347,4.3076,4.3077,4.3323,4.2509,4.1915,4.1574,4.2059,4.2355,4.2285,4.2309,4.1872,4.087,4.0242,3.9512,3.8605,3.8292,3.7883,3.7386,3.676,3.6136,3.5648,3.5178,3.4909,3.4893,3.4794,3.4694,3.4694,3.4694,3.4602,3.4384,3.33,3.2522,3.2718,3.2648,3.2555,3.2555,3.2422,3.2398,3.2398,3.2398,3.2398,3.2413,3.2616,3.3022,3.3802,3.4358,3.4955,3.5525,3.634,3.6664,3.6522,3.6615,3.717,3.79,3.7617,3.6762,3.5871,3.5308,3.5226,3.5593,3.5509,3.5444,3.5489,3.5474,3.5169,3.4758,3.461,3.4394,3.3934,3.3782,3.3851,3.3713,3.3353,3.3199,3.3422,3.3059,3.2777,3.3003,3.3087,3.2875,4.2635,4.3309,4.3368,4.3416,4.3306,4.3314,4.3284,4.3279,4.333,4.335,4.3074,4.1477,4.1139,4.1719,4.1764,4.2151,4.2833,4.2924,4.2885,4.2899,4.3015,4.3086,4.3092,4.3215,4.3215,4.3254,4.3279,4.3274,4.3156,4.3088,4.3308,4.3922,4.4624,4.4927,4.4925,4.484,4.4716,4.4553,4.4342,4.3959,4.349,4.3431,4.3453,4.3453,4.2621,4.218,4.1973,4.1171,4.0664,4.0466,3.9452,3.8672,3.8134,3.7433,3.6798,3.6328,3.6152,3.612,3.6082,3.5593,3.541,3.5363,3.5354,3.5379,3.5348,3.5626,3.5263,3.4237,3.3455,3.3203,3.3093,3.2773,3.2536,3.2582,3.2536,3.2398,3.2647,3.3404,3.3944,3.346,3.5425,3.6465,3.5902,3.6533,3.7369,3.7902,3.7965,3.8176,3.8702,3.8619,3.8163,3.743,3.6781,3.6245,3.6258,3.5782,3.5554,3.5489,3.5489,3.5424,3.5279,3.5279,3.5279,3.492,3.5082,3.5067,3.5067,3.5148,3.4773,3.4259,3.4041,3.3891,3.3422,3.3367,3.3227,4.3255,4.3609,4.363,4.3628,4.3611,4.3607,4.3604,4.3617,4.3617,4.3617,4.352,4.2739,4.2558,4.2779,4.2787,4.2947,4.3195,4.3215,4.3252,4.3369,4.3826,4.4111,4.4248,4.4754,4.4968,4.4987,4.4888,4.4763,4.4592,4.4437,4.4498,4.4762,4.5061,4.5192,4.5192,4.5103,4.4876,4.4602,4.4662,4.4511,4.4114,4.3707,4.3474,4.3424,4.2921,4.2458,4.2216,4.1821,4.1366,4.0832,4.0319,3.9827,3.9362,3.8685,3.8259,3.8031,3.7639,3.7475,3.7459,3.727,3.7102,3.7102,3.7102,3.7109,3.7015,3.7232,3.7065,3.6307,3.5195,3.4501,3.4446,3.3979,3.3614,3.3629,3.3629,3.3769,3.4178,3.462,3.5054,3.5556,3.643,3.7136,3.7017,3.7602,3.8371,3.9041,3.9157,3.917,3.9348,3.9276,3.9061,3.8717,3.8067,3.7235,3.66,3.5894,3.5554,3.5489,3.5489,3.5489,3.5489,3.5489,3.5489,3.5504,3.5594,3.5579,3.5424,3.5052,3.4758,3.475,3.5016,3.492,3.4654,3.4587,3.4572,4.4103,4.4292,4.4316,4.4306,4.4309,4.4317,4.4319,4.4306,4.4325,4.4306,4.4325,4.4306,4.4258,4.415,4.3927,4.387,4.4001,4.404,4.4072,4.4238,4.4821,4.5148,4.5338,4.5864,4.6196,4.6189,4.6054,4.5917,4.5703,4.5493,4.5339,4.5277,4.5213,4.5192,4.5189,4.5038,4.4876,4.4662,4.4802,4.4777,4.4484,4.3955,4.3623,4.3508,4.3124,4.2768,4.2418,4.2257,4.1821,4.1082,4.0879,4.058,4.0104,3.9679,3.9418,3.9418,3.9011,3.8794,3.8794,3.8629,3.8557,3.8574,3.8574,3.8526,3.8474,3.8567,3.8606,3.8386,3.7269,3.6419,3.5844,3.5347,3.4951,3.4794,3.4852,3.5122,3.53,3.5737,3.6427,3.7077,3.7599,3.797,3.8369,3.874,3.921,3.963,3.9696,3.9677,3.9625,3.9537,3.9432,3.9432,3.8772,3.7994,3.7071,3.6492,3.6085,3.5733,3.5782,3.5733,3.5599,3.5594,3.5774,3.5968,3.5938,3.6058,3.6267,3.5703,3.5242,3.58,3.6013,3.5947,3.5978,3.5992,3.5992,4.5346,4.6016,4.607,4.5977,4.6069,4.6006,4.6045,4.5903,4.6001,4.604,4.5962,4.5981,4.604,4.5916,4.5137,4.5273,4.5935,4.5908,4.5889,4.5916,4.6033,4.6118,4.6157,4.6196,4.6196,4.6196,4.6189,4.5998,4.5717,4.5574,4.54,4.5317,4.5235,4.517,4.5125,4.5057,4.4943,4.4895,4.4914,4.4889,4.4865,4.4568,4.421,4.3947,4.3249,4.2864,4.2806,4.24,4.1973,4.1499,4.1065,4.0611,4.0171,4.007,4.002,4.002,4.002,3.9969,3.9918,3.9487,3.9152,3.9152,3.9135,3.9189,3.9196,3.9545,3.9817,3.9935,3.9187,3.8355,3.7263,3.6609,3.6043,3.5601,3.5963,3.5963,3.5594,3.7064,3.7646,3.7777,3.8681,3.9344,3.9511,3.9645,3.9577,3.9661,3.9677,3.9642,3.9537,3.9484,3.9432,3.9272,3.886,3.8294,3.8197,3.7587,3.7015,3.6739,3.6549,3.63,3.6054,3.5938,3.6237,3.6522,3.6791,3.7015,3.724,3.7187,3.6984,3.7075,3.7015,3.7045,3.6836,3.7165,3.7105,4.5914,4.6206,4.6216,4.6201,4.6209,4.6203,4.6196,4.6196,4.6196,4.6196,4.6196,4.6196,4.6196,4.6157,4.5884,4.5903,4.6196,4.6196,4.6196,4.6196,4.6196,4.6196,4.6196,4.6196,4.6196,4.6196,4.6196,4.6102,4.5871,4.5638,4.5473,4.5419,4.5279,4.5192,4.5148,4.5038,4.4967,4.4967,4.4919,4.516,4.5647,4.5413,4.529,4.5417,4.4007,4.3124,4.29,4.2729,4.2418,4.1973,4.1481,4.1065,4.058,4.0254,4.0087,4.0087,4.0087,4.0087,4.007,3.9918,3.9747,3.9799,3.9799,3.9747,3.9816,3.9969,4.0087,4.007,3.9952,3.948,3.9058,3.8183,3.7533,3.7367,3.7462,3.7633,3.7856,3.8393,3.8755,3.8963,3.9527,3.9713,3.9677,3.9642,3.959,3.9537,3.9468,3.9432,3.9395,3.9395,3.9375,3.9425,3.9544,3.9676,3.9676,3.8717,3.802,3.7902,3.7717,3.7695,3.7506,3.7074,3.7196,3.7293,3.7571,3.7668,3.7743,3.7674,3.7659,3.7614,3.7599,3.7704,3.7389,3.7674,3.7599,4.6202,4.6209,4.6196,4.6196,4.6196,4.6196,4.6196,4.6196,4.6196,4.6196,4.6196,4.6196,4.6196,4.6196,4.6196,4.6196,4.6196,4.6196,4.6196,4.6196,4.6196,4.6196,4.6196,4.6196,4.6196,4.6196,4.6196,4.6119,4.5997,4.5769,4.5638,4.5555,4.54,4.5281,4.5237,4.5373,4.5432,4.5404,4.5583,4.6032,4.6499,4.6369,4.6327,4.6333,4.5123,4.4124,4.3699,4.3661,4.3304,4.2626,4.2131,4.1492,4.0645,4.0254,4.0087,4.0087,4.0087,4.0087,4.0087,4.0087,4.007,4.0087,4.0087,4.0087,4.0087,4.0087,4.0087,4.0087,4.0087,4.0087,3.9952,3.9332,3.8794,3.8684,3.8778,3.8903,3.9082,3.9189,3.9418,3.9592,3.9609,3.9642,3.9573,3.9484,3.9448,3.9448,3.9342,3.9342,3.9288,3.952,3.969,3.9686,4.0266,4.0575,4.0756,4.0254,3.9553,3.9349,3.8873,3.8887,3.8843,3.8376,3.8062,3.8092,3.8114,3.8181,3.8172,3.8033,3.8018,3.8003,3.8227,3.8452,3.8257,3.8153,3.8167,4.6206,4.6203,4.6196,4.6196,4.6196,4.6196,4.6196,4.6196,4.6196,4.6196,4.6196,4.6196,4.6196,4.6196,4.6196,4.6196,4.6196,4.6196,4.6196,4.6196,4.6196,4.6196,4.6196,4.6196,4.6196,4.6196,4.6196,4.6138,4.6017,4.5956,4.5859,4.5703,4.5651,4.5591,4.5362,4.6037,4.6349,4.6366,4.6853,4.7264,4.7397,4.7371,4.7294,4.7068,4.66,4.6061,4.537,4.52,4.4606,4.3567,4.3014,4.1876,4.0607,4.0205,4.0121,4.0121,4.0087,4.0087,4.0087,4.0087,4.0087,4.0087,4.0087,4.0087,4.0087,4.0087,4.0087,4.0087,4.0087,4.0087,4.0087,3.9969,3.9747,3.9365,3.9575,3.9644,3.9312,3.9556,3.9798,3.9606,3.9484,3.9432,3.9325,3.9342,3.9342,3.9342,3.9425,3.9437,3.9537,3.9984,4.0348,4.0498,4.0945,4.1409,4.169,4.1881,4.1369,4.0859,4.0206,3.9866,3.9976,3.9698,3.9349,3.9305,3.9122,3.9103,3.8852,3.8796,3.8901,3.8945,3.9125,3.908,3.8945,3.8841,3.9005,4.6201,4.6206,4.6209,4.6196,4.6196,4.6196,4.6196,4.6196,4.6196,4.6196,4.6196,4.6196,4.6196,4.6196,4.6196,4.6196,4.6196,4.6196,4.6196,4.6196,4.6196,4.6196,4.6196,4.6196,4.6196,4.6196,4.6196,4.6189,4.6158,4.6056,4.5956,4.5976,4.6283,4.6371,4.6283,4.6963,4.7304,4.7156,4.7271,4.7662,4.8211,4.8287,4.838,4.86,4.8503,4.8125,4.7346,4.6048,4.516,4.471,4.4239,4.3205,4.1729,4.0871,4.0451,4.0121,4.0087,4.0087,4.0087,4.0087,4.0087,4.0087,4.0087,4.0087,4.0087,4.0087,4.0087,4.0087,4.0087,4.0087,4.0087,4.0087,3.9969,3.9799,3.9969,3.9986,3.9609,3.9573,3.9554,3.9395,3.9379,3.9325,3.9325,3.9288,3.9355,3.9404,3.9719,4.0017,4.0133,4.0647,4.1061,4.1143,4.1707,4.217,4.2369,4.2618,4.2508,4.2021,4.1455,4.1066,4.1133,4.08,4.0528,4.0177,4.0024,3.9793,3.9481,3.9424,3.9424,3.9424,3.932,3.932,3.9394,3.9424,3.9424,4.6225,4.6206,4.6201,4.6196,4.6196,4.6196,4.6196,4.6196,4.6196,4.6196,4.6196,4.6196,4.6196,4.6196,4.6196,4.6196,4.6196,4.6196,4.6196,4.6196,4.6196,4.6196,4.6196,4.6196,4.6196,4.6196,4.6196,4.6371,4.6663,4.6513,4.6577,4.6931,4.7137,4.7183,4.7164,4.7761,4.8095,4.7985,4.8219,4.859,4.9007,4.914,4.9286,4.9521,4.9476,4.9174,4.8639,4.7203,4.6194,4.5703,4.5042,4.3997,4.2753,4.1808,4.1088,4.081,4.0374,4.0087,4.0087,4.0087,4.0087,4.0087,4.0087,4.0087,4.0087,4.0087,4.0087,4.0087,4.0087,4.0087,4.007,4.0037,4.0037,4.002,3.9986,3.9935,3.9746,3.9537,3.9448,3.9325,3.9342,3.9288,3.9288,3.9587,3.9669,3.9823,4.0299,4.0763,4.0912,4.1359,4.164,4.1972,4.2485,4.28,4.2949,4.323,4.3545,4.3164,4.2684,4.2525,4.248,4.1629,4.1119,4.0377,4.0005,3.9666,3.9424,3.9424,3.9424,3.9424,3.9424,3.9424,3.9424,3.9424,3.9424,4.6247,4.621,4.6206,4.6201,4.6203,4.6196,4.6196,4.6196,4.6196,4.6196,4.6196,4.6196,4.6196,4.6196,4.6196,4.6196,4.6215,4.6371,4.641,4.6429,4.6488,4.6566,4.6442,4.6422,4.6493,4.6551,4.6532,4.6843,4.7454,4.7279,4.7559,4.807,4.7946,4.7851,4.796,4.8519,4.8846,4.8863,4.9405,4.9746,4.9803,4.9822,4.9841,4.9871,4.9607,4.9396,4.9182,4.842,4.7597,4.6558,4.5462,4.4626,4.3902,4.284,4.2233,4.2023,4.088,4.0375,4.0206,4.0104,4.0087,4.0087,4.0087,4.0087,4.0087,4.0037,4.002,4.0037,4.002,4.0037,4.002,3.9986,3.9884,3.9884,3.9833,3.9746,3.9554,3.9379,3.9325,3.9342,3.9342,3.9371,3.9487,4.0017,4.0348,4.0547,4.1028,4.1409,4.164,4.2021,4.2469,4.2833,4.3148,4.323,4.3313,4.3363,4.3645,4.3492,4.3235,4.3235,4.3035,4.219,4.126,4.0615,3.9965,3.9553,3.9424,3.9424,3.9424,3.9424,3.9424,3.9424,3.9424,3.9424,3.9424,4.6269,4.6198,4.6199,4.6206,4.6203,4.6196,4.6196,4.6196,4.6196,4.6196,4.6215,4.6196,4.6254,4.6215,4.6235,4.6196,4.6429,4.6878,4.715,4.7267,4.7852,4.7661,4.7209,4.7103,4.7397,4.7806,4.7806,4.8017,4.8095,4.7992,4.8077,4.8195,4.8643,4.8736,4.8802,4.9387,4.9721,4.9603,4.9728,4.9879,4.9879,4.9879,4.9879,4.9898,4.9797,4.9625,4.9384,4.8677,4.8056,4.7415,4.653,4.5767,4.5267,4.4369,4.3564,4.2892,4.2046,4.1321,4.09,4.0493,4.0189,4.007,4.0087,3.9952,3.9952,3.9901,3.9833,3.9833,3.9816,3.9883,3.9866,3.9848,3.9728,3.9642,3.9723,3.9707,3.9551,3.9379,3.9288,3.9322,3.9785,4.0034,4.0233,4.0663,4.1127,4.1259,4.1723,4.2237,4.2369,4.27,4.3164,4.3297,4.3512,4.3562,4.3611,4.3611,4.3568,4.3568,4.3492,4.3432,4.3035,4.2237,4.1393,4.06,3.9879,3.9424,3.9424,3.9424,3.9424,3.9424,3.9424,3.9424,3.9424,3.9424,3.9424,4.6268,4.6212,4.6214,4.6206,4.6203,4.6196,4.6196,4.6196,4.6196,4.6196,4.6274,4.6624,4.6761,4.678,4.7131,4.7287,4.7384,4.7813,4.802,4.8054,4.8446,4.835,4.803,4.7942,4.8155,4.8522,4.8608,4.8696,4.8783,4.8732,4.881,4.9067,4.9326,4.9442,4.9401,4.979,5.0031,4.9906,4.9879,4.9879,4.9879,4.9879,4.9879,4.9879,4.9879,4.9693,4.9137,4.8605,4.813,4.7692,4.7265,4.6868,4.6547,4.563,4.4831,4.4208,4.3288,4.2472,4.1971,4.1461,4.1138,4.0847,4.0555,4.0268,4.0268,4.0199,4.0146,4.0163,4.0397,4.0581,4.0615,4.0562,4.0454,4.0413,4.0275,4.0159,3.9893,4.0105,4.015,4.0282,4.0531,4.0812,4.0829,4.1442,4.1773,4.2021,4.2518,4.2833,4.3048,4.3446,4.3645,4.3645,4.3645,4.3645,4.3645,4.3645,4.3645,4.3568,4.3432,4.3432,4.2834,4.211,4.1127,4.0339,3.9753,3.9424,3.9424,3.9424,3.9424,3.9424,3.9424,3.9424,3.9424,3.9424,3.9424,4.6267,4.6206,4.6206,4.6201,4.6222,4.6293,4.6429,4.6371,4.6585,4.6624,4.6761,4.7326,4.7618,4.7676,4.8215,4.8702,4.8702,4.8764,4.8961,4.8993,4.9088,4.9018,4.9079,4.8813,4.8875,4.9019,4.8856,4.9193,4.947,4.9412,4.962,4.987,4.9892,4.9876,4.98,4.9887,4.9906,4.9906,4.9879,4.9879,4.9879,4.9879,4.9879,4.9898,4.9797,4.942,4.8885,4.8421,4.813,4.7699,4.7699,4.7585,4.7452,4.6503,4.5998,4.5651,4.4629,4.3703,4.3197,4.2825,4.2414,4.1926,4.1382,4.0916,4.0953,4.0953,4.0936,4.0792,4.1464,4.1527,4.1577,4.1638,4.1427,4.1249,4.1326,4.1193,4.0895,4.111,4.1425,4.1458,4.1442,4.1524,4.1707,4.2121,4.2634,4.2651,4.3081,4.3247,4.3363,4.3529,4.3645,4.3645,4.3645,4.3645,4.3645,4.3645,4.3645,4.3568,4.3312,4.3113,4.2459,4.1656,4.0737,4.0021,3.995,3.9681,3.9424,3.9424,3.9424,3.9424,3.9424,3.9424,3.9424,3.9424,3.9424,4.6267,4.6206,4.6206,4.6206,4.632,4.6917,4.7228,4.7267,4.793,4.8086,4.8261,4.8436,4.8514,4.8514,4.8747,4.871,4.8943,4.9382,4.9904,5.0553,5.0513,5.0487,5.0326,4.9834,4.9852,5.0119,5.0243,5.0236,5.0181,4.9997,4.994,4.9936,4.994,4.9879,4.9879,4.9879,4.9879,4.9879,4.9879,4.9879,4.9879,4.9898,4.9898,4.9871,4.9655,4.9123,4.8569,4.8344,4.8111,4.7806,4.7699,4.7699,4.7603,4.7416,4.7021,4.6561,4.5864,4.5103,4.448,4.3642,4.2843,4.2791,4.2394,4.1943,4.1577,4.1799,4.1728,4.1416,4.1399,4.1687,4.172,4.1548,4.1631,4.169,4.1988,4.222,4.2021,4.169,4.1591,4.1624,4.1972,4.2286,4.2319,4.2866,4.323,4.3363,4.3462,4.3611,4.3645,4.3645,4.3645,4.3645,4.3645,4.3645,4.3645,4.3645,4.3645,4.3585,4.3372,4.3174,4.2522,4.1933,4.1209,4.0752,4.0339,4.0021,3.9496,3.9424,3.9424,3.9424,3.9424,3.9424,3.9424,3.9424,3.9424,4.6237,4.624,4.663,4.6807,4.6943,4.7735,4.8105,4.8183,4.853,4.8736,4.8853,4.9089,4.9303,4.9359,4.9664,4.9858,4.9916,5.0181,5.0591,5.0946,5.0951,5.0928,5.0894,5.0538,5.0474,5.0752,5.0606,5.0466,5.0333,5.0236,5.0076,4.9925,4.9879,4.9879,4.9879,4.9879,4.9879,4.9879,4.9879,4.9879,4.9879,4.9879,4.9797,4.9655,4.9315,4.8834,4.8364,4.813,4.7929,4.7741,4.7699,4.7699,4.7699,4.7699,4.7554,4.7255,4.6829,4.6284,4.56,4.4991,4.4385,4.3993,4.3615,4.3025,4.2648,4.2757,4.2522,4.2176,4.2237,4.2469,4.2452,4.2469,4.2452,4.2502,4.2767,4.3015,4.2965,4.2684,4.2452,4.2502,4.2833,4.2982,4.3214,4.3446,4.3512,4.3512,4.3512,4.3645,4.3645,4.3645,4.3645,4.3645,4.3645,4.3645,4.3645,4.3645,4.3645,4.3568,4.3509,4.3372,4.3096,4.2585,4.1997,4.1276,4.0478,3.9879,3.9424,3.9424,3.9352,3.9424,3.9424,3.9424,3.9424,3.9424,3.9424,4.6409,4.6488,4.7326,4.7696,4.7832,4.8612,4.8955,4.8966,4.905,4.9284,4.9187,4.9757,5.0051,5.0227,5.0689,5.1058,5.1047,5.0959,5.0956,5.0956,5.0887,5.0874,5.0803,5.0642,5.0529,5.0606,5.0466,5.0291,5.0236,5.0163,5.0038,4.9906,4.9879,4.9879,4.9879,4.9879,4.9879,4.9879,4.9879,4.9879,4.9879,4.9879,4.9741,4.9283,4.8937,4.855,4.8172,4.7888,4.7699,4.7699,4.7657,4.7657,4.7675,4.7675,4.7675,4.7615,4.7317,4.6981,4.6564,4.6187,4.5795,4.5407,4.4785,4.4129,4.3702,4.35,4.3222,4.3065,4.3065,4.3429,4.3611,4.3429,4.3479,4.3545,4.3578,4.3645,4.3645,4.3645,4.3479,4.3479,4.3363,4.338,4.3462,4.3595,4.3628,4.3645,4.3645,4.3645,4.3645,4.3645,4.3645,4.3645,4.3645,4.3645,4.3645,4.3568,4.3568,4.3509,4.3449,4.3295,4.3157,4.238,4.1607,4.1075,4.0355,3.9809,3.9409,3.9265,3.9265,3.9337,3.9337,3.9265,3.9337,3.9352,3.9424,4.7279,4.7365,4.8222,4.8573,4.8709,4.9449,4.9776,4.9858,5.0393,5.0733,5.065,5.0814,5.0802,5.088,5.0908,5.1004,5.0976,5.0902,5.0887,5.0871,5.0808,5.0738,5.0682,5.0464,5.0329,5.0283,5.0217,5.0193,5.012,5.0038,4.9959,4.9906,4.9879,4.9879,4.9879,4.9879,4.9879,4.9879,4.9879,4.9879,4.9879,4.9824,4.9529,4.8971,4.8605,4.8249,4.7911,4.7741,4.7699,4.7699,4.7597,4.7572,4.7529,4.7511,4.7511,4.7511,4.7363,4.7232,4.7017,4.6613,4.631,4.5982,4.5474,4.4868,4.447,4.4226,4.39,4.3539,4.3462,4.3645,4.3645,4.3645,4.3645,4.3645,4.3645,4.3645,4.3645,4.3645,4.3645,4.3645,4.3645,4.3645,4.3645,4.3645,4.3645,4.3645,4.3645,4.3645,4.3645,4.3645,4.3645,4.3645,4.3645,4.3645,4.3645,4.3568,4.3568,4.3372,4.3235,4.2818,4.249,4.1722,4.106,4.06,4.027,3.9793,3.9451,3.9162,3.9017,3.9017,3.909,3.9177,3.9177,3.9265,3.9337,4.817,4.8241,4.906,4.9395,4.9515,5.0274,5.0597,5.0586,5.0942,5.1081,5.1043,5.1017,5.1017,5.1017,5.0976,5.0917,5.0871,5.0699,5.0718,5.0718,5.0644,5.0567,5.0527,5.0287,5.0212,5.0163,5.0114,5.0038,5.0038,4.9933,4.9879,4.9879,4.9879,4.9879,4.9879,4.9879,4.9879,4.9879,4.9879,4.9898,4.9852,4.9741,4.9233,4.8713,4.8364,4.8072,4.7681,4.7597,4.7554,4.7511,4.7425,4.7407,4.7363,4.7338,4.7338,4.7363,4.7294,4.7249,4.7205,4.6852,4.6554,4.6249,4.5885,4.532,4.4763,4.4412,4.4179,4.3805,4.3645,4.3645,4.3645,4.3645,4.3645,4.3645,4.3645,4.3645,4.3645,4.3645,4.3645,4.3645,4.3645,4.3645,4.3645,4.3645,4.3645,4.3645,4.3645,4.3585,4.3585,4.3568,4.3568,4.3585,4.3568,4.3568,4.3509,4.3492,4.3295,4.3113,4.2834,4.249,4.1804,4.1028,4.0706,4.0378,3.9975,3.9508,3.9493,3.9292,3.8987,3.8782,3.8855,3.8943,3.909,3.9177,3.9177,4.9036,4.9083,4.9901,5.0207,5.0267,5.086,5.112,5.1081,5.103,5.1023,5.0961,5.0917,5.0937,5.0966,5.0906,5.0858,5.0822,5.0528,5.0527,5.0567,5.0445,5.038,5.0313,5.0197,5.0114,5.0063,4.9986,4.9879,4.9906,4.9906,4.9879,4.9879,4.9879,4.9879,4.9879,4.9879,4.9879,4.9879,4.9879,4.9898,4.9741,4.9377,4.8922,4.8306,4.8172,4.7911,4.7511,4.745,4.7407,4.7363,4.7302,4.7276,4.7232,4.7116,4.7007,4.7035,4.7025,4.6998,4.6934,4.6666,4.6249,4.5953,4.5852,4.5284,4.4763,4.435,4.4064,4.3747,4.3645,4.3645,4.3645,4.3645,4.3645,4.3645,4.3645,4.3645,4.3645,4.3645,4.3645,4.3645,4.3645,4.3645,4.3645,4.3645,4.3645,4.3568,4.3568,4.3568,4.3568,4.3509,4.3509,4.3568,4.3568,4.3509,4.3449,4.3355,4.3035,4.2648,4.2301,4.1885,4.1213,4.0401,4.0139,3.9874,3.9262,3.8855,3.9133,3.919,3.8767,3.856,3.8634,3.8797,3.8797,3.8943,3.9017,4.9823,4.9838,5.0695,5.1035,5.0942,5.1078,5.1101,5.1017,5.1004,5.0961,5.0921,5.0906,5.0906,5.0874,5.0754,5.072,5.0644,5.0467,5.0402,5.0423,5.0287,5.0217,5.0193,4.9993,4.9986,4.9959,4.9933,4.9906,4.9879,4.9879,4.9879,4.9879,4.9879,4.9879,4.9879,4.9879,4.9879,4.9879,4.9879,4.9741,4.9365,4.8783,4.8383,4.8075,4.7811,4.7536,4.7381,4.732,4.732,4.7294,4.7267,4.7241,4.7133,4.6619,4.6381,4.6332,4.6332,4.6332,4.6217,4.5953,4.5631,4.5372,4.5072,4.4708,4.439,4.4023,4.3747,4.3687,4.3645,4.3645,4.3645,4.3645,4.3645,4.3645,4.3645,4.3645,4.3645,4.3645,4.3645,4.3645,4.3645,4.3645,4.3645,4.3645,4.3585,4.3568,4.3492,4.3492,4.3509,4.3432,4.3432,4.3432,4.3372,4.3312,4.2974,4.2912,4.249,4.2045,4.1559,4.1147,4.047,3.9773,3.952,3.9175,3.8634,3.8427,3.8634,3.8634,3.8337,3.8352,3.8501,3.8501,3.859,3.8649,3.8782,5.0665,5.0666,5.1035,5.1139,5.1056,5.1043,5.1004,5.0947,5.0952,5.0937,5.0906,5.0906,5.0858,5.0756,5.0526,5.0464,5.0466,5.0268,5.0197,5.024,5.0139,5.0057,5.0012,4.9933,4.9906,4.9879,4.9879,4.9906,4.9879,4.9879,4.9879,4.9879,4.9879,4.9879,4.9879,4.9879,4.9879,4.9852,4.9712,4.9265,4.8746,4.8365,4.8053,4.777,4.7536,4.7381,4.7249,4.7249,4.7205,4.716,4.7088,4.6934,4.6684,4.6332,4.607,4.57,4.539,4.539,4.558,4.5425,4.5161,4.4855,4.4614,4.439,4.4064,4.3805,4.3645,4.3645,4.3645,4.3645,4.3645,4.3645,4.3645,4.3645,4.3645,4.3645,4.3645,4.3645,4.3645,4.3645,4.3585,4.3568,4.3568,4.3568,4.3568,4.3568,4.3432,4.3432,4.3372,4.3312,4.3295,4.3235,4.3174,4.3035,4.2585,4.2253,4.169,4.1162,4.047,4.0054,3.9647,3.916,3.8957,3.8752,3.8412,3.8277,3.8366,3.8277,3.8277,3.8277,3.8277,3.8366,3.8441,3.8516,3.8649,5.1171,5.115,5.115,5.1081,5.0995,5.0976,5.0952,5.0906,5.0906,5.089,5.0822,5.0789,5.0718,5.0586,5.0355,5.0306,5.0336,5.0063,5.0012,5.0012,4.9986,4.9906,4.9906,4.9879,4.9879,4.9879,4.9879,4.9879,4.9879,4.9879,4.9879,4.9879,4.9879,4.9879,4.9879,4.9879,4.9852,4.9617,4.9182,4.8657,4.8194,4.7959,4.771,4.7493,4.7338,4.7249,4.7178,4.7151,4.7088,4.7043,4.7025,4.6795,4.6381,4.602,4.5649,4.5178,4.4652,4.4485,4.4691,4.4729,4.4635,4.4446,4.4293,4.4064,4.3747,4.3645,4.3645,4.3645,4.3645,4.3645,4.3645,4.3645,4.3645,4.3645,4.3645,4.3645,4.3645,4.3645,4.3645,4.3645,4.3568,4.3568,4.3568,4.3552,4.3509,4.3509,4.3449,4.3312,4.3113,4.2974,4.2974,4.2896,4.2648,4.2443,4.211,4.1641,4.1028,4.0401,3.9647,3.9175,3.8884,3.8679,3.8486,3.8277,3.8202,3.8202,3.8277,3.8202,3.8202,3.8202,3.8277,3.8277,3.8366,3.8441,3.8441,5.1128,5.1017,5.1017,5.0995,5.0906,5.0906,5.0906,5.0906,5.0906,5.0841,5.072,5.0547,5.0446,5.0361,5.0264,5.0163,5.0193,4.9986,4.9952,4.9933,4.9906,4.9879,4.9879,4.9879,4.9879,4.9879,4.9879,4.9879,4.9879,4.9879,4.9879,4.9879,4.9879,4.9879,4.9805,4.9722,4.948,4.9113,4.8567,4.8176,4.7838,4.7609,4.7381,4.7249,4.7223,4.7133,4.7043,4.7043,4.7043,4.6998,4.6888,4.6619,4.607,4.5597,4.5108,4.4597,4.4105,4.3964,4.4006,4.4006,4.3789,4.3671,4.3671,4.3747,4.3645,4.3645,4.3645,4.3645,4.3645,4.3645,4.3645,4.3645,4.3645,4.3645,4.3645,4.3645,4.3645,4.3645,4.3645,4.3645,4.3568,4.3492,4.3157,4.3096,4.3019,4.3019,4.2851,4.2664,4.2443,4.2317,4.2506,4.2427,4.2045,4.1852,4.1641,4.1095,4.0278,3.9788,3.9175,3.8752,3.8472,3.8277,3.8202,3.8202,3.8202,3.8202,3.8202,3.8202,3.8202,3.8202,3.8202,3.8277,3.8277,3.8292,3.8277,5.1093,5.099,5.0947,5.0937,5.0906,5.0906,5.0906,5.0906,5.0906,5.0825,5.0682,5.0421,5.0287,5.024,5.0114,5.0012,5.0012,4.9952,4.9925,4.9879,4.9879,4.9879,4.9879,4.9879,4.9879,4.9879,4.9879,4.9879,4.9879,4.9824,4.9879,4.9879,4.9805,4.9741,4.9636,4.9259,4.8829,4.8421,4.8041,4.7797,4.7432,4.7363,4.7223,4.7196,4.7088,4.7088,4.698,4.6998,4.6998,4.6888,4.6684,4.6217,4.5683,4.5108,4.458,4.4121,4.3747,4.3628,4.3645,4.3645,4.3645,4.3645,4.3645,4.3645,4.3645,4.3645,4.3645,4.3645,4.3645,4.3645,4.3645,4.3645,4.3645,4.3645,4.3645,4.3645,4.3568,4.3568,4.3568,4.3568,4.3432,4.3355,4.2958,4.2553,4.2553,4.249,4.2317,4.2061,4.1787,4.1575,4.169,4.1674,4.1295,4.0826,4.0622,4.0069,3.9463,3.9103,3.8694,3.8486,3.8277,3.8202,3.8202,3.8202,3.8202,3.8202,3.8202,3.8202,3.8202,3.8202,3.8202,3.8202,3.8202,3.8202,3.8202,5.103,5.0981,5.0921,5.0906,5.0906,5.0906,5.0906,5.089,5.0858,5.0738,5.0526,5.0259,5.0114,5.0063,4.9986,4.9906,4.9906,4.9906,4.9879,4.9879,4.9879,4.9879,4.9852,4.9797,4.9712,4.9741,4.9588,4.951,4.948,4.9558,4.951,4.948,4.9521,4.934,4.9246,4.8655,4.8121,4.7824,4.7591,4.7524,4.7178,4.7151,4.7133,4.7151,4.7043,4.7043,4.6934,4.6842,4.6684,4.6525,4.6217,4.5631,4.5161,4.4708,4.4219,4.3848,4.3645,4.3645,4.3645,4.3645,4.3645,4.3645,4.3645,4.3645,4.3645,4.3645,4.3645,4.3645,4.3645,4.3645,4.3645,4.3645,4.3645,4.3645,4.3645,4.3585,4.3449,4.3432,4.3492,4.3492,4.3157,4.2553,4.2221,4.1674,4.1346,4.1198,4.0946,4.0894,4.0961,4.0758,4.0675,4.0607,4.0401,3.9929,3.9448,3.9175,3.8899,3.8767,3.8412,3.8337,3.8202,3.8202,3.8202,3.8202,3.8202,3.8202,3.8202,3.8202,3.8202,3.8202,3.8202,3.8202,3.8202,3.8202,3.8202,5.0981,5.0906,5.0906,5.0906,5.0906,5.0906,5.089,5.0858,5.0738,5.0545,5.0259,5.0012,4.9933,4.9925,4.9906,4.9879,4.9879,4.9879,4.9879,4.9879,4.9879,4.9879,4.9769,4.9625,4.9457,4.9315,4.9169,4.9019,4.8919,4.9019,4.8986,4.8866,4.8881,4.8795,4.9048,4.8197,4.7743,4.7638,4.7258,4.7098,4.7025,4.7043,4.7043,4.7043,4.7043,4.6998,4.6934,4.6684,4.6542,4.6284,4.5802,4.5214,4.4708,4.4502,4.4121,4.3671,4.3628,4.3645,4.3645,4.3645,4.3645,4.3645,4.3645,4.3645,4.3645,4.3645,4.3645,4.3645,4.3645,4.3645,4.3645,4.3645,4.3645,4.3568,4.3568,4.3372,4.3251,4.2912,4.2896,4.2818,4.2013,4.133,4.1131,4.0795,4.0193,3.9859,3.9662,3.9662,3.9929,4.0069,3.9999,3.9647,3.952,3.9305,3.8899,3.8546,3.8352,3.8202,3.8202,3.8202,3.8202,3.8202,3.8202,3.8202,3.8202,3.8202,3.8202,3.8202,3.8202,3.8202,3.8202,3.8202,3.8202,3.8202,3.8202,5.0947,5.0906,5.0906,5.0906,5.0906,5.0906,5.0858,5.0718,5.0485,5.0306,5.0163,4.9986,4.9879,4.9879,4.9879,4.9879,4.9879,4.9879,4.9879,4.9879,4.9879,4.9741,4.9577,4.9427,4.922,4.9038,4.8816,4.8746,4.885,4.8711,4.8781,4.8728,4.8328,4.8196,4.8062,4.7614,4.7345,4.7258,4.707,4.6998,4.6998,4.6998,4.6998,4.6998,4.6998,4.6998,4.6934,4.6637,4.6381,4.6038,4.5494,4.4947,4.4429,4.4236,4.3848,4.3628,4.3645,4.3645,4.3645,4.3645,4.3645,4.3645,4.3645,4.3645,4.3645,4.3645,4.3645,4.3645,4.3645,4.3645,4.3645,4.3645,4.3568,4.3432,4.3372,4.299,4.2726,4.219,4.1917,4.1755,4.1264,4.0659,4.0263,3.9914,3.9376,3.9247,3.9118,3.8899,3.903,3.932,3.9376,3.8899,3.8605,3.862,3.8412,3.8277,3.8202,3.8202,3.8202,3.8202,3.8202,3.8202,3.8202,3.8202,3.8202,3.8202,3.8202,3.8202,3.8202,3.8202,3.8202,3.8202,3.8202,3.8202,3.8202,5.0952,5.0906,5.0906,5.0874,5.0841,5.0841,5.0718,5.0506,5.0306,5.0163,5.0082,4.9933,4.9879,4.9879,4.9879,4.9879,4.9879,4.9879,4.9879,4.9879,4.9879,4.9712,4.9488,4.922,4.8956,4.8694,4.8477,4.8402,4.8327,4.8365,4.8271,4.8078,4.7879,4.765,4.7439,4.7232,4.7116,4.707,4.6998,4.6998,4.6998,4.6998,4.6998,4.6998,4.6998,4.6888,4.6731,4.6477,4.62,4.5649,4.5125,4.4635,4.4162,4.3906,4.3645,4.3645,4.3645,4.3645,4.3645,4.3645,4.3645,4.3645,4.3645,4.3645,4.3645,4.3645,4.3645,4.3645,4.3585,4.3568,4.3568,4.3568,4.3372,4.3235,4.2912,4.2585,4.2061,4.1525,4.1178,4.1013,4.047,3.9929,3.9448,3.9045,3.856,3.856,3.862,3.8412,3.8352,3.862,3.8899,3.8546,3.8277,3.8337,3.8337,3.8277,3.8202,3.8202,3.8202,3.8202,3.8202,3.8202,3.8202,3.8202,3.8202,3.8202,3.8202,3.8202,3.8202,3.8202,3.8202,3.8202,3.8202,3.8202,3.8202,5.0906,5.0906,5.089,5.0805,5.072,5.0682,5.0504,5.0212,5.0188,5.0063,4.9906,4.9906,4.9879,4.9879,4.9879,4.9879,4.9879,4.9879,4.9879,4.9852,4.9843,4.9607,4.9283,4.8971,4.8641,4.8249,4.8032,4.7951,4.7741,4.7747,4.756,4.7381,4.7381,4.7249,4.716,4.707,4.7043,4.6998,4.6998,4.6998,4.6998,4.6998,4.6998,4.6998,4.6906,4.6637,4.6315,4.5852,4.5267,4.4691,4.4105,4.3831,4.3611,4.3645,4.3645,4.3645,4.3645,4.3645,4.3645,4.3645,4.3645,4.3645,4.3645,4.3645,4.3645,4.3645,4.3645,4.3509,4.3509,4.3492,4.3492,4.3235,4.3035,4.2772,4.2459,4.1997,4.1459,4.0977,4.0638,4.0209,3.9535,3.906,3.8841,3.8441,3.8366,3.8352,3.8412,3.8337,3.8277,3.8277,3.8486,3.8412,3.8202,3.8202,3.8202,3.8202,3.8202,3.8202,3.8202,3.8202,3.8202,3.8202,3.8202,3.8202,3.8202,3.8202,3.8202,3.8202,3.8202,3.8202,3.8202,3.8202,3.8202,3.8202,3.8202,5.0906,5.089,5.0808,5.0718,5.0644,5.0462,5.0283,5.0188,5.0063,4.9952,4.9879,4.9879,4.9879,4.9879,4.9879,4.9879,4.9879,4.9879,4.9879,4.9824,4.9702,4.9346,4.8971,4.8641,4.8249,4.797,4.7741,4.7657,4.7572,4.7425,4.7338,4.7223,4.7196,4.7088,4.7043,4.6998,4.6998,4.6998,4.6998,4.6998,4.6998,4.6998,4.6998,4.6952,4.6637,4.6381,4.607,4.5528,4.5001,4.4485,4.4333,4.4121,4.3628,4.3645,4.3645,4.3645,4.3645,4.3645,4.3645,4.3645,4.3645,4.3645,4.3645,4.3645,4.3645,4.3645,4.3645,4.3509,4.3235,4.3096,4.2912,4.2648,4.238,4.1997,4.1656,4.1194,4.0653,4.017,3.9889,3.9535,3.8855,3.8708,3.8441,3.8441,3.8441,3.8277,3.8202,3.8202,3.8202,3.8202,3.8202,3.8202,3.8202,3.8202,3.8202,3.8202,3.8202,3.8202,3.8202,3.8202,3.8202,3.8202,3.8202,3.8202,3.8202,3.8202,3.8202,3.8202,3.8202,3.8202,3.8202,3.8202,3.8202,3.8202,3.8202,5.0906,5.0874,5.0756,5.0606,5.0464,5.0193,5.0089,5.0063,4.9952,4.9879,4.9879,4.9879,4.9879,4.9879,4.9879,4.9879,4.9879,4.9879,4.9824,4.9625,4.9476,4.909,4.8677,4.8402,4.8111,4.7824,4.7657,4.7554,4.7468,4.7338,4.7205,4.7133,4.7133,4.7088,4.7043,4.6998,4.6998,4.6998,4.6998,4.6998,4.698,4.6998,4.6998,4.6842,4.6429,4.6119,4.5802,4.5267,4.4746,4.4219,4.4179,4.4006,4.3628,4.3645,4.3645,4.3645,4.3645,4.3645,4.3645,4.3645,4.3645,4.3645,4.3645,4.3645,4.3645,4.3645,4.3645,4.3568,4.3035,4.2585,4.2317,4.1997,4.1591,4.1142,4.0737,4.0393,3.9849,3.9364,3.9075,3.8929,3.8723,3.8575,3.8516,3.8516,3.8441,3.8277,3.8202,3.8202,3.8202,3.8202,3.8202,3.8202,3.8202,3.8202,3.8202,3.8202,3.8202,3.8202,3.8202,3.8202,3.8202,3.8202,3.8202,3.8202,3.8202,3.8202,3.8202,3.8202,3.8202,3.8202,3.8202,3.8202,3.8202,3.8202,3.8202,5.089,5.0874,5.0718,5.0464,5.0163,4.9986,4.9925,4.9879,4.9906,4.9879,4.9879,4.9879,4.9879,4.9879,4.9879,4.9879,4.9852,4.9824,4.9655,4.9365,4.9206,4.8853,4.8495,4.8229,4.7929,4.7723,4.7554,4.7511,4.7443,4.7267,4.7116,4.6998,4.6998,4.6998,4.6998,4.6998,4.6998,4.6998,4.698,4.6934,4.687,4.6888,4.6888,4.6666,4.6217,4.5751,4.5267,4.4674,4.4179,4.3789,4.3628,4.3628,4.3628,4.3645,4.3645,4.3645,4.3645,4.3645,4.3645,4.3645,4.3645,4.3645,4.3645,4.3645,4.3645,4.3645,4.3645,4.3174,4.2648,4.2126,4.1722,4.1209,4.0737,4.0478,4.02,3.9864,3.9508,3.909,3.887,3.8723,3.8723,3.8575,3.8501,3.8516,3.8516,3.8277,3.8277,3.8277,3.8277,3.8277,3.8202,3.8202,3.8202,3.8202,3.8202,3.8202,3.8202,3.8202,3.8202,3.8202,3.8202,3.8202,3.8202,3.8202,3.8202,3.8202,3.8202,3.8202,3.8202,3.8202,3.8202,3.8202,3.8202,3.8202,3.8202,5.0822,5.072,5.0462,5.0188,4.9986,4.9906,4.9879,4.9879,4.9879,4.9879,4.9879,4.9879,4.9879,4.9879,4.9879,4.9879,4.9852,4.9741,4.9506,4.9206,4.8922,4.8641,4.8249,4.7992,4.7765,4.7597,4.7511,4.7399,4.7267,4.7133,4.7043,4.6998,4.6998,4.6998,4.6998,4.6998,4.6998,4.6998,4.698,4.6731,4.6429,4.6315,4.6217,4.5784,4.5267,4.5018,4.458,4.4145,4.3848,4.3628,4.3628,4.3645,4.3645,4.3645,4.3645,4.3645,4.3645,4.3645,4.3645,4.3645,4.3645,4.3645,4.3645,4.3645,4.3645,4.3645,4.3372,4.2851,4.2253,4.1722,4.1142,4.0478,3.995,3.9809,3.9666,3.9379,3.909,3.8943,3.8723,3.8723,3.8723,3.8649,3.859,3.8516,3.8501,3.8427,3.8441,3.8441,3.8441,3.8366,3.8277,3.8202,3.8202,3.8202,3.8202,3.8202,3.8202,3.8202,3.8202,3.8202,3.8202,3.8202,3.8202,3.8202,3.8202,3.8202,3.8202,3.8202,3.8202,3.8202,3.8202,3.8202,3.8202,3.8202,3.8202,5.0825,5.0664,5.0333,5.0089,4.9906,4.9879,4.9879,4.9879,4.9879,4.9879,4.9879,4.9879,4.9879,4.9879,4.9879,4.9879,4.9852,4.9759,4.9408,4.9038,4.8713,4.8383,4.8072,4.7806,4.7681,4.7511,4.7381,4.7267,4.7133,4.7043,4.6998,4.6998,4.6998,4.6998,4.6998,4.6998,4.6998,4.6998,4.6998,4.6572,4.602,4.5953,4.5852,4.532,4.4855,4.4558,4.4276,4.3948,4.3687,4.3628,4.3645,4.3645,4.3645,4.3645,4.3645,4.3645,4.3645,4.3645,4.3645,4.3645,4.3645,4.3645,4.3645,4.3645,4.3509,4.3432,4.3052,4.2522,4.2045,4.1459,4.0752,4.0161,3.9753,3.9553,3.9466,3.9322,3.909,3.8943,3.887,3.8958,3.8811,3.8664,3.859,3.8441,3.8427,3.8441,3.8441,3.8516,3.8516,3.8516,3.8366,3.8277,3.8277,3.8202,3.8202,3.8202,3.8202,3.8202,3.8202,3.8202,3.8202,3.8202,3.8202,3.8202,3.8202,3.8202,3.8202,3.8202,3.8202,3.8202,3.8202,3.8202,3.8202,3.8202,3.8202,5.0789,5.0645,5.0306,5.0063,4.9906,4.9879,4.9879,4.9879,4.9879,4.9879,4.9879,4.9879,4.9879,4.9879,4.9879,4.9852,4.975,4.9529,4.9214,4.885,4.8623,4.8192,4.787,4.7639,4.7554,4.7425,4.7267,4.7133,4.7043,4.6998,4.6998,4.6998,4.6998,4.6998,4.6998,4.6998,4.6998,4.6934,4.6778,4.6249,4.5953,4.5751,4.5477,4.5108,4.4708,4.439,4.4179,4.3964,4.3628,4.3645,4.3645,4.3645,4.3645,4.3645,4.3645,4.3645,4.3645,4.3645,4.3645,4.3645,4.3645,4.3645,4.3645,4.3568,4.3432,4.3096,4.271,4.219,4.1656,4.106,4.0424,3.9965,3.9625,3.9424,3.9409,3.9337,3.9162,3.8929,3.9017,3.9104,3.8885,3.8664,3.8516,3.8366,3.8441,3.8441,3.8516,3.8516,3.8501,3.8501,3.8427,3.8352,3.8292,3.8277,3.8202,3.8202,3.8202,3.8202,3.8202,3.8202,3.8202,3.8202,3.8202,3.8202,3.8202,3.8202,3.8202,3.8202,3.8202,3.8202,3.8202,3.8202,3.8202,3.8202,3.8202,5.0717,5.0425,5.0076,4.9952,4.9879,4.9879,4.9879,4.9879,4.9879,4.9879,4.9879,4.9879,4.9879,4.9879,4.9879,4.9797,4.9548,4.9327,4.885,4.8421,4.8231,4.7852,4.7578,4.7511,4.7443,4.7267,4.7133,4.7043,4.6998,4.6998,4.6998,4.6998,4.6998,4.6998,4.6998,4.6998,4.6998,4.6934,4.659,4.6102,4.5563,4.525,4.4783,4.4316,4.3831,4.3789,4.3747,4.3687,4.3645,4.3645,4.3645,4.3645,4.3645,4.3645,4.3645,4.3645,4.3645,4.3645,4.3645,4.3645,4.3645,4.3568,4.3568,4.3432,4.3235,4.2772,4.2253,4.1656,4.106,4.0462,3.995,3.9824,3.9568,3.9553,3.9538,3.9394,3.925,3.9162,3.9162,3.9017,3.887,3.8649,3.859,3.8516,3.859,3.8664,3.8738,3.8723,3.8649,3.8575,3.8486,3.8427,3.8366,3.8277,3.8202,3.8277,3.8277,3.8202,3.8202,3.8202,3.8202,3.8202,3.8202,3.8202,3.8202,3.8202,3.8202,3.8202,3.8202,3.8202,3.8202,3.8202,3.8202,3.8202,3.8202]},{"header":{"parameterUnit":"m.s-1","parameterCategory":1,"la1":31.0,"la2":29.5877,"lo1":-88.7671,"lo2":-86.6584,"dx":0.0162,"dy":0.0185,"nx":115,"ny":88,"refTime":"2022-11-24T18:00:00:Z","depth":0,"parameterNumber":3,"parameterNumberName":"V-component_of_WINDS"},"data":[0.0,0.0,0.0,0.0,0.0,0.0,0.0,0.0,0.0,0.0,0.0,0.0,0.0,0.0,0.0,0.0,0.0,0.0,0.0,0.0,0.0,0.0,0.0,0.0,0.0,0.0,0.0,0.0,0.0,0.0,0.0,0.0,0.0,0.0,0.0,0.0,0.0,0.0,0.0,0.0,0.0,0.0,0.0,0.0,0.0,0.0,0.0,0.0,0.0,0.0,0.0,0.0,0.0,0.0,0.0,0.0,0.0,0.0,0.0,0.0,0.0,0.0,0.0,0.0,0.0,0.0,0.0,0.0,0.0,0.0,0.0,0.0,0.0,0.0,0.0,0.0,0.0,0.0,0.0,0.0,0.0,0.0,0.0,0.0,0.0,0.0,0.0,0.0,0.0,0.0,0.0,0.0,0.0,0.0,0.0,0.0,0.0,0.0,0.0,0.0,0.0,0.0,0.0,0.0,0.0,0.0,0.0,0.0,0.0,0.0,0.0,0.0,0.0,0.0,0.0,0.0,0.0,0.0,0.0,0.0,0.0,0.0,0.0,0.0,0.0,0.0,0.0,0.0,0.0,0.0,0.0,0.0,0.0,0.0,0.0,0.0,0.0,0.0,0.0,0.0,0.0,0.0,0.0,0.0,0.0,0.0,0.0,0.0,0.0,0.0,0.0,0.0,0.0,0.0,0.0,0.0,0.0,0.0,0.0,0.0,0.0,0.0,0.0,0.0,0.0,0.0,0.0,0.0,0.0,0.0,0.0,0.0,0.0,0.0,0.0,0.0,0.0,0.0,0.0,0.0,0.0,0.0,0.0,0.0,0.0,0.0,0.0,0.0,0.0,0.0,0.0,0.0,0.0,0.0,0.0,0.0,0.0,0.0,0.0,0.0,0.0,0.0,0.0,0.0,0.0,0.0,0.0,0.0,0.0,0.0,0.0,0.0,0.0,0.0,0.0,0.0,0.0,0.0,0.0,0.0,0.0,0.0,0.0,0.0,0.0,0.0,0.0,0.0,0.0,0.0,0.0,0.0,0.0,0.0,0.0,0.0,0.0,0.0,0.0,0.0,0.0,0.0,0.0,0.0,0.0,0.0,0.0,0.0,0.0,0.0,0.0,0.0,0.0,0.0,0.0,0.0,0.0,0.0,0.0,0.0,0.0,0.0,0.0,0.0,0.0,0.0,0.0,0.0,0.0,0.0,0.0,0.0,0.0,0.0,0.0,0.0,0.0,0.0,0.0,0.0,0.0,0.0,0.0,0.0,0.0,0.0,0.0,0.0,0.0,0.0,0.0,0.0,0.0,0.0,0.0,0.0,0.0,0.0,0.0,0.0,0.0,0.0,0.0,0.0,0.0,0.0,0.0,0.0,0.0,0.0,0.0,0.0,0.0,0.0,0.0,0.0,0.0,0.0,0.0,0.0,0.0,0.0,0.0,0.0,0.0,0.0,0.0,0.0,0.0,0.0,0.0,0.0,0.0,0.0,0.0,0.0,0.0,0.0,0.0,0.0,0.0,0.0,0.0,0.0,0.0,0.0,0.0,0.0,0.0,0.0,0.0,0.0,0.0,0.0,0.0,0.0,0.0,0.0,0.0,0.0,0.0,0.0,0.0,0.0,0.0,0.0,0.0,0.0,0.0,0.0,0.0,0.0,0.0,0.0,0.0,0.0,0.0,0.0,0.0,0.0,0.0,0.0,0.0,0.0,0.0,0.0,0.0,0.0,0.0,0.0,0.0,0.0,0.0,0.0,0.0,0.0,0.0,0.0,0.0,0.0,0.0,0.0,0.0,0.0,0.0,0.0,0.0,0.0,0.0,0.0,0.0,0.0,0.0,0.0,0.0,0.0,0.0,0.0,0.0,0.0,0.0,0.0,0.0,0.0,0.0,0.0,0.0,0.0,0.0,0.0,0.0,0.0,0.0,0.0,0.0,0.0,0.0,0.0,0.0,0.0,0.0,0.0,0.0,0.0,0.0,0.0,0.0,0.0,0.0,0.0,0.0,0.0,0.0,0.0,0.0,0.0,0.0,0.0,0.0,0.0,0.0,0.0,0.0,0.0,0.0,0.0,0.0,0.0,0.0,0.0,0.0,0.0,0.0,0.0,0.0,0.0,0.0,0.0,0.0,0.0,0.0,0.0,0.0,0.0,0.0,0.0,0.0,0.0,0.0,0.0,0.0,0.0,0.0,0.0,0.0,0.0,0.0,0.0,0.0,0.0,0.0,0.0,0.0,0.0,0.0,0.0,0.0,0.0,0.0,0.0,0.0,0.0,0.0,0.0,0.0,0.0,0.0,0.0,0.0,0.0,0.0,0.0,0.0,0.0,0.0,0.0,0.0,0.0,0.0,0.0,0.0,0.0,0.0,0.0,0.0,0.0,0.0,0.0,0.0,0.0,0.0,0.0,0.0,0.0,0.0,0.0,0.0,0.0,0.0,0.0,0.0,0.0,0.0,0.0,0.0,0.0,0.0,0.0,0.0,0.0,0.0,0.0,0.0,0.0,0.0,0.0,0.0,0.0,0.0,0.0,0.0,0.0,0.0,0.0,0.0,0.0,0.0,0.0,0.0,0.0,0.0,0.0,0.0,0.0,0.0,0.0,0.0,0.0,0.0,0.0,0.0,0.0,0.0,0.0,0.0,0.0,0.0,0.0,0.0,0.0,0.0,0.0,0.0,0.0,0.0,0.0,0.0,0.0,0.0,0.0,0.0,0.0,0.0,0.0,0.0,0.0,0.0,0.0,0.0,0.0,0.0,0.0,0.0,0.0,0.0,0.0,0.0,0.0,0.0,0.0,0.0,0.0,0.0,0.0,0.0,0.0,0.0,0.0,0.0,0.0,0.0,0.0,0.0,0.0,0.0,0.0,0.0,0.0,0.0,0.0,0.0,0.0,0.0,0.0,0.0,0.0,0.0,0.0,0.0,0.0,0.0,0.0,0.0,0.0,0.0,0.0,0.0,0.0,0.0,0.0,0.0,0.0,0.0,0.0,0.0,0.0,0.0,0.0,0.0,0.0,0.0,0.0,0.0,0.0,0.0,0.0,0.0,0.0,0.0,0.0,0.0,0.0,0.0,0.0,0.0,0.0,0.0,0.0,0.0,0.0,0.0,0.0,0.0,0.0,0.0,0.0,0.0,0.0,0.0,0.0,0.0,0.0,0.0,0.0,0.0,0.0,0.0,0.0,0.0,0.0,0.0,0.0,0.0,0.0,0.0,0.0,0.0,0.0,0.0,0.0,0.0,0.0,0.0,0.0,0.0,0.0,0.0,0.0,0.0,0.0,0.0,0.0,0.0,0.0,0.0,0.0,0.0,0.0,0.0,0.0,0.0,0.0,0.0,0.0,0.0,0.0,0.0,0.0,0.0,0.0,0.0,0.0,0.0,0.0,0.0,0.0,0.0,0.0,0.0,0.0,0.0,0.0,0.0,0.0,0.0,0.0,0.0,0.0,0.0,0.0,0.0,0.0,0.0,0.0,0.0,0.0,0.0,0.0,0.0,0.0,0.0,0.0,0.0,0.0,0.0,0.0,0.0,0.0,0.0,0.0,0.0,0.0,0.0,0.0,0.0,0.0,0.0,0.0,0.0,0.0,0.0,0.0,0.0,0.0,0.0,0.0,0.0,0.0,0.0,0.0,0.0,0.0,0.0,0.0,0.0,0.0,0.0,0.0,0.0,0.0,0.0,0.0,0.0,0.0,0.0,0.0,0.0,0.0,0.0,0.0,0.0,0.0,0.0,0.0,0.0,0.0,0.0,0.0,0.0,0.0,0.0,0.0,0.0,0.0,0.0,0.0,0.0,0.0,0.0,0.0,0.0,0.0,0.0,0.0,0.0,0.0,0.0,0.0,0.0,0.0,0.0,0.0,0.0,0.0,0.0,0.0,0.0,0.0,0.0,0.0,0.0,0.0,0.0,0.0,0.0,0.0,0.0,0.0,0.0,0.0,0.0,0.0,0.0,0.0,0.0,0.0,0.0,0.0,0.0,0.0,0.0,0.0,0.0,0.0,0.0,0.0,0.0,0.0,0.0,0.0,0.0,0.0,0.0,0.0,0.0,0.0,0.0,0.0,0.0,0.0,0.0,0.0,0.0,0.0,0.0,0.0,0.0,0.0,0.0,0.0,0.0,0.0,0.0,0.0,0.0,0.0,0.0,0.0,0.0,0.0,0.0,0.0,0.0,0.0,0.0,0.0,0.0,0.0,0.0,0.0,0.0,0.0,0.0,0.0,0.0,0.0,0.0,0.0,0.0,0.0,0.0,0.0,-1.9493,0.0,0.0,0.0,-1.996,0.0,0.0,0.0,0.0,0.0,0.0,0.0,0.0,0.0,0.0,0.0,0.0,0.0,0.0,0.0,0.0,0.0,0.0,0.0,0.0,0.0,0.0,0.0,0.0,0.0,0.0,0.0,0.0,0.0,0.0,0.0,0.0,0.0,0.0,0.0,0.0,0.0,0.0,0.0,0.0,0.0,0.0,0.0,0.0,0.0,0.0,0.0,0.0,0.0,0.0,0.0,0.0,0.0,0.0,0.0,0.0,0.0,0.0,0.0,0.0,0.0,0.0,0.0,0.0,0.0,0.0,0.0,0.0,0.0,0.0,0.0,0.0,0.0,0.0,0.0,0.0,0.0,0.0,0.0,0.0,0.0,0.0,0.0,0.0,0.0,0.0,0.0,0.0,0.0,0.0,0.0,0.0,0.0,0.0,0.0,0.0,0.0,0.0,0.0,0.0,0.0,0.0,0.0,0.0,0.0,0.0,0.0,0.0,0.0,0.0,-1.9508,-1.9639,-1.8731,-1.8784,-1.9889,0.0,0.0,0.0,0.0,0.0,0.0,0.0,0.0,0.0,0.0,0.0,0.0,0.0,0.0,0.0,0.0,0.0,0.0,0.0,0.0,0.0,0.0,0.0,0.0,0.0,0.0,0.0,0.0,0.0,0.0,0.0,0.0,0.0,0.0,0.0,0.0,0.0,0.0,0.0,0.0,0.0,0.0,0.0,0.0,0.0,0.0,0.0,0.0,0.0,0.0,0.0,0.0,0.0,0.0,0.0,0.0,0.0,0.0,0.0,0.0,0.0,0.0,0.0,0.0,0.0,0.0,0.0,0.0,0.0,0.0,0.0,0.0,0.0,0.0,0.0,0.0,0.0,0.0,0.0,0.0,0.0,0.0,0.0,0.0,0.0,0.0,0.0,0.0,0.0,0.0,0.0,0.0,0.0,0.0,0.0,0.0,0.0,0.0,0.0,0.0,0.0,0.0,0.0,0.0,0.0,0.0,0.0,0.0,0.0,0.0,0.0,0.0,-1.8592,-1.8707,-1.9369,0.0,0.0,0.0,0.0,0.0,0.0,0.0,0.0,0.0,0.0,0.0,0.0,0.0,0.0,0.0,0.0,0.0,0.0,0.0,0.0,0.0,0.0,0.0,0.0,0.0,0.0,0.0,0.0,0.0,0.0,0.0,0.0,0.0,0.0,0.0,0.0,0.0,0.0,0.0,0.0,0.0,0.0,0.0,0.0,0.0,0.0,0.0,0.0,0.0,0.0,0.0,0.0,0.0,0.0,0.0,0.0,0.0,0.0,0.0,0.0,0.0,0.0,0.0,0.0,0.0,0.0,0.0,0.0,0.0,0.0,0.0,0.0,0.0,0.0,0.0,0.0,0.0,0.0,0.0,0.0,0.0,0.0,0.0,0.0,0.0,0.0,0.0,0.0,0.0,0.0,0.0,0.0,0.0,0.0,0.0,0.0,0.0,0.0,0.0,0.0,0.0,0.0,0.0,0.0,0.0,0.0,0.0,0.0,0.0,0.0,-1.9049,-1.8741,-1.824,0.0,-1.8588,0.0,0.0,0.0,0.0,0.0,0.0,0.0,0.0,0.0,0.0,0.0,0.0,0.0,0.0,0.0,0.0,0.0,0.0,0.0,0.0,0.0,0.0,0.0,0.0,0.0,0.0,0.0,0.0,0.0,0.0,0.0,0.0,0.0,0.0,0.0,0.0,0.0,0.0,0.0,0.0,0.0,0.0,0.0,0.0,0.0,0.0,0.0,0.0,0.0,0.0,0.0,0.0,0.0,0.0,0.0,0.0,0.0,0.0,0.0,0.0,0.0,0.0,0.0,0.0,0.0,0.0,0.0,0.0,0.0,0.0,0.0,0.0,0.0,0.0,0.0,0.0,0.0,0.0,0.0,0.0,0.0,0.0,0.0,0.0,0.0,0.0,0.0,0.0,0.0,0.0,0.0,0.0,0.0,0.0,0.0,0.0,0.0,0.0,0.0,0.0,0.0,0.0,0.0,0.0,0.0,0.0,0.0,0.0,0.0,0.0,-1.9035,-1.8486,-1.8553,-1.8436,0.0,0.0,0.0,0.0,0.0,0.0,0.0,0.0,0.0,0.0,0.0,0.0,0.0,0.0,0.0,0.0,0.0,0.0,0.0,0.0,0.0,0.0,0.0,0.0,0.0,0.0,0.0,0.0,0.0,0.0,0.0,0.0,0.0,0.0,0.0,0.0,0.0,0.0,0.0,0.0,0.0,0.0,0.0,0.0,0.0,0.0,0.0,0.0,0.0,0.0,0.0,0.0,0.0,0.0,0.0,0.0,0.0,0.0,0.0,0.0,0.0,0.0,0.0,0.0,0.0,0.0,0.0,0.0,0.0,0.0,0.0,0.0,0.0,0.0,0.0,0.0,0.0,0.0,0.0,0.0,0.0,0.0,0.0,0.0,0.0,0.0,0.0,0.0,0.0,0.0,0.0,0.0,0.0,0.0,0.0,0.0,0.0,0.0,0.0,0.0,0.0,0.0,0.0,0.0,0.0,0.0,0.0,0.0,0.0,0.0,-1.902,-1.8793,-1.8226,-1.8345,-1.8125,-1.7465,0.0,0.0,0.0,0.0,0.0,0.0,0.0,0.0,0.0,0.0,0.0,0.0,0.0,0.0,0.0,0.0,0.0,0.0,0.0,0.0,0.0,0.0,0.0,0.0,0.0,0.0,0.0,0.0,0.0,0.0,0.0,0.0,0.0,0.0,0.0,0.0,0.0,0.0,0.0,0.0,0.0,0.0,0.0,0.0,0.0,0.0,0.0,0.0,0.0,0.0,0.0,0.0,0.0,0.0,0.0,0.0,0.0,0.0,0.0,0.0,0.0,0.0,0.0,0.0,0.0,0.0,0.0,0.0,0.0,0.0,0.0,0.0,0.0,0.0,0.0,0.0,0.0,0.0,0.0,0.0,0.0,0.0,0.0,0.0,0.0,0.0,0.0,0.0,0.0,0.0,0.0,0.0,0.0,0.0,0.0,0.0,0.0,0.0,0.0,0.0,0.0,0.0,0.0,0.0,0.0,0.0,0.0,0.0,-1.863,-1.8422,-1.8201,-1.7909,-1.7259,-1.6948,0.0,0.0,0.0,0.0,0.0,0.0,0.0,0.0,0.0,0.0,0.0,0.0,0.0,0.0,0.0,0.0,0.0,0.0,0.0,0.0,0.0,0.0,0.0,0.0,0.0,0.0,0.0,0.0,0.0,0.0,0.0,0.0,0.0,0.0,0.0,0.0,0.0,0.0,0.0,0.0,0.0,0.0,0.0,0.0,0.0,0.0,0.0,0.0,0.0,0.0,0.0,0.0,0.0,0.0,0.0,0.0,0.0,0.0,0.0,0.0,0.0,0.0,0.0,0.0,0.0,0.0,0.0,0.0,0.0,0.0,0.0,0.0,0.0,0.0,0.0,0.0,0.0,0.0,0.0,0.0,0.0,0.0,0.0,0.0,0.0,0.0,0.0,0.0,0.0,0.0,0.0,0.0,0.0,0.0,0.0,0.0,0.0,0.0,0.0,0.0,0.0,0.0,0.0,0.0,0.0,0.0,0.0,0.0,0.0,-1.8277,-1.8042,-1.7868,-1.7747,-1.722,-1.6772,0.0,0.0,0.0,0.0,0.0,0.0,0.0,0.0,0.0,0.0,0.0,0.0,0.0,0.0,0.0,0.0,0.0,0.0,0.0,0.0,0.0,0.0,0.0,0.0,0.0,0.0,0.0,0.0,0.0,0.0,0.0,0.0,0.0,0.0,0.0,0.0,0.0,0.0,0.0,0.0,0.0,0.0,0.0,0.0,0.0,0.0,0.0,0.0,0.0,0.0,0.0,0.0,0.0,0.0,0.0,0.0,0.0,0.0,0.0,0.0,0.0,0.0,0.0,0.0,0.0,0.0,0.0,0.0,0.0,0.0,0.0,0.0,0.0,0.0,0.0,0.0,0.0,0.0,0.0,0.0,0.0,0.0,0.0,0.0,0.0,0.0,0.0,0.0,0.0,0.0,0.0,0.0,0.0,0.0,0.0,0.0,0.0,0.0,0.0,0.0,0.0,0.0,0.0,0.0,0.0,0.0,0.0,0.0,0.0,-1.7706,-1.7338,-1.7253,-1.7434,-1.6784,-1.6311,0.0,0.0,0.0,0.0,0.0,0.0,0.0,0.0,0.0,0.0,0.0,0.0,0.0,0.0,0.0,0.0,0.0,0.0,0.0,0.0,0.0,0.0,0.0,0.0,0.0,0.0,0.0,0.0,0.0,0.0,0.0,0.0,0.0,0.0,0.0,0.0,0.0,0.0,0.0,0.0,0.0,0.0,0.0,0.0,0.0,0.0,0.0,0.0,0.0,0.0,0.0,0.0,0.0,0.0,0.0,0.0,0.0,0.0,0.0,0.0,0.0,0.0,0.0,0.0,0.0,0.0,0.0,0.0,0.0,0.0,0.0,0.0,0.0,0.0,0.0,0.0,0.0,0.0,0.0,0.0,0.0,0.0,0.0,0.0,0.0,0.0,0.0,0.0,0.0,0.0,0.0,0.0,0.0,0.0,0.0,0.0,0.0,0.0,0.0,0.0,0.0,0.0,0.0,0.0,0.0,0.0,0.0,0.0,-1.7585,-1.6837,-1.6324,-1.6411,-1.6967,-1.5918,-1.5524,0.0,0.0,0.0,0.0,0.0,0.0,0.0,0.0,0.0,0.0,0.0,0.0,0.0,0.0,0.0,0.0,0.0,0.0,0.0,0.0,0.0,0.0,0.0,0.0,0.0,0.0,0.0,0.0,0.0,0.0,0.0,0.0,0.0,0.0,0.0,0.0,0.0,0.0,0.0,0.0,0.0,0.0,0.0,0.0,0.0,0.0,0.0,0.0,0.0,0.0,0.0,0.0,0.0,0.0,0.0,0.0,0.0,0.0,0.0,0.0,0.0,0.0,0.0,0.0,0.0,0.0,0.0,0.0,0.0,0.0,0.0,0.0,0.0,0.0,0.0,0.0,0.0,0.0,0.0,0.0,0.0,0.0,0.0,0.0,0.0,0.0,0.0,0.0,0.0,0.0,0.0,0.0,0.0,0.0,0.0,0.0,0.0,0.0,0.0,0.0,0.0,0.0,0.0,0.0,0.0,0.0,0.0,0.0,0.0,-1.7269,-1.6795,-1.6795,-1.7258,-1.6255,-1.5882,0.0,0.0,0.0,0.0,0.0,0.0,0.0,0.0,0.0,0.0,0.0,0.0,0.0,0.0,0.0,0.0,0.0,0.0,0.0,0.0,0.0,0.0,0.0,0.0,0.0,0.0,0.0,0.0,0.0,0.0,0.0,0.0,0.0,0.0,0.0,0.0,0.0,0.0,0.0,0.0,0.0,0.0,0.0,0.0,0.0,0.0,0.0,0.0,0.0,0.0,0.0,0.0,0.0,0.0,0.0,0.0,0.0,0.0,0.0,0.0,0.0,0.0,0.0,0.0,0.0,0.0,0.0,0.0,0.0,0.0,0.0,0.0,0.0,0.0,0.0,0.0,0.0,0.0,0.0,0.0,0.0,0.0,0.0,0.0,0.0,0.0,0.0,0.0,0.0,0.0,0.0,0.0,0.0,0.0,0.0,0.0,0.0,0.0,0.0,0.0,0.0,0.0,0.0,0.0,0.0,0.0,0.0,0.0,0.0,-1.7162,-1.651,-1.6398,-1.6921,-1.6258,-1.6046,-1.6374,0.0,0.0,0.0,0.0,0.0,0.0,0.0,0.0,0.0,0.0,0.0,0.0,0.0,0.0,0.0,0.0,0.0,0.0,0.0,0.0,0.0,0.0,0.0,0.0,0.0,0.0,0.0,0.0,0.0,0.0,0.0,0.0,0.0,0.0,0.0,0.0,0.0,0.0,0.0,0.0,0.0,0.0,0.0,0.0,0.0,0.0,0.0,0.0,0.0,0.0,0.0,0.0,0.0,0.0,0.0,0.0,0.0,0.0,0.0,0.0,0.0,0.0,0.0,0.0,0.0,0.0,0.0,0.0,0.0,0.0,0.0,0.0,0.0,0.0,0.0,0.0,0.0,0.0,0.0,0.0,0.0,0.0,0.0,0.0,0.0,0.0,0.0,0.0,0.0,0.0,0.0,0.0,0.0,0.0,0.0,0.0,0.0,0.0,0.0,0.0,0.0,0.0,0.0,0.0,0.0,0.0,0.0,0.0,-1.6662,-1.5683,-1.5449,-1.6037,-1.5957,-1.6048,0.0,0.0,0.0,0.0,0.0,0.0,0.0,0.0,0.0,0.0,0.0,0.0,0.0,0.0,0.0,0.0,0.0,0.0,0.0,0.0,0.0,0.0,0.0,0.0,0.0,0.0,0.0,0.0,0.0,0.0,0.0,0.0,0.0,0.0,0.0,0.0,0.0,0.0,0.0,0.0,0.0,0.0,0.0,0.0,0.0,0.0,0.0,0.0,0.0,0.0,0.0,0.0,0.0,0.0,0.0,0.0,0.0,0.0,0.0,0.0,0.0,0.0,0.0,0.0,0.0,0.0,0.0,0.0,0.0,0.0,0.0,0.0,0.0,0.0,0.0,0.0,0.0,0.0,0.0,0.0,0.0,0.0,0.0,0.0,0.0,0.0,0.0,0.0,0.0,0.0,0.0,0.0,0.0,0.0,0.0,0.0,0.0,0.0,0.0,0.0,0.0,0.0,0.0,0.0,0.0,0.0,0.0,0.0,0.0,-1.6209,-1.6169,-1.6218,-1.6344,-1.6001,-1.5919,0.0,0.0,0.0,0.0,0.0,0.0,0.0,0.0,0.0,0.0,0.0,0.0,0.0,0.0,0.0,0.0,0.0,0.0,0.0,0.0,0.0,0.0,0.0,0.0,0.0,0.0,0.0,0.0,0.0,0.0,0.0,0.0,0.0,0.0,0.0,0.0,0.0,0.0,0.0,0.0,0.0,0.0,0.0,0.0,0.0,0.0,0.0,0.0,0.0,0.0,0.0,0.0,0.0,0.0,0.0,0.0,0.0,0.0,0.0,0.0,0.0,0.0,0.0,0.0,0.0,0.0,0.0,0.0,0.0,0.0,0.0,0.0,0.0,0.0,0.0,0.0,0.0,0.0,0.0,0.0,0.0,0.0,0.0,0.0,0.0,0.0,0.0,0.0,0.0,0.0,0.0,0.0,0.0,0.0,0.0,0.0,0.0,0.0,0.0,0.0,0.0,0.0,0.0,0.0,0.0,0.0,0.0,0.0,-1.6232,-1.5932,-1.6115,-1.6316,-1.6523,-1.6266,-1.6176,0.0,0.0,0.0,0.0,0.0,0.0,0.0,0.0,0.0,0.0,0.0,0.0,0.0,0.0,0.0,0.0,0.0,0.0,0.0,0.0,0.0,0.0,0.0,0.0,0.0,0.0,0.0,0.0,0.0,0.0,0.0,0.0,0.0,0.0,0.0,0.0,0.0,0.0,0.0,0.0,0.0,0.0,0.0,0.0,0.0,0.0,0.0,0.0,0.0,0.0,0.0,0.0,0.0,0.0,0.0,0.0,0.0,0.0,0.0,0.0,0.0,0.0,0.0,0.0,0.0,0.0,0.0,0.0,0.0,0.0,0.0,0.0,0.0,0.0,0.0,0.0,0.0,0.0,0.0,0.0,0.0,0.0,0.0,0.0,0.0,0.0,0.0,0.0,0.0,0.0,0.0,0.0,0.0,0.0,0.0,0.0,0.0,0.0,0.0,0.0,0.0,0.0,0.0,0.0,0.0,0.0,0.0,0.0,-1.5981,-1.5891,-1.5957,-1.6153,-1.6481,-1.6592,-1.649,0.0,0.0,0.0,0.0,0.0,0.0,0.0,0.0,0.0,0.0,0.0,0.0,0.0,0.0,0.0,0.0,0.0,0.0,0.0,0.0,0.0,0.0,0.0,0.0,0.0,0.0,0.0,0.0,0.0,0.0,0.0,0.0,0.0,0.0,0.0,0.0,0.0,0.0,0.0,0.0,0.0,0.0,0.0,0.0,0.0,0.0,0.0,0.0,0.0,0.0,0.0,0.0,0.0,0.0,0.0,0.0,0.0,0.0,0.0,0.0,0.0,0.0,0.0,0.0,0.0,0.0,0.0,0.0,0.0,0.0,0.0,0.0,0.0,0.0,0.0,0.0,0.0,0.0,0.0,0.0,0.0,0.0,0.0,0.0,0.0,0.0,0.0,0.0,0.0,0.0,0.0,0.0,0.0,0.0,0.0,0.0,0.0,0.0,0.0,0.0,0.0,0.0,0.0,0.0,0.0,0.0,0.0,0.0,-1.6379,-1.6361,-1.6765,-1.6819,-1.6525,-1.6162,-1.6075,0.0,0.0,0.0,0.0,0.0,0.0,0.0,0.0,0.0,0.0,0.0,0.0,0.0,0.0,0.0,0.0,0.0,0.0,0.0,0.0,0.0,0.0,0.0,0.0,0.0,0.0,0.0,0.0,0.0,0.0,0.0,0.0,0.0,0.0,0.0,0.0,0.0,0.0,0.0,0.0,0.0,0.0,0.0,0.0,0.0,0.0,0.0,0.0,-2.1479,0.0,0.0,0.0,0.0,0.0,0.0,0.0,0.0,0.0,0.0,0.0,0.0,0.0,0.0,0.0,0.0,0.0,0.0,0.0,0.0,0.0,0.0,0.0,0.0,0.0,0.0,0.0,0.0,0.0,0.0,0.0,0.0,0.0,0.0,0.0,0.0,0.0,0.0,0.0,0.0,0.0,0.0,0.0,0.0,0.0,0.0,0.0,0.0,0.0,0.0,0.0,0.0,0.0,0.0,0.0,0.0,0.0,0.0,0.0,-1.6291,-1.6514,-1.7016,-1.7147,-1.6852,-1.618,-1.5994,0.0,0.0,0.0,0.0,0.0,0.0,0.0,0.0,0.0,0.0,0.0,0.0,0.0,0.0,0.0,0.0,0.0,0.0,0.0,0.0,0.0,0.0,0.0,0.0,0.0,0.0,0.0,0.0,0.0,0.0,0.0,0.0,0.0,0.0,0.0,0.0,0.0,0.0,0.0,0.0,0.0,0.0,0.0,0.0,0.0,0.0,0.0,0.0,0.0,0.0,0.0,0.0,0.0,0.0,0.0,0.0,0.0,0.0,0.0,0.0,0.0,0.0,0.0,0.0,0.0,0.0,0.0,0.0,0.0,0.0,0.0,0.0,0.0,0.0,0.0,0.0,0.0,0.0,0.0,0.0,0.0,0.0,0.0,0.0,0.0,0.0,0.0,0.0,0.0,0.0,0.0,0.0,0.0,0.0,0.0,0.0,0.0,0.0,0.0,0.0,0.0,0.0,0.0,0.0,0.0,0.0,0.0,-1.5859,-1.6046,-1.6623,-1.706,-1.7278,-1.7323,-1.6339,-1.607,-1.6562,0.0,0.0,0.0,0.0,0.0,0.0,0.0,0.0,0.0,0.0,0.0,0.0,0.0,0.0,0.0,0.0,0.0,0.0,0.0,0.0,0.0,0.0,0.0,0.0,0.0,0.0,0.0,0.0,0.0,0.0,0.0,0.0,0.0,0.0,0.0,0.0,0.0,0.0,-2.0304,-2.0304,0.0,0.0,0.0,0.0,0.0,0.0,0.0,0.0,-2.0958,0.0,0.0,0.0,0.0,0.0,0.0,0.0,0.0,0.0,0.0,0.0,0.0,0.0,0.0,0.0,0.0,0.0,0.0,0.0,0.0,0.0,0.0,0.0,0.0,0.0,0.0,0.0,0.0,0.0,0.0,0.0,0.0,0.0,0.0,0.0,0.0,0.0,0.0,0.0,0.0,0.0,0.0,0.0,0.0,0.0,0.0,0.0,0.0,0.0,0.0,0.0,0.0,0.0,0.0,0.0,0.0,-1.5846,-1.5793,-1.6262,-1.7125,-1.7234,-1.7278,-1.7256,-1.6339,-1.6177,-1.693,0.0,0.0,0.0,0.0,0.0,0.0,0.0,0.0,0.0,0.0,0.0,0.0,0.0,0.0,0.0,0.0,0.0,0.0,0.0,0.0,0.0,0.0,0.0,0.0,0.0,0.0,0.0,0.0,0.0,0.0,0.0,0.0,0.0,0.0,0.0,0.0,0.0,0.0,0.0,-2.0304,-2.0304,0.0,0.0,0.0,0.0,0.0,0.0,0.0,0.0,-2.086,0.0,0.0,0.0,0.0,0.0,0.0,0.0,0.0,0.0,0.0,0.0,0.0,0.0,0.0,0.0,0.0,0.0,0.0,0.0,0.0,0.0,0.0,0.0,0.0,0.0,0.0,0.0,0.0,0.0,0.0,0.0,0.0,0.0,0.0,0.0,0.0,0.0,0.0,0.0,0.0,0.0,0.0,0.0,0.0,0.0,0.0,0.0,0.0,0.0,0.0,0.0,0.0,0.0,0.0,0.0,-1.572,-1.5609,-1.6073,-1.7234,-1.7278,-1.7278,-1.7267,-1.6339,-1.6272,0.0,0.0,0.0,0.0,0.0,0.0,0.0,0.0,0.0,0.0,0.0,0.0,0.0,0.0,0.0,0.0,0.0,0.0,0.0,0.0,0.0,0.0,0.0,0.0,0.0,0.0,0.0,0.0,0.0,0.0,0.0,0.0,0.0,0.0,0.0,0.0,0.0,0.0,0.0,0.0,-2.0304,-2.0304,-2.0304,0.0,0.0,0.0,0.0,0.0,0.0,-2.0628,-2.0561,0.0,0.0,0.0,0.0,0.0,0.0,0.0,0.0,0.0,0.0,0.0,0.0,0.0,0.0,0.0,0.0,0.0,0.0,0.0,0.0,0.0,0.0,0.0,0.0,0.0,0.0,0.0,0.0,0.0,0.0,0.0,0.0,0.0,0.0,0.0,0.0,0.0,0.0,0.0,0.0,0.0,0.0,0.0,0.0,0.0,0.0,0.0,0.0,0.0,0.0,0.0,0.0,0.0,0.0,0.0,-1.5639,-1.5289,-1.569,-1.6933,-1.7099,-1.7155,-1.7145,-1.6297,-1.6171,0.0,0.0,0.0,0.0,0.0,0.0,0.0,0.0,0.0,0.0,0.0,0.0,0.0,0.0,0.0,0.0,0.0,0.0,0.0,0.0,0.0,0.0,0.0,0.0,0.0,0.0,0.0,0.0,0.0,0.0,0.0,0.0,0.0,0.0,0.0,0.0,0.0,0.0,0.0,0.0,0.0,-2.0304,-2.0304,-2.0637,0.0,0.0,0.0,0.0,-2.0711,-2.0475,0.0,0.0,0.0,0.0,0.0,0.0,0.0,0.0,0.0,0.0,0.0,0.0,0.0,0.0,0.0,0.0,0.0,0.0,0.0,0.0,0.0,0.0,0.0,0.0,0.0,0.0,0.0,0.0,0.0,0.0,0.0,0.0,0.0,0.0,0.0,0.0,0.0,0.0,0.0,0.0,0.0,0.0,0.0,0.0,0.0,0.0,0.0,0.0,0.0,0.0,0.0,0.0,0.0,0.0,0.0,0.0,-1.5153,-1.4819,-1.5097,-1.5995,-1.6457,-1.6694,-1.6684,-1.6116,-1.6019,0.0,0.0,0.0,0.0,0.0,0.0,0.0,0.0,0.0,0.0,0.0,0.0,0.0,0.0,0.0,0.0,0.0,0.0,0.0,0.0,0.0,0.0,0.0,0.0,0.0,0.0,0.0,0.0,0.0,0.0,0.0,0.0,0.0,0.0,0.0,0.0,0.0,0.0,0.0,0.0,0.0,-2.0304,-2.0304,-2.0833,-2.1018,0.0,0.0,-2.1018,-2.0466,-2.0323,0.0,0.0,0.0,0.0,0.0,0.0,0.0,0.0,0.0,0.0,0.0,0.0,0.0,0.0,0.0,0.0,0.0,0.0,0.0,0.0,0.0,0.0,0.0,0.0,0.0,0.0,0.0,0.0,0.0,0.0,0.0,0.0,0.0,0.0,0.0,0.0,0.0,0.0,0.0,0.0,0.0,0.0,0.0,0.0,0.0,0.0,0.0,0.0,0.0,0.0,0.0,0.0,0.0,0.0,0.0,-1.4006,-1.505,-1.4556,-1.4899,-1.6206,-1.6477,-1.6696,-1.6948,-1.645,-1.6295,0.0,0.0,0.0,0.0,0.0,0.0,0.0,0.0,0.0,0.0,0.0,0.0,0.0,0.0,0.0,0.0,0.0,0.0,0.0,0.0,0.0,0.0,0.0,0.0,0.0,0.0,0.0,0.0,0.0,0.0,0.0,0.0,0.0,0.0,0.0,0.0,0.0,0.0,0.0,0.0,0.0,0.0,-2.0839,-2.092,0.0,0.0,0.0,-2.1214,-2.0885,0.0,0.0,0.0,0.0,0.0,0.0,0.0,0.0,0.0,0.0,0.0,0.0,0.0,0.0,0.0,0.0,0.0,0.0,0.0,0.0,0.0,0.0,0.0,0.0,0.0,0.0,0.0,0.0,0.0,0.0,0.0,0.0,0.0,0.0,0.0,0.0,0.0,0.0,0.0,0.0,0.0,0.0,0.0,0.0,0.0,0.0,0.0,0.0,0.0,0.0,0.0,0.0,0.0,0.0,0.0,0.0,0.0,-1.4903,-1.4302,-1.4657,-1.6076,-1.6232,-1.6492,-1.6974,-1.6472,0.0,0.0,0.0,0.0,0.0,0.0,0.0,0.0,0.0,0.0,0.0,0.0,0.0,0.0,0.0,0.0,0.0,0.0,0.0,0.0,0.0,0.0,0.0,0.0,0.0,0.0,0.0,-1.6532,0.0,0.0,0.0,0.0,0.0,0.0,0.0,0.0,0.0,0.0,0.0,0.0,0.0,0.0,-2.0775,-2.1088,-2.1175,-2.1431,0.0,0.0,-2.1769,-2.1599,-2.0998,-2.0551,0.0,0.0,0.0,0.0,0.0,0.0,0.0,0.0,0.0,0.0,0.0,0.0,0.0,0.0,0.0,0.0,0.0,0.0,0.0,0.0,0.0,0.0,0.0,0.0,0.0,0.0,0.0,0.0,0.0,0.0,0.0,0.0,0.0,0.0,0.0,0.0,0.0,0.0,0.0,0.0,0.0,0.0,0.0,0.0,0.0,0.0,0.0,0.0,0.0,0.0,0.0,0.0,0.0,0.0,0.0,-1.444,-1.408,-1.4366,-1.517,-1.5279,-1.5674,-1.6527,-1.5713,-1.5473,0.0,0.0,0.0,0.0,0.0,0.0,0.0,0.0,0.0,0.0,0.0,0.0,0.0,0.0,0.0,0.0,0.0,0.0,0.0,0.0,0.0,0.0,0.0,0.0,0.0,0.0,0.0,0.0,0.0,0.0,0.0,0.0,0.0,0.0,0.0,0.0,0.0,0.0,0.0,0.0,0.0,-2.0624,-2.0738,-2.1749,-2.2455,0.0,0.0,-2.2948,-2.2317,-2.1692,-2.1245,-2.1209,0.0,0.0,0.0,0.0,0.0,0.0,0.0,0.0,0.0,0.0,0.0,0.0,0.0,0.0,0.0,0.0,0.0,0.0,0.0,0.0,0.0,0.0,0.0,0.0,0.0,0.0,0.0,0.0,0.0,0.0,0.0,0.0,0.0,0.0,0.0,0.0,0.0,0.0,0.0,0.0,0.0,0.0,0.0,0.0,0.0,0.0,0.0,0.0,0.0,0.0,0.0,0.0,0.0,-1.4011,-1.4387,-1.4053,-1.4396,-1.5395,-1.5548,-1.5843,-1.6445,-1.6188,-1.594,0.0,0.0,0.0,0.0,0.0,0.0,0.0,0.0,0.0,0.0,0.0,0.0,0.0,0.0,0.0,0.0,0.0,0.0,0.0,0.0,0.0,0.0,0.0,0.0,0.0,0.0,0.0,0.0,-1.8623,-1.9271,-2.0212,0.0,0.0,0.0,0.0,0.0,0.0,0.0,0.0,0.0,0.0,-2.0811,-2.1734,-2.2102,0.0,0.0,-2.3394,-2.3209,-2.2948,-2.2332,-2.1901,-2.1938,-2.1399,0.0,0.0,0.0,0.0,0.0,0.0,0.0,0.0,0.0,0.0,0.0,0.0,0.0,0.0,0.0,0.0,0.0,0.0,0.0,0.0,0.0,0.0,0.0,0.0,0.0,0.0,0.0,0.0,0.0,0.0,0.0,0.0,0.0,0.0,0.0,0.0,0.0,0.0,0.0,0.0,0.0,0.0,0.0,0.0,0.0,0.0,0.0,0.0,0.0,0.0,0.0,0.0,-1.42,-1.464,-1.4374,-1.4708,-1.5661,-1.5729,-1.6027,-1.6526,-1.6243,-1.6078,0.0,0.0,0.0,0.0,0.0,0.0,0.0,0.0,0.0,0.0,0.0,0.0,0.0,0.0,0.0,0.0,0.0,0.0,0.0,0.0,0.0,0.0,0.0,0.0,0.0,0.0,0.0,0.0,-1.9162,-1.978,-2.0258,0.0,0.0,0.0,0.0,0.0,0.0,0.0,0.0,0.0,0.0,-2.1012,-2.2044,-2.2235,-2.273,-2.3933,-2.382,-2.3594,-2.3609,-2.3025,-2.2594,-2.2594,0.0,0.0,0.0,0.0,0.0,0.0,0.0,0.0,0.0,0.0,0.0,0.0,0.0,0.0,0.0,0.0,0.0,0.0,0.0,0.0,0.0,0.0,0.0,0.0,0.0,0.0,0.0,0.0,0.0,0.0,-1.2523,0.0,0.0,0.0,0.0,0.0,0.0,0.0,0.0,0.0,0.0,0.0,0.0,0.0,0.0,0.0,0.0,0.0,0.0,0.0,0.0,0.0,0.0,-1.465,-1.5174,-1.5062,-1.5258,-1.567,-1.568,-1.6113,-1.6873,-1.5759,-1.5568,-1.6457,0.0,0.0,0.0,0.0,0.0,0.0,0.0,0.0,0.0,0.0,0.0,0.0,0.0,0.0,0.0,0.0,0.0,0.0,0.0,0.0,0.0,0.0,0.0,0.0,0.0,0.0,-1.9148,-1.9873,-2.0273,0.0,0.0,0.0,0.0,0.0,0.0,0.0,0.0,0.0,0.0,-2.0413,-2.1111,-2.1316,-2.2216,-2.3039,-2.3551,-2.3979,-2.423,-2.4214,-2.3717,-2.3271,0.0,0.0,0.0,0.0,0.0,0.0,0.0,0.0,0.0,0.0,0.0,0.0,0.0,0.0,0.0,0.0,0.0,0.0,0.0,0.0,0.0,0.0,0.0,0.0,0.0,0.0,0.0,-1.252,-1.2276,0.0,0.0,0.0,0.0,0.0,0.0,0.0,0.0,0.0,0.0,0.0,-1.1526,-1.1575,0.0,0.0,0.0,0.0,0.0,0.0,0.0,0.0,0.0,0.0,0.0,0.0,-1.4453,-1.4712,-1.4541,-1.4836,-1.568,-1.5964,-1.6241,-1.6494,-1.6112,-1.5955,-1.6039,0.0,0.0,0.0,0.0,0.0,0.0,0.0,0.0,0.0,0.0,0.0,0.0,0.0,0.0,0.0,0.0,0.0,0.0,0.0,0.0,0.0,0.0,0.0,0.0,0.0,-1.8978,0.0,0.0,0.0,0.0,0.0,0.0,0.0,0.0,0.0,0.0,0.0,-1.9039,-1.9633,-2.0046,-2.059,-2.1407,-2.2016,-2.2632,0.0,0.0,0.0,0.0,0.0,0.0,0.0,0.0,0.0,0.0,0.0,0.0,0.0,0.0,-2.1972,-2.2296,-2.2451,-2.2653,-2.298,0.0,0.0,0.0,0.0,0.0,0.0,0.0,0.0,0.0,0.0,0.0,0.0,0.0,0.0,0.0,0.0,-1.1383,0.0,0.0,0.0,0.0,0.0,0.0,0.0,0.0,-1.1582,-1.1125,-1.0614,-1.0959,-1.095,0.0,-1.1709,-1.2064,0.0,0.0,0.0,0.0,0.0,0.0,0.0,0.0,-1.4146,-1.4587,-1.4435,-1.4772,-1.5628,-1.6378,-1.6587,-1.6303,-1.6652,-1.6571,-1.6038,-1.6661,-1.664,0.0,0.0,0.0,0.0,0.0,0.0,0.0,0.0,0.0,0.0,0.0,0.0,0.0,0.0,0.0,0.0,0.0,0.0,0.0,0.0,0.0,0.0,0.0,-1.9623,0.0,0.0,0.0,0.0,0.0,0.0,0.0,0.0,0.0,-1.9165,-1.8896,-1.8858,-1.9616,-2.0184,-2.0788,-2.1542,0.0,0.0,0.0,0.0,0.0,0.0,0.0,-2.3732,-2.3407,-2.3462,-2.3717,-2.411,-2.4011,-2.3911,-2.3911,0.0,0.0,-2.3022,-2.2961,-2.3173,-2.3416,-2.437,-2.483,-2.4109,-2.4963,-2.5691,0.0,0.0,0.0,0.0,0.0,0.0,0.0,0.0,-1.1439,-1.1326,0.0,-1.1246,0.0,0.0,0.0,0.0,0.0,0.0,0.0,0.0,-1.0267,-0.9812,-0.9367,-1.0398,-1.0533,-0.9922,-1.0951,-1.1283,-1.1025,-1.1963,0.0,0.0,0.0,0.0,0.0,0.0,-1.3906,-1.4692,-1.4655,-1.4959,-1.5517,-1.6786,-1.7063,-1.6302,-1.7262,-1.7386,-1.6608,-1.7058,-1.7181,-1.6953,-1.6894,0.0,0.0,0.0,0.0,0.0,0.0,0.0,0.0,0.0,0.0,0.0,0.0,0.0,0.0,0.0,0.0,0.0,0.0,0.0,0.0,-1.9331,0.0,0.0,0.0,0.0,0.0,0.0,0.0,0.0,0.0,0.0,-1.9015,-1.9171,-1.9264,-1.9315,0.0,0.0,0.0,0.0,-2.3794,-2.3831,-2.4262,-2.4393,-2.3869,-2.4017,-2.3904,-2.3078,0.0,0.0,-2.5481,-2.6236,-2.6595,-2.6673,-2.6548,-2.5862,-2.3295,-2.3206,-2.3446,-2.3584,-2.3729,-2.3813,-2.4378,-2.5169,-2.5805,-0.8488,0.0,0.0,0.0,0.0,-1.1209,-1.1092,-1.0666,-1.0983,-1.0974,-1.0751,-1.0743,0.0,0.0,0.0,0.0,0.0,0.0,-1.089,-0.9926,-1.0017,-0.9653,-0.9059,-0.9399,-0.9714,-1.0131,-1.0399,-1.0788,-1.124,-1.153,-1.2188,-1.3041,0.0,0.0,0.0,0.0,-1.3143,-1.3506,-1.3742,-1.4128,-1.4752,-1.6241,-1.7186,-1.7557,-1.7767,-1.7752,-1.7507,-1.7662,-1.7699,-1.7671,-1.7831,0.0,0.0,0.0,0.0,0.0,0.0,0.0,0.0,0.0,0.0,0.0,0.0,0.0,0.0,0.0,0.0,0.0,0.0,0.0,-2.0498,-2.0473,-2.0572,0.0,0.0,0.0,0.0,0.0,0.0,0.0,0.0,0.0,-1.9862,-1.9118,-1.8816,0.0,0.0,-2.0885,-2.1289,-2.196,-2.255,-2.2884,0.0,0.0,0.0,-2.3694,-2.3921,-2.3653,-2.4523,-2.5304,-2.55,-2.6195,-2.6601,-2.6334,-2.6585,-2.6569,-2.5895,-2.567,-2.5696,-2.5753,-2.5825,-2.5955,-2.6161,-2.6465,-2.6697,-0.6643,-0.7573,-0.8777,-0.9437,-0.9765,-1.0366,-1.0419,-1.0027,-1.0487,-1.071,-1.0849,-1.054,-1.0904,-1.1776,-1.2011,0.0,0.0,0.0,-1.0594,-0.9434,-0.9625,-0.9373,-0.8819,-0.9202,-0.9469,-0.9694,-1.0634,-1.1028,-1.1032,-1.1666,-1.2299,-1.2903,0.0,0.0,-1.3046,-1.2772,-1.2785,-1.3201,-1.3368,-1.3866,-1.4562,-1.5811,-1.7115,-1.8263,-1.8284,-1.8141,-1.7794,-1.8321,-1.8392,-1.7857,-1.8337,-1.8411,0.0,0.0,0.0,0.0,0.0,0.0,0.0,0.0,0.0,0.0,0.0,-1.7118,-1.7349,0.0,0.0,0.0,-1.9694,-2.0466,-2.0905,-2.07,0.0,0.0,0.0,0.0,0.0,0.0,0.0,-1.9729,-1.9408,-1.9462,-2.0361,-1.9715,-1.9396,-2.0033,-2.0667,-2.1194,-2.1505,0.0,-2.2634,-2.2916,-2.3083,-2.3318,-2.3607,-2.4135,-2.4584,-2.4793,-2.5662,-2.6411,-2.6589,-2.7352,-2.7839,-2.7695,-2.7854,-2.8107,-2.8107,-2.806,-2.7659,-2.7042,-2.7158,-2.7375,-2.7391,-2.786,-2.8316,-0.4654,-0.4705,-0.6801,-0.8113,-0.8739,-0.9109,-0.9475,-0.977,-0.9852,-1.0363,-1.1214,-1.0426,-1.0899,-1.2201,-1.2811,0.0,-1.0955,-1.0981,-1.0242,-0.8933,-0.9093,-0.8931,-0.8516,-0.9393,-0.9498,-0.8876,-1.1117,-1.164,-1.0749,-1.2107,-1.282,-1.2891,-1.2603,-1.2499,-1.2456,-1.247,-1.2774,-1.3419,-1.3477,-1.3957,-1.4933,-1.5751,-1.7021,-1.8674,-1.8892,-1.8533,-1.7779,-1.8983,-1.9115,-1.7879,-1.8719,-1.8955,-1.8367,0.0,0.0,0.0,0.0,0.0,0.0,0.0,0.0,0.0,0.0,0.0,0.0,0.0,0.0,0.0,-1.9793,0.0,-2.05,-2.0428,0.0,0.0,0.0,-2.0094,-1.9297,-1.9387,-1.9484,-1.9639,0.0,0.0,-2.061,0.0,-2.0767,-2.0803,-2.1525,-2.2089,-2.2163,-2.2896,-2.3595,-2.3646,-2.4027,-2.4308,-2.4366,-2.5,-2.5689,-2.6292,-2.7061,-2.7661,-2.8187,-2.9087,-2.9796,-2.9652,-2.9872,-2.9879,-2.9872,-2.9758,-2.9388,-2.767,-2.785,-2.8243,-2.8292,-2.9187,-3.0021,-0.3997,-0.4057,-0.5342,-0.6357,-0.7082,-0.7792,-0.8308,-0.8747,-0.9253,-0.9639,-1.0013,-0.9696,-0.9686,-1.0045,-1.0367,-1.0007,-0.9129,-0.9306,-0.8933,-0.8117,-0.8216,-0.8243,-0.8129,-0.8329,-0.8675,-0.9085,-0.9717,-1.0466,-1.1474,-1.1858,-1.2415,-1.3124,-1.3049,-1.3002,-1.305,-1.2826,-1.2798,-1.2941,-1.3406,-1.4488,-1.6149,-1.6409,-1.7379,-1.9076,-1.9019,-1.8873,-1.8667,-1.9374,-1.9575,-1.9158,-1.9932,-1.9918,-1.8867,-1.9271,0.0,0.0,0.0,0.0,0.0,0.0,0.0,0.0,0.0,-1.8825,-1.906,0.0,-2.0858,0.0,-1.9903,-2.0293,-2.1413,-2.1267,0.0,0.0,-2.1753,-2.1614,-2.1185,-2.0885,-2.0752,-2.0779,-2.0548,-2.0622,-2.1151,-2.1572,-2.1969,-2.2354,-2.1946,-2.1862,-2.2638,-2.2943,-2.3427,-2.409,-2.4343,-2.4583,-2.4996,-2.5659,-2.6617,-2.757,-2.8192,-2.8473,-2.8586,-2.9322,-2.9833,-2.9549,-2.9726,-2.9887,-2.9932,-2.9902,-2.9788,-2.9343,-2.9378,-2.947,-2.9485,-2.9971,-3.041,-0.327,-0.3437,-0.4856,-0.5687,-0.6266,-0.7491,-0.8161,-0.849,-0.8957,-0.9406,-0.9963,-0.9842,-0.979,-0.9795,-0.9916,-0.9511,-0.882,-0.8932,-0.8591,-0.7882,-0.8052,-0.8138,-0.8138,-0.8223,-0.8514,-0.8932,-0.9349,-0.9966,-1.0783,-1.1601,-1.2251,-1.283,-1.3159,-1.3453,-1.3648,-1.3233,-1.3013,-1.3146,-1.3601,-1.4573,-1.6041,-1.6131,-1.6944,-1.8647,-1.8689,-1.8811,-1.903,-1.981,-2.0156,-2.0026,-2.0595,-2.0614,-2.0061,-1.9801,-1.9394,0.0,0.0,0.0,0.0,0.0,0.0,0.0,0.0,0.0,0.0,0.0,-2.1613,-2.181,-2.1509,-2.1623,-2.2409,-2.2083,-2.1866,-2.1773,-2.1799,-2.1663,-2.1319,-2.1297,-2.1369,-2.1614,-2.1632,-2.1861,-2.239,-2.2714,-2.2991,-2.3292,-2.2823,-2.2666,-2.3183,-2.3328,-2.3567,-2.4108,-2.4406,-2.4999,-2.6112,-2.6956,-2.7742,-2.8609,-2.9143,-2.9377,-2.9348,-2.9811,-3.0137,-2.9925,-3.0024,-3.0193,-3.0208,-3.0193,-3.0193,-3.0208,-3.0208,-3.0193,-3.0205,-3.0455,-3.0698,-0.2369,-0.2623,-0.4561,-0.5401,-0.5733,-0.7401,-0.8304,-0.8617,-0.8786,-0.9274,-1.0156,-1.0187,-1.0187,-1.0156,-1.0187,-0.9799,-0.9156,-0.9156,-0.8743,-0.8093,-0.8251,-0.8325,-0.8333,-0.8491,-0.8572,-0.8656,-0.934,-0.9684,-0.9597,-1.1355,-1.2195,-1.2195,-1.3029,-1.3579,-1.3711,-1.3248,-1.3118,-1.353,-1.3871,-1.4496,-1.5394,-1.5394,-1.6288,-1.7917,-1.823,-1.8637,-1.9096,-2.0131,-2.0637,-2.0546,-2.0996,-2.1273,-2.1331,-2.0153,-1.9539,0.0,-1.9526,0.0,0.0,0.0,0.0,0.0,0.0,0.0,0.0,-2.0872,-2.2044,-2.3531,-2.3234,-2.307,-2.3149,-2.2764,-2.2244,-2.1599,-2.1497,-2.1362,-2.11,-2.1416,-2.1885,-2.2342,-2.2799,-2.3256,-2.364,-2.3809,-2.3857,-2.3869,-2.3917,-2.3941,-2.3965,-2.3984,-2.396,-2.4008,-2.4472,-2.5521,-2.7059,-2.7951,-2.8532,-2.9331,-2.986,-3.0192,-3.0264,-3.0585,-3.0889,-3.0875,-3.0889,-3.0875,-3.0829,-3.0889,-3.0889,-3.0889,-3.0889,-3.0822,-3.0552,-3.0745,-3.0982,-0.1063,-0.2039,-0.3187,-0.3804,-0.4238,-0.6256,-0.7584,-0.8404,-0.8404,-0.8489,-0.8662,-0.8905,-0.8803,-0.875,-0.8905,-0.8888,-0.8719,-0.8719,-0.8632,-0.8467,-0.8499,-0.8515,-0.8519,-0.8552,-0.8572,-0.8568,-0.8744,-0.9152,-0.9798,-1.0919,-1.1514,-1.1519,-1.2372,-1.2565,-1.1837,0.0,0.0,0.0,-1.3711,-1.4496,-1.5394,-1.556,-1.6453,-1.8141,-1.8487,0.0,-1.975,-2.043,-2.0803,-2.072,-2.1816,0.0,0.0,0.0,0.0,0.0,0.0,0.0,0.0,0.0,0.0,0.0,-2.2172,-2.2034,-2.1611,-2.1997,-2.239,-2.2721,-2.2351,-2.2257,-2.2639,-2.2647,-2.2731,-2.3071,-2.3133,-2.3182,-2.3152,-2.3256,-2.3376,-2.346,-2.3556,-2.3664,-2.373,-2.4121,-2.4374,-2.433,-2.4747,-2.4999,-2.4987,-2.4776,-2.4759,-2.5204,-2.5485,-2.607,-2.7115,-2.7471,-2.8093,-2.9075,-2.997,-3.0552,-3.0946,-3.1618,-3.2057,-3.2092,-3.2135,-3.2121,-3.2121,-3.215,-3.2063,-3.2135,-3.2121,-3.182,-3.0837,-3.0938,-3.1392,-0.0359,0.0,-0.2597,-0.331,0.0,-0.5536,-0.6828,-0.7726,-0.8249,-0.8426,-0.8434,-0.8528,-0.8515,-0.8434,-0.8528,-0.8572,-0.8572,-0.8572,-0.8572,-0.8572,-0.8572,-0.8572,-0.8572,-0.8572,-0.8572,-0.8572,-0.8572,-0.8823,-0.9257,-1.0202,-1.0636,-1.0636,-1.1585,-1.1757,-1.1322,-1.1752,-1.218,-1.2705,-1.3652,-1.4328,-1.4748,-1.4972,-1.5804,-1.721,0.0,0.0,0.0,0.0,0.0,0.0,0.0,0.0,0.0,0.0,0.0,-2.2092,-2.2201,-2.2329,-2.2362,-2.2522,-2.2623,-2.2636,-2.3121,-2.308,-2.2365,-2.2522,-2.2904,-2.3321,-2.3456,-2.3526,-2.355,-2.354,-2.3567,-2.368,-2.3689,-2.3745,-2.3803,-2.4001,-2.3998,-2.3682,-2.3802,-2.3804,-2.3455,-2.358,-2.3883,-2.4261,-2.4531,-2.4874,-2.5217,-2.5153,-2.5329,-2.5981,-2.6233,-2.6744,-2.7868,-2.8127,-2.8454,-2.951,-3.005,-3.0588,-3.1198,-3.1599,-3.2033,-3.237,-3.2513,-3.2513,-3.2513,-3.2513,-3.2513,-3.2513,-3.2513,-3.2367,-3.1627,-3.1462,-3.1426,0.0179,-0.1076,-0.2149,-0.2952,-0.3671,-0.4917,-0.5985,-0.6962,0.0,0.0,0.0,-0.8572,-0.8572,-0.8572,-0.8572,-0.8572,-0.8572,-0.8572,-0.8572,-0.8572,-0.8572,-0.8572,-0.8572,-0.8572,-0.8572,-0.8572,-0.8572,-0.8572,-0.8656,-0.9428,-0.9791,-0.9823,-1.0696,-1.106,-1.1009,-1.1799,-1.2406,-1.2579,-1.3664,-1.4188,-1.4249,-1.4562,-1.52,-1.6316,-1.776,-1.888,-1.9596,-2.0761,-2.1481,-2.1794,-2.1429,-2.1871,-2.3146,-2.2514,-2.2387,-2.3035,-2.3056,-2.2812,-2.2525,-2.2812,-2.2985,-2.2985,-2.3766,-2.3826,-2.2964,-2.3103,-2.343,-2.4179,-2.4646,-2.482,-2.4542,-2.4489,-2.4394,-2.4092,-2.4049,-2.4049,-2.4073,-2.4398,-2.4443,-2.3863,-2.3987,-2.3963,-2.3576,-2.3368,-2.3475,-2.4131,-2.4357,-2.4472,-2.5182,-2.554,-2.5863,-2.6505,-2.6844,-2.7426,-2.8485,-2.8789,-2.9235,-2.9737,-3.0057,-3.0431,-3.0993,-3.1374,-3.1724,-3.2331,-3.2442,-3.2419,-3.2471,-3.2382,-3.2507,-3.2587,-3.2652,-3.2717,-3.2738,-3.2425,-3.2057,0.0985,-0.0538,-0.1345,-0.1793,-0.2241,-0.3851,-0.501,-0.5985,-0.7856,-0.8572,-0.8572,-0.8572,-0.8572,-0.8572,-0.8572,-0.8572,-0.8572,-0.8572,-0.8572,0.0,-0.8572,-0.8572,-0.8572,-0.8572,-0.8572,-0.8572,-0.8572,-0.8572,-0.8656,-0.9524,-0.9596,-0.9123,-0.9938,-1.0025,-0.9556,-1.0297,-1.1202,-1.2095,-1.3686,-1.4583,-1.483,-1.5321,-1.5941,-1.69,-1.8235,-1.9443,-2.0243,-2.1272,-2.185,-2.1843,-2.2058,-2.2384,-2.2859,-2.3063,-2.3339,-2.3634,-2.3646,-2.361,-2.3556,-2.3598,-2.3663,-2.3675,-2.3802,-2.3961,-2.4213,-2.4263,-2.4144,-2.3904,-2.4037,-2.4153,-2.4406,-2.4546,-2.4647,-2.4987,-2.5071,-2.5083,-2.5035,-2.5107,-2.5085,-2.4874,-2.4446,-2.4348,-2.442,-2.4143,-2.402,-2.4801,-2.4669,-2.4849,-2.5385,-2.6139,-2.6542,-2.6845,-2.7447,-2.7949,-2.8417,-2.8268,-2.8642,-2.8961,-2.9736,-3.0303,-3.0877,-3.1451,-3.1894,-3.2146,-3.2205,-3.2176,-3.2189,-3.2187,-3.2444,-3.2834,-3.2944,-3.3206,-3.3696,-3.3743,-3.3622,0.1702,0.0448,0.009,-0.0538,-0.1523,-0.3492,-0.4565,-0.5097,-0.6432,-0.7051,-0.7054,-0.7054,-0.7319,-0.7764,-0.7768,-0.812,-0.8572,-0.8572,-0.83,-0.7771,-0.7845,-0.7617,-0.7082,-0.7063,-0.7099,-0.7191,-0.7745,-0.8026,-0.8113,-0.9026,-0.9249,-0.8966,-0.9426,-0.9473,-0.9185,-1.0204,-1.1261,-1.2385,-1.3525,-1.4448,-1.5122,-1.5646,-1.6188,-1.672,-1.8029,-1.9104,-1.9964,-2.0918,-2.1597,-2.1885,-2.2006,-2.2351,-2.2913,-2.3612,-2.4226,-2.4763,-2.5183,-2.5492,-2.5492,-2.5492,-2.5492,-2.548,-2.548,-2.5265,-2.4731,-2.4607,-2.456,-2.4578,-2.4602,-2.4687,-2.4927,-2.4939,-2.5047,-2.5276,-2.5312,-2.5312,-2.5312,-2.5312,-2.4933,-2.4204,-2.3768,-2.3316,-2.2787,-2.2648,-2.2809,-2.361,-2.4061,-2.4559,-2.4785,-2.5553,-2.6541,-2.7412,-2.8101,-2.8562,-2.8938,-2.9026,-2.9139,-2.9377,-2.9694,-3.0211,-3.0719,-3.1267,-3.1563,-3.2015,-3.2087,-3.2087,-3.2087,-3.2434,-3.2648,-3.2506,-3.3003,-3.3227,-3.3241,-3.3171,-3.3352,0.2354,0.1364,0.1092,0.0091,-0.1361,-0.2995,-0.3814,-0.4085,-0.4809,-0.5077,-0.5165,-0.5479,-0.6091,-0.6742,-0.6831,-0.7207,-0.7957,-0.7964,-0.7599,-0.6889,-0.6894,-0.6477,-0.5844,-0.5839,-0.5881,-0.5976,-0.6729,-0.7295,-0.758,-0.8337,-0.8929,-0.9157,-0.9288,-0.9313,-0.9313,-1.0242,-1.1442,-1.2525,-1.32,-1.4025,-1.5234,-1.5725,-1.6047,-1.6338,-1.7742,-1.8752,-1.9385,-2.0615,-2.1453,-2.1842,-2.1997,-2.2426,-2.3135,-2.3758,-2.4489,-2.5194,-2.5912,-2.6306,-2.6294,-2.6458,-2.6621,-2.6621,-2.6621,-2.6193,-2.5211,-2.4641,-2.4507,-2.4767,-2.4826,-2.4981,-2.4981,-2.5217,-2.5312,-2.5312,-2.5312,-2.5312,-2.5324,-2.5254,-2.4884,-2.3779,-2.3284,-2.27,-2.1984,-2.162,-2.203,-2.2822,-2.3551,-2.4023,-2.4261,-2.5016,-2.6222,-2.7525,-2.8338,-2.8781,-2.9471,-2.9664,-2.9741,-2.9779,-2.9767,-3.0037,-3.0482,-3.062,-3.0833,-3.1368,-3.1502,-3.1429,-3.1576,-3.1928,-3.206,-3.1856,-3.2205,-3.2492,-3.229,-3.2232,-3.2448,0.2608,0.208,0.0946,-0.0379,-0.1702,-0.1986,-0.2553,-0.3216,-0.3315,-0.3317,-0.3579,-0.5001,-0.5782,-0.5863,-0.5962,-0.6018,-0.6211,-0.6128,-0.6123,-0.6029,-0.6045,-0.5959,-0.5769,-0.5881,-0.5881,-0.5887,-0.5986,-0.6564,-0.7416,-0.7695,-0.8222,-0.9236,-0.9689,-0.9857,-0.996,-1.0249,-1.0942,-1.2042,-1.2297,-1.3335,-1.4975,-1.538,-1.5494,-1.5494,-1.7654,-1.878,-1.8907,-2.0639,-2.1621,-2.1743,-2.2208,-2.278,-2.3483,-2.3391,-2.3556,-2.4274,-2.45,-2.4478,-2.4568,-2.5271,-2.5727,-2.5693,-2.5804,-2.5704,-2.5447,-2.4715,-2.3897,-2.353,-2.3863,-2.4345,-2.4264,-2.4921,-2.542,-2.5456,-2.542,-2.5312,-2.5278,-2.5058,-2.5117,-2.5791,-2.4007,-2.3568,-2.4102,-2.3499,-2.3012,-2.334,-2.3608,-2.3971,-2.4419,-2.484,-2.55,-2.6699,-2.7716,-2.8445,-2.8712,-2.9365,-2.9702,-2.9779,-2.9779,-2.9856,-2.9998,-2.9998,-2.9998,-3.0355,-3.0228,-3.0216,-3.0216,-3.0152,-3.0495,-3.0983,-3.1193,-3.1328,-3.1856,-3.1942,-3.2087,0.1983,0.1428,0.0476,-0.0666,-0.1904,-0.2381,-0.2762,-0.3146,-0.3146,-0.3146,-0.3139,-0.3833,-0.4473,-0.4969,-0.5064,-0.5368,-0.5879,-0.5881,-0.5598,-0.5133,-0.509,-0.4831,-0.4261,-0.4309,-0.433,-0.4332,-0.4916,-0.5794,-0.6863,-0.8136,-0.9053,-0.9514,-0.9887,-1.0019,-1.0019,-1.0413,-1.1189,-1.216,-1.1863,-1.2344,-1.3698,-1.4943,-1.5609,-1.5805,-1.7124,-1.8241,-1.8796,-1.9613,-2.0512,-2.1596,-2.1891,-2.2418,-2.3302,-2.3706,-2.4023,-2.4345,-2.4913,-2.5158,-2.5147,-2.5495,-2.5739,-2.5739,-2.5739,-2.5385,-2.4616,-2.4179,-2.3499,-2.2797,-2.3963,-2.4952,-2.5027,-2.5722,-2.6262,-2.6274,-2.6274,-2.6029,-2.5522,-2.5385,-2.5119,-2.4437,-2.3658,-2.3093,-2.3356,-2.3156,-2.317,-2.3458,-2.3644,-2.3886,-2.4231,-2.4423,-2.4765,-2.5263,-2.6163,-2.7302,-2.8211,-2.9197,-2.9702,-2.9779,-2.9779,-2.9779,-2.9779,-2.9779,-2.9779,-2.9792,-2.9867,-2.9854,-2.9856,-3.0203,-3.0482,-3.0609,-3.0305,-3.0355,-3.0659,-3.0735,-3.0722,0.1251,0.0676,-0.0097,-0.0967,-0.2031,-0.2614,-0.2905,-0.3098,-0.31,-0.3098,-0.31,-0.3098,-0.3483,-0.4057,-0.4133,-0.4514,-0.5111,-0.5115,-0.4827,-0.4162,-0.4217,-0.3851,-0.317,-0.3207,-0.323,-0.3331,-0.4029,-0.5029,-0.6423,-0.8226,-0.9327,-0.9624,-0.992,-1.0019,-1.0122,-1.0605,-1.1189,-1.1863,-1.1482,-1.158,-1.2441,-1.407,-1.5127,-1.5514,-1.6662,-1.7606,-1.8334,-1.8703,-1.9613,-2.1159,-2.1507,-2.2148,-2.3038,-2.3724,-2.4155,-2.4155,-2.4734,-2.5073,-2.5073,-2.5326,-2.54,-2.5411,-2.5411,-2.5019,-2.4158,-2.375,-2.3197,-2.2611,-2.4087,-2.5147,-2.4982,-2.5681,-2.6218,-2.6458,-2.6382,-2.5989,-2.5647,-2.5373,-2.4686,-2.3735,-2.3494,-2.3041,-2.2601,-2.2934,-2.3328,-2.3577,-2.3734,-2.3841,-2.3927,-2.411,-2.4282,-2.4282,-2.5179,-2.6235,-2.7557,-2.8383,-2.8961,-2.9456,-2.9365,-2.9456,-2.9739,-2.9867,-3.0018,-3.0181,-3.0156,-3.0256,-3.0432,-3.0764,-3.0907,-3.0441,-3.0218,-3.0297,-3.0593,-3.0335,-3.0335,0.0693,-0.0,-0.0603,-0.1304,-0.2011,-0.2109,-0.2514,-0.321,-0.3217,-0.3219,-0.3214,-0.3215,-0.3219,-0.3311,-0.3255,-0.3265,-0.3313,-0.3412,-0.341,-0.3311,-0.332,-0.3225,-0.3228,-0.323,-0.323,-0.323,-0.3331,-0.4429,-0.6323,-0.7524,-0.8619,-0.9529,-0.9821,-1.0117,-1.0314,-1.0609,-1.0998,-1.1194,-1.1198,-1.1296,-1.1394,-1.236,-1.3516,-1.4598,-1.6278,-1.7318,-1.7512,-1.8326,-1.9239,-2.024,-2.115,-2.205,-2.296,-2.3135,-2.3222,-2.3222,-2.3222,-2.3309,-2.3396,-2.4079,-2.4584,-2.4584,-2.4573,-2.4488,-2.4255,-2.3644,-2.3104,-2.3057,-2.3896,-2.42,-2.3625,-2.4346,-2.5004,-2.5629,-2.4948,-2.4948,-2.5506,-2.4649,-2.4331,-2.4416,-2.3937,-2.3523,-2.3624,-2.3704,-2.378,-2.3831,-2.3841,-2.3937,-2.411,-2.4196,-2.4282,-2.454,-2.5115,-2.583,-2.6008,-2.7183,-2.7893,-2.8447,-2.8943,-2.9004,-2.9588,-3.0156,-3.0407,-3.0645,-3.0871,-3.106,-3.1248,-3.1342,-3.1309,-3.111,-3.106,-3.1085,-3.0909,-3.1185,-3.1135,-0.0601,-0.2017,-0.222,-0.2522,-0.2725,-0.2826,-0.2927,-0.323,-0.323,-0.323,-0.323,-0.323,-0.323,-0.3228,-0.3209,-0.321,-0.323,-0.323,-0.323,-0.323,-0.323,-0.323,-0.323,-0.323,-0.323,-0.323,-0.323,-0.3932,-0.5429,-0.7126,-0.8223,-0.8623,-0.9521,-1.0019,-1.0216,-1.0605,-1.09,-1.09,-1.1096,-1.126,-1.1487,-1.2381,-1.3523,-1.4757,-1.58,-1.6662,-1.7333,-1.7699,-1.8334,-1.9239,-2.0232,-2.115,-2.2148,-2.2775,-2.3144,-2.3144,-2.3144,-2.3144,-2.3135,-2.3396,-2.3647,-2.356,-2.356,-2.3647,-2.357,-2.3309,-2.3144,-2.3135,-2.3299,-2.3371,-2.3468,-2.4325,-2.5317,-2.5562,-2.5387,-2.5027,-2.4938,-2.4577,-2.4335,-2.4111,-2.375,-2.3744,-2.3841,-2.3937,-2.4024,-2.411,-2.4186,-2.4282,-2.4378,-2.4378,-2.4485,-2.4516,-2.4951,-2.5398,-2.5398,-2.6734,-2.775,-2.8174,-2.868,-2.9318,-2.9967,-3.0562,-3.0935,-3.0879,-3.1248,-3.1467,-3.153,-3.1612,-3.1599,-3.1562,-3.1549,-3.1637,-3.1373,-3.1612,-3.1549,-0.1613,-0.3029,-0.323,-0.323,-0.323,-0.323,-0.323,-0.323,-0.323,-0.323,-0.323,-0.323,-0.323,-0.323,-0.323,-0.323,-0.323,-0.323,-0.323,-0.323,-0.323,-0.323,-0.323,-0.323,-0.323,-0.323,-0.323,-0.3731,-0.4834,-0.6229,-0.7126,-0.7521,-0.8722,-0.9418,-0.9719,-1.0371,-1.0803,-1.1005,-1.126,-1.1477,-1.1701,-1.2208,-1.3175,-1.4387,-1.5208,-1.6278,-1.7545,-1.764,-1.8048,-1.8978,-1.987,-2.0914,-2.2069,-2.2775,-2.3144,-2.3144,-2.3144,-2.3144,-2.3144,-2.3144,-2.3135,-2.3144,-2.3144,-2.3144,-2.3144,-2.3144,-2.3144,-2.3144,-2.3144,-2.3144,-2.3299,-2.4221,-2.5073,-2.5242,-2.5062,-2.4904,-2.4659,-2.4488,-2.4155,-2.3907,-2.3917,-2.3937,-2.4013,-2.4196,-2.4292,-2.4292,-2.4464,-2.4464,-2.455,-2.4695,-2.4681,-2.4799,-2.5161,-2.5477,-2.5591,-2.6517,-2.7311,-2.7809,-2.8503,-2.9303,-2.994,-3.0662,-3.1236,-3.1261,-3.1419,-3.1614,-3.1747,-3.1913,-3.1901,-3.1888,-3.2077,-3.2265,-3.2102,-3.2014,-3.2026,-0.2422,-0.313,-0.323,-0.323,-0.323,-0.323,-0.323,-0.323,-0.323,-0.323,-0.323,-0.323,-0.323,-0.323,-0.323,-0.323,-0.323,-0.323,-0.323,-0.323,-0.323,-0.323,-0.323,-0.323,-0.323,-0.323,-0.323,-0.3732,-0.4634,-0.5033,-0.5529,-0.6423,-0.7537,-0.845,-0.8817,-0.9996,-1.0914,-1.1346,-1.1573,-1.1784,-1.1817,-1.1921,-1.2452,-1.3497,-1.4581,-1.6085,-1.8101,-1.8262,-1.8476,-1.917,-2.0058,-2.1452,-2.2625,-2.2979,-2.3047,-2.3047,-2.3144,-2.3144,-2.3144,-2.3144,-2.3144,-2.3144,-2.3144,-2.3144,-2.3144,-2.3144,-2.3144,-2.3144,-2.3144,-2.3144,-2.3144,-2.3309,-2.3647,-2.4241,-2.3897,-2.382,-2.4327,-2.4003,-2.3677,-2.4034,-2.4196,-2.4282,-2.4454,-2.4464,-2.4464,-2.4464,-2.4516,-2.4643,-2.4705,-2.4985,-2.5213,-2.5306,-2.5585,-2.5875,-2.6051,-2.6298,-2.6737,-2.7301,-2.8152,-2.8964,-2.9311,-2.9914,-3.0881,-3.1125,-3.1822,-3.2091,-3.2456,-3.2554,-3.2641,-3.2679,-3.283,-3.2792,-3.2679,-3.2591,-3.2729,-0.2118,-0.2422,-0.3029,-0.323,-0.323,-0.323,-0.323,-0.323,-0.323,-0.323,-0.323,-0.323,-0.323,-0.323,-0.323,-0.323,-0.323,-0.323,-0.323,-0.323,-0.323,-0.323,-0.323,-0.323,-0.323,-0.323,-0.323,-0.3331,-0.3734,-0.4435,-0.5033,-0.5543,-0.6917,-0.7968,-0.8787,-0.9768,-1.0595,-1.1321,-1.1676,-1.1883,-1.202,-1.2039,-1.2625,-1.3821,-1.4367,-1.5521,-1.7702,-1.8139,-1.8361,-1.8634,-1.9581,-2.084,-2.2071,-2.2307,-2.2422,-2.3047,-2.3144,-2.3144,-2.3144,-2.3144,-2.3144,-2.3144,-2.3144,-2.3144,-2.3144,-2.3144,-2.3144,-2.3144,-2.3144,-2.3144,-2.3144,-2.3144,-2.3309,-2.356,-2.3309,-2.3319,-2.3917,-2.4013,-2.412,-2.4378,-2.4368,-2.4454,-2.4454,-2.455,-2.4592,-2.4623,-2.4819,-2.5006,-2.5078,-2.5399,-2.5658,-2.5709,-2.6061,-2.6351,-2.6475,-2.663,-2.6951,-2.7419,-2.8094,-2.8489,-2.8802,-2.9507,-3.0402,-3.1249,-3.1979,-3.2513,-3.2982,-3.3081,-3.3081,-3.3081,-3.2993,-3.2993,-3.3056,-3.3081,-3.3081,-0.1513,-0.2017,-0.2522,-0.2927,-0.323,-0.323,-0.323,-0.323,-0.323,-0.323,-0.323,-0.323,-0.323,-0.323,-0.323,-0.323,-0.323,-0.323,-0.323,-0.323,-0.323,-0.323,-0.323,-0.323,-0.323,-0.323,-0.323,-0.3243,-0.3263,-0.4376,-0.5101,-0.5451,-0.715,-0.8426,-0.9168,-1.0152,-1.0993,-1.1631,-1.1911,-1.2115,-1.2219,-1.2252,-1.2632,-1.3501,-1.3954,-1.4917,-1.6274,-1.7414,-1.8196,-1.8581,-1.9352,-2.0399,-2.1666,-2.188,-2.2193,-2.2621,-2.2959,-2.3144,-2.3144,-2.3144,-2.3144,-2.3144,-2.3144,-2.3144,-2.3144,-2.3144,-2.3144,-2.3144,-2.3144,-2.3144,-2.3135,-2.3232,-2.3232,-2.3222,-2.3319,-2.3406,-2.3764,-2.411,-2.4292,-2.4454,-2.4464,-2.455,-2.455,-2.4736,-2.4788,-2.4763,-2.5181,-2.5471,-2.5564,-2.5844,-2.602,-2.6227,-2.6548,-2.6744,-2.6837,-2.7013,-2.721,-2.7631,-2.8118,-2.8147,-2.825,-2.9421,-3.0427,-3.1404,-3.2251,-3.2698,-3.3081,-3.3081,-3.3081,-3.3081,-3.3081,-3.3081,-3.3081,-3.3081,-3.3081,-0.0504,-0.1917,-0.2017,-0.2522,-0.313,-0.323,-0.323,-0.323,-0.323,-0.323,-0.323,-0.323,-0.323,-0.323,-0.323,-0.323,-0.3232,-0.3243,-0.3245,-0.3247,-0.3251,-0.3256,-0.3349,-0.3348,-0.3455,-0.3459,-0.3458,-0.3481,-0.3943,-0.4969,-0.5629,-0.6115,-0.8023,-0.9518,-0.9867,-1.0979,-1.1727,-1.207,-1.2318,-1.2403,-1.2417,-1.2422,-1.2427,-1.255,-1.3408,-1.4164,-1.4685,-1.6554,-1.8033,-1.8811,-1.9414,-2.0103,-2.1058,-2.171,-2.1868,-2.2227,-2.2777,-2.3076,-2.3096,-2.3154,-2.3144,-2.3144,-2.3144,-2.3144,-2.3144,-2.3232,-2.3222,-2.3232,-2.3222,-2.3232,-2.3222,-2.3319,-2.3493,-2.3493,-2.358,-2.3764,-2.412,-2.4368,-2.4454,-2.4464,-2.4464,-2.4602,-2.4674,-2.5006,-2.5213,-2.5337,-2.5637,-2.5875,-2.602,-2.6258,-2.6537,-2.6765,-2.6962,-2.7013,-2.7065,-2.7096,-2.7272,-2.7441,-2.7809,-2.7809,-2.8081,-2.9268,-3.0531,-3.1448,-3.2363,-3.2896,-3.3081,-3.3081,-3.3081,-3.3081,-3.3081,-3.3081,-3.3081,-3.3081,-3.3081,-0.0202,-0.1109,-0.1714,-0.2422,-0.313,-0.323,-0.323,-0.323,-0.323,-0.323,-0.3232,-0.323,-0.3234,-0.3232,-0.3233,-0.323,-0.3247,-0.3278,-0.3297,-0.3305,-0.3346,-0.3542,-0.3819,-0.3914,-0.4147,-0.4603,-0.4603,-0.5047,-0.5586,-0.6105,-0.665,-0.7203,-0.8468,-0.9473,-1.004,-1.0949,-1.1593,-1.2252,-1.2398,-1.2436,-1.2436,-1.2436,-1.2436,-1.2441,-1.2762,-1.3413,-1.4277,-1.6405,-1.8087,-1.9037,-1.9036,-1.9545,-2.0392,-2.0572,-2.113,-2.2209,-2.2474,-2.2787,-2.3376,-2.3261,-2.3086,-2.3135,-2.3378,-2.3416,-2.3416,-2.3503,-2.358,-2.358,-2.357,-2.361,-2.36,-2.3707,-2.3871,-2.3937,-2.4105,-2.4095,-2.4237,-2.4368,-2.455,-2.4571,-2.4861,-2.5016,-2.514,-2.5409,-2.5699,-2.5782,-2.6072,-2.6392,-2.6475,-2.6682,-2.6972,-2.7055,-2.7189,-2.722,-2.7251,-2.7251,-2.7357,-2.7357,-2.7441,-2.7536,-2.8081,-2.9165,-3.0351,-3.1436,-3.2438,-3.3081,-3.3081,-3.3081,-3.3081,-3.3081,-3.3081,-3.3081,-3.3081,-3.3081,-3.3081,-0.0303,-0.1311,-0.1816,-0.2422,-0.313,-0.323,-0.323,-0.323,-0.323,-0.323,-0.3236,-0.326,-0.327,-0.3271,-0.3296,-0.3307,-0.3313,-0.3343,-0.3463,-0.3782,-0.4026,-0.423,-0.4308,-0.4405,-0.4849,-0.51,-0.5216,-0.5656,-0.6531,-0.7174,-0.7949,-0.8873,-0.9812,-1.0509,-1.1065,-1.1381,-1.1896,-1.2327,-1.2436,-1.2436,-1.2436,-1.2436,-1.2436,-1.2436,-1.2436,-1.3083,-1.4905,-1.6617,-1.8115,-1.9027,-1.9096,-1.9294,-1.9758,-1.9959,-2.0549,-2.1681,-2.1819,-2.2464,-2.3265,-2.3338,-2.3512,-2.3821,-2.4008,-2.3957,-2.3957,-2.4035,-2.4122,-2.4132,-2.4273,-2.4384,-2.4404,-2.4492,-2.4669,-2.4886,-2.4923,-2.4851,-2.4687,-2.4939,-2.5088,-2.5171,-2.5326,-2.5502,-2.5513,-2.5896,-2.6103,-2.6258,-2.6568,-2.6765,-2.69,-2.7148,-2.7272,-2.7272,-2.7272,-2.7272,-2.7272,-2.7272,-2.7272,-2.7357,-2.7536,-2.7536,-2.8351,-2.9349,-3.0711,-3.1801,-3.2624,-3.3081,-3.3081,-3.3081,-3.3081,-3.3081,-3.3081,-3.3081,-3.3081,-3.3081,-3.3081,-0.0505,-0.2017,-0.2017,-0.2522,-0.3131,-0.3237,-0.3247,-0.3243,-0.3258,-0.326,-0.327,-0.3309,-0.333,-0.3334,-0.3477,-0.3512,-0.3512,-0.3731,-0.3961,-0.4502,-0.4943,-0.5044,-0.4834,-0.513,-0.5461,-0.5585,-0.5459,-0.6258,-0.7393,-0.8491,-0.9533,-1.0373,-1.1633,-1.2205,-1.2186,-1.2323,-1.2327,-1.2327,-1.2436,-1.2436,-1.2436,-1.2436,-1.2436,-1.2441,-1.2762,-1.3938,-1.5648,-1.7147,-1.8115,-1.9272,-1.9272,-1.9346,-1.9413,-1.9859,-2.024,-2.0444,-2.1168,-2.1908,-2.2848,-2.3252,-2.3875,-2.4451,-2.4376,-2.4585,-2.4486,-2.4486,-2.4476,-2.4753,-2.5038,-2.5199,-2.5229,-2.5391,-2.5511,-2.565,-2.5823,-2.574,-2.5554,-2.5689,-2.5885,-2.5906,-2.5896,-2.5947,-2.6061,-2.632,-2.6641,-2.6651,-2.692,-2.7024,-2.7096,-2.72,-2.7272,-2.7272,-2.7272,-2.7272,-2.7272,-2.7272,-2.7272,-2.7357,-2.7726,-2.7998,-2.891,-2.9988,-3.1258,-3.2264,-3.2351,-3.2711,-3.3081,-3.3081,-3.3081,-3.3081,-3.3081,-3.3081,-3.3081,-3.3081,-3.3081,-0.0505,-0.2017,-0.2017,-0.2422,-0.3137,-0.3281,-0.3303,-0.3305,-0.3352,-0.3362,-0.3375,-0.3387,-0.3392,-0.3392,-0.3943,-0.4154,-0.4174,-0.4538,-0.5025,-0.5202,-0.5755,-0.5976,-0.5845,-0.6009,-0.6342,-0.671,-0.7509,-0.8182,-0.9187,-0.9945,-1.1071,-1.1873,-1.2105,-1.2436,-1.2436,-1.2436,-1.2436,-1.2436,-1.2436,-1.2436,-1.2436,-1.2441,-1.2441,-1.255,-1.3305,-1.5018,-1.6723,-1.7477,-1.8108,-1.8952,-1.9272,-1.9272,-1.9354,-1.9398,-1.9838,-2.0366,-2.054,-2.1032,-2.2056,-2.284,-2.3383,-2.372,-2.4108,-2.4461,-2.5229,-2.4744,-2.4826,-2.538,-2.5743,-2.5797,-2.5817,-2.5836,-2.5888,-2.6051,-2.6237,-2.6382,-2.6258,-2.6051,-2.5989,-2.6009,-2.6227,-2.6423,-2.6444,-2.6786,-2.7013,-2.7096,-2.7158,-2.7251,-2.7272,-2.7272,-2.7272,-2.7272,-2.7272,-2.7272,-2.7272,-2.7272,-2.7272,-2.7367,-2.7631,-2.7904,-2.8817,-2.9635,-3.0633,-3.127,-3.1801,-3.2264,-3.2995,-3.3081,-3.3081,-3.3081,-3.3081,-3.3081,-3.3081,-3.3081,-3.3081,-0.111,-0.2524,-0.2546,-0.2863,-0.318,-0.3338,-0.3364,-0.3369,-0.3713,-0.3836,-0.3845,-0.4079,-0.4097,-0.3885,-0.4454,-0.4691,-0.4696,-0.5385,-0.5764,-0.5917,-0.6369,-0.6705,-0.6813,-0.7103,-0.7543,-0.7925,-0.8696,-0.9581,-1.0355,-1.0907,-1.1446,-1.2332,-1.2436,-1.2436,-1.2436,-1.2436,-1.2436,-1.2436,-1.2436,-1.2436,-1.2436,-1.2436,-1.2762,-1.3305,-1.4374,-1.5867,-1.7364,-1.8115,-1.8639,-1.9168,-1.9272,-1.9272,-1.9272,-1.9272,-1.9576,-1.9937,-2.024,-2.0607,-2.1628,-2.2432,-2.3105,-2.3515,-2.3681,-2.4342,-2.4996,-2.481,-2.5172,-2.5972,-2.6392,-2.6537,-2.6527,-2.6537,-2.6527,-2.6558,-2.6724,-2.6879,-2.6848,-2.6672,-2.6527,-2.6558,-2.6765,-2.6858,-2.7003,-2.7148,-2.7189,-2.7189,-2.7189,-2.7272,-2.7272,-2.7272,-2.7272,-2.7272,-2.7272,-2.7272,-2.7272,-2.7272,-2.7272,-2.7357,-2.7452,-2.7631,-2.7987,-2.8724,-2.9543,-3.0543,-3.1625,-3.2438,-3.3081,-3.3081,-3.3167,-3.3081,-3.3081,-3.3081,-3.3081,-3.3081,-3.3081,-0.1823,-0.3251,-0.3309,-0.3335,-0.3345,-0.3399,-0.3531,-0.3639,-0.4076,-0.4312,-0.452,-0.512,-0.493,-0.4726,-0.5216,-0.5254,-0.5365,-0.5806,-0.6482,-0.6482,-0.7152,-0.7376,-0.7593,-0.8361,-0.891,-0.9037,-0.9581,-1.046,-1.0907,-1.1236,-1.1782,-1.2327,-1.2436,-1.2436,-1.2436,-1.2436,-1.2436,-1.2436,-1.2436,-1.2436,-1.2436,-1.2436,-1.298,-1.4482,-1.5547,-1.6717,-1.7891,-1.8743,-1.9272,-1.9272,-1.9376,-1.9376,-1.9383,-1.9383,-1.9383,-1.948,-1.9842,-2.0428,-2.1221,-2.203,-2.2833,-2.3764,-2.3688,-2.4085,-2.4851,-2.5241,-2.5714,-2.639,-2.691,-2.7138,-2.7251,-2.7138,-2.7169,-2.721,-2.7231,-2.7272,-2.7272,-2.7272,-2.7169,-2.7169,-2.7096,-2.7107,-2.7158,-2.7241,-2.7262,-2.7272,-2.7272,-2.7272,-2.7272,-2.7272,-2.7272,-2.7272,-2.7272,-2.7272,-2.7272,-2.7357,-2.7357,-2.7452,-2.7547,-2.7715,-2.7893,-2.8991,-3.0091,-3.0812,-3.1813,-3.2525,-3.3068,-3.324,-3.324,-3.3154,-3.3154,-3.324,-3.3154,-3.3167,-3.3081,-0.2478,-0.3312,-0.3372,-0.3397,-0.3406,-0.3458,-0.3808,-0.4252,-0.4409,-0.4773,-0.5212,-0.5341,-0.5452,-0.546,-0.5913,-0.6262,-0.6485,-0.7041,-0.7152,-0.7263,-0.782,-0.8263,-0.8595,-0.9695,-1.0468,-1.0688,-1.0903,-1.1013,-1.1341,-1.1782,-1.211,-1.2327,-1.2436,-1.2436,-1.2436,-1.2436,-1.2436,-1.2436,-1.2436,-1.2436,-1.2436,-1.2654,-1.3619,-1.5441,-1.6617,-1.7681,-1.8632,-1.9168,-1.9272,-1.9272,-1.9472,-1.9583,-1.9687,-1.968,-1.968,-1.968,-1.9983,-2.0292,-2.0688,-2.1489,-2.2089,-2.2676,-2.3295,-2.4361,-2.516,-2.5663,-2.5988,-2.6812,-2.7158,-2.7272,-2.7272,-2.7272,-2.7272,-2.7272,-2.7272,-2.7272,-2.7272,-2.7272,-2.7272,-2.7272,-2.7272,-2.7272,-2.7272,-2.7272,-2.7272,-2.7272,-2.7272,-2.7272,-2.7272,-2.7272,-2.7272,-2.7272,-2.7272,-2.7272,-2.7272,-2.7357,-2.7357,-2.7631,-2.7809,-2.8341,-2.8795,-2.9897,-3.08,-3.1436,-3.1889,-3.2513,-3.2957,-3.33,-3.3471,-3.3471,-3.3386,-3.3313,-3.3313,-3.324,-3.3154,-0.263,-0.3373,-0.3431,-0.3671,-0.3897,-0.3957,-0.4315,-0.4871,-0.5242,-0.5594,-0.5929,-0.6151,-0.6151,-0.6151,-0.6485,-0.693,-0.7263,-0.8257,-0.826,-0.826,-0.8702,-0.9144,-0.9251,-1.0574,-1.1017,-1.1236,-1.1455,-1.1782,-1.1782,-1.2219,-1.2436,-1.2436,-1.2436,-1.2436,-1.2436,-1.2436,-1.2436,-1.2436,-1.2436,-1.2441,-1.2545,-1.298,-1.4583,-1.6299,-1.7364,-1.8213,-1.9264,-1.9472,-1.9576,-1.968,-1.9887,-1.9879,-1.9983,-2.0094,-2.0094,-1.9983,-2.0197,-2.03,-2.0403,-2.1105,-2.1709,-2.2308,-2.3003,-2.4097,-2.5197,-2.5771,-2.6284,-2.6976,-2.7272,-2.7272,-2.7272,-2.7272,-2.7272,-2.7272,-2.7272,-2.7272,-2.7272,-2.7272,-2.7272,-2.7272,-2.7272,-2.7272,-2.7272,-2.7272,-2.7272,-2.7272,-2.7272,-2.7367,-2.7367,-2.7357,-2.7357,-2.7367,-2.7357,-2.7357,-2.7452,-2.7441,-2.7715,-2.7998,-2.8351,-2.8795,-2.9681,-3.0777,-3.1235,-3.1689,-3.2227,-3.2859,-3.2846,-3.3116,-3.3445,-3.3713,-3.3628,-3.3556,-3.3386,-3.3313,-3.3313,-0.2892,-0.3648,-0.3708,-0.4062,-0.4508,-0.4673,-0.5035,-0.5594,-0.604,-0.6265,-0.6596,-0.693,-0.6932,-0.671,-0.7154,-0.7487,-0.7595,-0.9137,-0.9251,-0.903,-0.9691,-1.0021,-1.0351,-1.0899,-1.1455,-1.1673,-1.2001,-1.2436,-1.2327,-1.2327,-1.2436,-1.2436,-1.2436,-1.2436,-1.2436,-1.2436,-1.2436,-1.2436,-1.2436,-1.2441,-1.298,-1.4159,-1.566,-1.7582,-1.7891,-1.8632,-1.968,-1.9776,-1.9879,-1.9983,-2.0078,-2.0189,-2.0292,-2.0609,-2.0806,-2.0696,-2.0814,-2.0925,-2.1019,-2.1514,-2.2308,-2.2911,-2.3111,-2.4205,-2.5197,-2.5994,-2.6476,-2.7071,-2.7272,-2.7272,-2.7272,-2.7272,-2.7272,-2.7272,-2.7272,-2.7272,-2.7272,-2.7272,-2.7272,-2.7272,-2.7272,-2.7272,-2.7272,-2.7272,-2.7272,-2.7357,-2.7357,-2.7357,-2.7357,-2.7452,-2.7452,-2.7357,-2.7357,-2.7452,-2.7547,-2.762,-2.8081,-2.8631,-2.9073,-2.9601,-3.0496,-3.1565,-3.1928,-3.2289,-3.3091,-3.3628,-3.3275,-3.3177,-3.37,-3.3966,-3.3882,-3.3725,-3.3725,-3.3556,-3.3471,-0.3703,-0.4251,-0.4324,-0.4689,-0.5242,-0.5256,-0.5596,-0.6151,-0.6262,-0.6596,-0.7043,-0.7154,-0.7154,-0.7376,-0.8039,-0.8374,-0.8702,-0.9467,-0.9911,-0.9801,-1.0574,-1.0903,-1.1013,-1.1887,-1.2001,-1.211,-1.2219,-1.2327,-1.2436,-1.2436,-1.2436,-1.2436,-1.2436,-1.2436,-1.2436,-1.2436,-1.2436,-1.2436,-1.2436,-1.298,-1.4272,-1.6086,-1.7252,-1.8094,-1.8833,-1.9569,-1.999,-2.0086,-2.0086,-2.0197,-2.0308,-2.0418,-2.0617,-2.1615,-2.2123,-2.2224,-2.2224,-2.2224,-2.2417,-2.2911,-2.3502,-2.3998,-2.4599,-2.5294,-2.5887,-2.6582,-2.7071,-2.7167,-2.7272,-2.7272,-2.7272,-2.7272,-2.7272,-2.7272,-2.7272,-2.7272,-2.7272,-2.7272,-2.7272,-2.7272,-2.7272,-2.7272,-2.7272,-2.7272,-2.7367,-2.7357,-2.7441,-2.7441,-2.7452,-2.7536,-2.7536,-2.7536,-2.7631,-2.7726,-2.8175,-2.8269,-2.8795,-2.9441,-3.0056,-3.0586,-3.1476,-3.2352,-3.2722,-3.3164,-3.3882,-3.4147,-3.3882,-3.3882,-3.4217,-3.423,-3.4063,-3.4063,-3.3992,-3.3894,-3.3713,-0.421,-0.4433,-0.4465,-0.5037,-0.5817,-0.5929,-0.6262,-0.6707,-0.6821,-0.6932,-0.7154,-0.7154,-0.7487,-0.8152,-0.9364,-0.9695,-0.9581,-1.057,-1.0899,-1.0794,-1.1345,-1.1787,-1.1891,-1.2219,-1.2327,-1.2436,-1.2436,-1.2327,-1.2436,-1.2436,-1.2436,-1.2436,-1.2436,-1.2436,-1.2436,-1.2436,-1.2436,-1.2545,-1.3088,-1.4476,-1.6074,-1.7246,-1.8206,-1.8938,-1.9569,-1.999,-2.03,-2.03,-2.0403,-2.0506,-2.0719,-2.1019,-2.1522,-2.2224,-2.2719,-2.3411,-2.4007,-2.4007,-2.3601,-2.3899,-2.4393,-2.4992,-2.5499,-2.5887,-2.6476,-2.6976,-2.7272,-2.7272,-2.7272,-2.7272,-2.7272,-2.7272,-2.7272,-2.7272,-2.7272,-2.7272,-2.7272,-2.7272,-2.7272,-2.7272,-2.7367,-2.7357,-2.7357,-2.7357,-2.7357,-2.7357,-2.7536,-2.7536,-2.7631,-2.7726,-2.7715,-2.7809,-2.7904,-2.8081,-2.8724,-2.9176,-2.9875,-3.0598,-3.1476,-3.2003,-3.2537,-3.3152,-3.342,-3.3687,-3.4134,-3.4314,-3.4243,-3.4314,-3.4314,-3.4314,-3.4314,-3.4243,-3.416,-3.4076,-3.3894,-0.4702,-0.4925,-0.4925,-0.5594,-0.6487,-0.6485,-0.6821,-0.7154,-0.7154,-0.7265,-0.7595,-0.7817,-0.826,-0.9034,-1.0245,-1.0578,-1.0241,-1.1673,-1.1891,-1.1891,-1.2001,-1.2327,-1.2327,-1.2436,-1.2436,-1.2436,-1.2436,-1.2436,-1.2436,-1.2436,-1.2436,-1.2436,-1.2436,-1.2436,-1.2436,-1.2436,-1.2545,-1.3295,-1.4685,-1.628,-1.766,-1.829,-1.9034,-1.9672,-2.0094,-2.03,-2.0514,-2.0624,-2.0719,-2.0822,-2.0814,-2.1326,-2.2123,-2.282,-2.3511,-2.4402,-2.5392,-2.5684,-2.5285,-2.5178,-2.5382,-2.579,-2.6091,-2.6476,-2.7071,-2.7272,-2.7272,-2.7272,-2.7272,-2.7272,-2.7272,-2.7272,-2.7272,-2.7272,-2.7272,-2.7272,-2.7272,-2.7272,-2.7272,-2.7272,-2.7357,-2.7357,-2.7357,-2.7347,-2.7452,-2.7452,-2.7547,-2.7726,-2.7998,-2.8175,-2.8175,-2.8258,-2.8631,-2.8899,-2.9349,-2.9977,-3.0777,-3.1565,-3.2537,-3.3164,-3.3505,-3.3771,-3.405,-3.4314,-3.4397,-3.4397,-3.4314,-3.4397,-3.4397,-3.4397,-3.4314,-3.4314,-3.4243,-3.416,-3.416,-0.5148,-0.6151,-0.6151,-0.6487,-0.7154,-0.7154,-0.7154,-0.7154,-0.7154,-0.7598,-0.8374,-0.914,-0.9578,-1.0017,-1.0684,-1.1236,-1.1013,-1.2001,-1.2223,-1.2219,-1.2327,-1.2436,-1.2436,-1.2436,-1.2436,-1.2436,-1.2436,-1.2436,-1.2436,-1.2436,-1.2436,-1.2436,-1.2436,-1.2436,-1.2649,-1.2975,-1.3722,-1.4781,-1.6486,-1.7654,-1.8603,-1.9235,-1.999,-2.03,-2.0411,-2.0617,-2.0822,-2.0822,-2.0822,-2.0925,-2.1121,-2.1615,-2.2719,-2.361,-2.4492,-2.5489,-2.637,-2.6678,-2.6572,-2.6572,-2.6965,-2.7156,-2.7156,-2.7071,-2.7272,-2.7272,-2.7272,-2.7272,-2.7272,-2.7272,-2.7272,-2.7272,-2.7272,-2.7272,-2.7272,-2.7272,-2.7272,-2.7272,-2.7272,-2.7272,-2.7357,-2.7441,-2.7893,-2.7987,-2.807,-2.807,-2.8362,-2.8642,-2.8899,-2.9084,-2.8806,-2.8888,-2.9441,-2.9715,-2.9977,-3.0687,-3.1753,-3.2364,-3.3164,-3.3687,-3.4037,-3.4314,-3.4397,-3.4397,-3.4397,-3.4397,-3.4397,-3.4397,-3.4397,-3.4397,-3.4397,-3.4314,-3.4314,-3.4327,-3.4314,-0.5483,-0.6374,-0.6707,-0.6932,-0.7154,-0.7154,-0.7154,-0.7154,-0.7154,-0.7709,-0.8595,-0.9915,-1.0574,-1.0794,-1.1455,-1.1891,-1.1891,-1.2223,-1.2332,-1.2436,-1.2436,-1.2436,-1.2436,-1.2436,-1.2436,-1.2436,-1.2436,-1.2436,-1.2436,-1.2654,-1.2436,-1.2436,-1.2649,-1.298,-1.33,-1.4358,-1.563,-1.6791,-1.7962,-1.8708,-1.9768,-1.9983,-2.0411,-2.0522,-2.0719,-2.0719,-2.0917,-2.0925,-2.0925,-2.1121,-2.1522,-2.2417,-2.3402,-2.4492,-2.5479,-2.638,-2.7071,-2.7262,-2.7272,-2.7272,-2.7272,-2.7272,-2.7272,-2.7272,-2.7272,-2.7272,-2.7272,-2.7272,-2.7272,-2.7272,-2.7272,-2.7272,-2.7272,-2.7272,-2.7272,-2.7272,-2.7357,-2.7357,-2.7357,-2.7357,-2.7536,-2.762,-2.8164,-2.8702,-2.8702,-2.8795,-2.9084,-2.9452,-2.9806,-3.0068,-2.9875,-2.9863,-3.0418,-3.1045,-3.1311,-3.2016,-3.2821,-3.325,-3.3784,-3.405,-3.4314,-3.4397,-3.4397,-3.4397,-3.4397,-3.4397,-3.4397,-3.4397,-3.4397,-3.4397,-3.4397,-3.4397,-3.4397,-3.4397,-3.4397,-0.604,-0.6599,-0.7043,-0.7154,-0.7154,-0.7154,-0.7154,-0.7265,-0.7487,-0.8263,-0.9364,-1.0798,-1.1455,-1.1673,-1.2001,-1.2327,-1.2327,-1.2327,-1.2436,-1.2436,-1.2436,-1.2436,-1.2545,-1.2762,-1.3088,-1.298,-1.3403,-1.3614,-1.3722,-1.3511,-1.3614,-1.3722,-1.3501,-1.4148,-1.4471,-1.6162,-1.7634,-1.8478,-1.9228,-1.9443,-2.0514,-2.0624,-2.0617,-2.0624,-2.0822,-2.0822,-2.1019,-2.1224,-2.1522,-2.1818,-2.2417,-2.3502,-2.4393,-2.5294,-2.6177,-2.687,-2.7272,-2.7272,-2.7272,-2.7272,-2.7272,-2.7272,-2.7272,-2.7272,-2.7272,-2.7272,-2.7272,-2.7272,-2.7272,-2.7272,-2.7272,-2.7272,-2.7272,-2.7272,-2.7272,-2.7367,-2.7547,-2.7536,-2.7441,-2.7441,-2.7893,-2.8702,-2.9154,-2.9863,-3.0316,-3.0485,-3.0855,-3.0956,-3.0866,-3.1134,-3.1211,-3.13,-3.1565,-3.219,-3.2809,-3.3164,-3.3518,-3.37,-3.4134,-3.4217,-3.4397,-3.4397,-3.4397,-3.4397,-3.4397,-3.4397,-3.4397,-3.4397,-3.4397,-3.4397,-3.4397,-3.4397,-3.4397,-3.4397,-3.4397,-0.6599,-0.7154,-0.7154,-0.7154,-0.7154,-0.7154,-0.7265,-0.7487,-0.8263,-0.9368,-1.0798,-1.1891,-1.2219,-1.2332,-1.2327,-1.2436,-1.2436,-1.2436,-1.2436,-1.2436,-1.2436,-1.2436,-1.2871,-1.3413,-1.3948,-1.4374,-1.4798,-1.5221,-1.5541,-1.5221,-1.5328,-1.5642,-1.553,-1.5737,-1.4995,-1.7423,-1.8686,-1.9005,-2.0181,-2.0601,-2.0814,-2.0822,-2.0822,-2.0822,-2.0822,-2.0925,-2.1019,-2.1522,-2.1827,-2.2325,-2.3211,-2.4295,-2.5294,-2.5693,-2.638,-2.7156,-2.7262,-2.7272,-2.7272,-2.7272,-2.7272,-2.7272,-2.7272,-2.7272,-2.7272,-2.7272,-2.7272,-2.7272,-2.7272,-2.7272,-2.7272,-2.7272,-2.7272,-2.7357,-2.7357,-2.7631,-2.782,-2.8269,-2.8258,-2.8341,-2.9418,-3.0305,-3.0574,-3.1021,-3.1828,-3.2277,-3.255,-3.255,-3.219,-3.2016,-3.2103,-3.2537,-3.2722,-3.298,-3.3518,-3.3953,-3.423,-3.4397,-3.4397,-3.4397,-3.4397,-3.4397,-3.4397,-3.4397,-3.4397,-3.4397,-3.4397,-3.4397,-3.4397,-3.4397,-3.4397,-3.4397,-3.4397,-3.4397,-3.4397,-0.6707,-0.7154,-0.7154,-0.7154,-0.7154,-0.7154,-0.7487,-0.826,-0.9585,-1.0578,-1.1236,-1.2001,-1.2436,-1.2436,-1.2436,-1.2436,-1.2436,-1.2436,-1.2436,-1.2436,-1.2436,-1.298,-1.3516,-1.4056,-1.4696,-1.5227,-1.5861,-1.6074,-1.5755,-1.618,-1.5968,-1.6068,-1.7233,-1.7542,-1.785,-1.9117,-1.9975,-2.0181,-2.0712,-2.0925,-2.0925,-2.0925,-2.0925,-2.0925,-2.0925,-2.0925,-2.1019,-2.1623,-2.2123,-2.2828,-2.3809,-2.4786,-2.5781,-2.6187,-2.687,-2.7262,-2.7272,-2.7272,-2.7272,-2.7272,-2.7272,-2.7272,-2.7272,-2.7272,-2.7272,-2.7272,-2.7272,-2.7272,-2.7272,-2.7272,-2.7272,-2.7272,-2.7357,-2.7536,-2.7631,-2.8186,-2.8549,-2.9268,-2.9624,-2.9784,-3.0395,-3.1199,-3.1741,-3.2178,-3.2895,-3.3079,-3.3262,-3.3518,-3.3335,-3.2993,-3.2895,-3.3518,-3.3856,-3.3869,-3.4134,-3.4314,-3.4397,-3.4397,-3.4397,-3.4397,-3.4397,-3.4397,-3.4397,-3.4397,-3.4397,-3.4397,-3.4397,-3.4397,-3.4397,-3.4397,-3.4397,-3.4397,-3.4397,-3.4397,-3.4397,-0.6821,-0.7154,-0.7154,-0.7376,-0.7598,-0.7598,-0.826,-0.9475,-1.0578,-1.1236,-1.1678,-1.2219,-1.2436,-1.2436,-1.2436,-1.2436,-1.2436,-1.2436,-1.2436,-1.2436,-1.2436,-1.3088,-1.384,-1.4696,-1.5553,-1.6293,-1.6929,-1.714,-1.7351,-1.7246,-1.745,-1.7975,-1.8499,-1.9131,-1.965,-2.0292,-2.0609,-2.0712,-2.0925,-2.0925,-2.0925,-2.0925,-2.0925,-2.0925,-2.0925,-2.1121,-2.142,-2.192,-2.2409,-2.3511,-2.4501,-2.5382,-2.6274,-2.6774,-2.7272,-2.7272,-2.7272,-2.7272,-2.7272,-2.7272,-2.7272,-2.7272,-2.7272,-2.7272,-2.7272,-2.7272,-2.7272,-2.7272,-2.7367,-2.7357,-2.7357,-2.7357,-2.7631,-2.7809,-2.8269,-2.8724,-2.9452,-3.017,-3.0609,-3.0765,-3.1476,-3.219,-3.2809,-3.3348,-3.3966,-3.3966,-3.3869,-3.4134,-3.423,-3.3869,-3.3518,-3.3953,-3.4314,-3.4217,-3.4217,-3.4314,-3.4397,-3.4397,-3.4397,-3.4397,-3.4397,-3.4397,-3.4397,-3.4397,-3.4397,-3.4397,-3.4397,-3.4397,-3.4397,-3.4397,-3.4397,-3.4397,-3.4397,-3.4397,-3.4397,-0.7154,-0.7154,-0.7265,-0.7706,-0.8374,-0.8595,-0.9588,-1.1017,-1.1126,-1.1673,-1.2327,-1.2327,-1.2436,-1.2436,-1.2436,-1.2436,-1.2436,-1.2436,-1.2436,-1.2545,-1.2659,-1.3408,-1.4482,-1.5441,-1.6511,-1.7681,-1.8318,-1.8527,-1.9168,-1.9049,-1.9457,-1.999,-1.999,-2.03,-2.0506,-2.0712,-2.0822,-2.0925,-2.0925,-2.0925,-2.0925,-2.0925,-2.0925,-2.0925,-2.113,-2.1623,-2.2215,-2.3111,-2.4196,-2.5285,-2.637,-2.686,-2.7251,-2.7272,-2.7272,-2.7272,-2.7272,-2.7272,-2.7272,-2.7272,-2.7272,-2.7272,-2.7272,-2.7272,-2.7272,-2.7272,-2.7272,-2.7452,-2.7452,-2.7441,-2.7441,-2.7809,-2.8081,-2.8445,-2.891,-2.9543,-3.026,-3.0878,-3.1323,-3.184,-3.2735,-3.336,-3.3615,-3.416,-3.4243,-3.423,-3.4134,-3.4217,-3.4314,-3.4314,-3.405,-3.4134,-3.4397,-3.4397,-3.4397,-3.4397,-3.4397,-3.4397,-3.4397,-3.4397,-3.4397,-3.4397,-3.4397,-3.4397,-3.4397,-3.4397,-3.4397,-3.4397,-3.4397,-3.4397,-3.4397,-3.4397,-3.4397,-3.4397,-3.4397,-0.7154,-0.7265,-0.782,-0.826,-0.8702,-0.9809,-1.0688,-1.1126,-1.1673,-1.2223,-1.2436,-1.2436,-1.2436,-1.2436,-1.2436,-1.2436,-1.2436,-1.2436,-1.2436,-1.2654,-1.3202,-1.4266,-1.5441,-1.6511,-1.7681,-1.8534,-1.9168,-1.9376,-1.9583,-1.9887,-2.0094,-2.0411,-2.0522,-2.0719,-2.0822,-2.0925,-2.0925,-2.0925,-2.0925,-2.0925,-2.0925,-2.0925,-2.0925,-2.1027,-2.1623,-2.2123,-2.2719,-2.3701,-2.4688,-2.5684,-2.5984,-2.638,-2.7262,-2.7272,-2.7272,-2.7272,-2.7272,-2.7272,-2.7272,-2.7272,-2.7272,-2.7272,-2.7272,-2.7272,-2.7272,-2.7272,-2.7272,-2.7452,-2.7809,-2.7987,-2.8269,-2.8631,-2.8991,-2.9543,-2.9988,-3.0621,-3.1335,-3.1952,-3.2302,-3.2735,-3.3628,-3.3797,-3.416,-3.416,-3.416,-3.4314,-3.4397,-3.4397,-3.4397,-3.4397,-3.4397,-3.4397,-3.4397,-3.4397,-3.4397,-3.4397,-3.4397,-3.4397,-3.4397,-3.4397,-3.4397,-3.4397,-3.4397,-3.4397,-3.4397,-3.4397,-3.4397,-3.4397,-3.4397,-3.4397,-3.4397,-3.4397,-3.4397,-3.4397,-3.4397,-0.7154,-0.7376,-0.8152,-0.8923,-0.9695,-1.1013,-1.1564,-1.1673,-1.2223,-1.2436,-1.2436,-1.2436,-1.2436,-1.2436,-1.2436,-1.2436,-1.2436,-1.2436,-1.2654,-1.3413,-1.3954,-1.5125,-1.6405,-1.7259,-1.8108,-1.8959,-1.9376,-1.9576,-1.9783,-2.0094,-2.0403,-2.0617,-2.0617,-2.0719,-2.0822,-2.0925,-2.0925,-2.0925,-2.0925,-2.0925,-2.0917,-2.0925,-2.0925,-2.1224,-2.2021,-2.2619,-2.3211,-2.4196,-2.5187,-2.6177,-2.6284,-2.6572,-2.7262,-2.7272,-2.7272,-2.7272,-2.7272,-2.7272,-2.7272,-2.7272,-2.7272,-2.7272,-2.7272,-2.7272,-2.7272,-2.7272,-2.7272,-2.7357,-2.8081,-2.8724,-2.9084,-2.9543,-3.0079,-3.0722,-3.1258,-3.1701,-3.2413,-3.3031,-3.3373,-3.3543,-3.381,-3.3979,-3.4076,-3.4076,-3.416,-3.4314,-3.4397,-3.4397,-3.4397,-3.4397,-3.4397,-3.4397,-3.4397,-3.4397,-3.4397,-3.4397,-3.4397,-3.4397,-3.4397,-3.4397,-3.4397,-3.4397,-3.4397,-3.4397,-3.4397,-3.4397,-3.4397,-3.4397,-3.4397,-3.4397,-3.4397,-3.4397,-3.4397,-3.4397,-3.4397,-0.7265,-0.7376,-0.826,-0.9695,-1.1236,-1.2001,-1.2332,-1.2436,-1.2327,-1.2436,-1.2436,-1.2436,-1.2436,-1.2436,-1.2436,-1.2436,-1.2545,-1.2654,-1.3305,-1.4272,-1.4809,-1.5873,-1.6935,-1.7793,-1.8639,-1.916,-1.9576,-1.968,-1.9894,-2.0308,-2.0609,-2.0925,-2.0925,-2.0925,-2.0925,-2.0925,-2.0925,-2.0925,-2.0917,-2.1019,-2.1113,-2.1121,-2.1121,-2.1514,-2.2417,-2.3311,-2.4196,-2.5275,-2.6284,-2.6965,-2.7262,-2.7262,-2.7262,-2.7272,-2.7272,-2.7272,-2.7272,-2.7272,-2.7272,-2.7272,-2.7272,-2.7272,-2.7272,-2.7272,-2.7272,-2.7272,-2.7272,-2.7904,-2.8631,-2.936,-2.9897,-3.0633,-3.1258,-3.1625,-3.1977,-3.2426,-3.2859,-3.3386,-3.3641,-3.381,-3.381,-3.3979,-3.4063,-3.4076,-3.4076,-3.4314,-3.4314,-3.4314,-3.4314,-3.4314,-3.4397,-3.4397,-3.4397,-3.4397,-3.4397,-3.4397,-3.4397,-3.4397,-3.4397,-3.4397,-3.4397,-3.4397,-3.4397,-3.4397,-3.4397,-3.4397,-3.4397,-3.4397,-3.4397,-3.4397,-3.4397,-3.4397,-3.4397,-3.4397,-3.4397,-0.7595,-0.8374,-0.9809,-1.1126,-1.2001,-1.2327,-1.2436,-1.2436,-1.2436,-1.2436,-1.2436,-1.2436,-1.2436,-1.2436,-1.2436,-1.2436,-1.2545,-1.298,-1.3846,-1.4809,-1.566,-1.6511,-1.7681,-1.8422,-1.9056,-1.9472,-1.968,-1.9998,-2.0308,-2.0617,-2.0822,-2.0925,-2.0925,-2.0925,-2.0925,-2.0925,-2.0925,-2.0925,-2.0917,-2.142,-2.2021,-2.2215,-2.2417,-2.3203,-2.4196,-2.4698,-2.5479,-2.6264,-2.687,-2.7262,-2.7262,-2.7272,-2.7272,-2.7272,-2.7272,-2.7272,-2.7272,-2.7272,-2.7272,-2.7272,-2.7272,-2.7272,-2.7272,-2.7272,-2.7272,-2.7272,-2.7631,-2.8362,-2.9176,-2.9897,-3.0722,-3.1625,-3.2351,-3.2525,-3.2698,-3.3043,-3.3386,-3.3556,-3.381,-3.381,-3.381,-3.3894,-3.3992,-3.4076,-3.4063,-3.4147,-3.416,-3.416,-3.416,-3.4243,-3.4314,-3.4397,-3.4397,-3.4397,-3.4397,-3.4397,-3.4397,-3.4397,-3.4397,-3.4397,-3.4397,-3.4397,-3.4397,-3.4397,-3.4397,-3.4397,-3.4397,-3.4397,-3.4397,-3.4397,-3.4397,-3.4397,-3.4397,-3.4397,-3.4397,-0.7709,-0.8706,-1.0355,-1.1564,-1.2327,-1.2436,-1.2436,-1.2436,-1.2436,-1.2436,-1.2436,-1.2436,-1.2436,-1.2436,-1.2436,-1.2436,-1.2545,-1.2985,-1.4051,-1.5227,-1.6299,-1.7252,-1.8213,-1.8952,-1.9264,-1.968,-1.999,-2.0308,-2.0617,-2.0822,-2.0925,-2.0925,-2.0925,-2.0925,-2.0925,-2.0925,-2.0925,-2.0925,-2.0925,-2.1717,-2.282,-2.2911,-2.3111,-2.4097,-2.4992,-2.5596,-2.6081,-2.6668,-2.7167,-2.7262,-2.7272,-2.7272,-2.7272,-2.7272,-2.7272,-2.7272,-2.7272,-2.7272,-2.7272,-2.7272,-2.7272,-2.7272,-2.7272,-2.7272,-2.7452,-2.7536,-2.8092,-2.8817,-2.9441,-3.026,-3.127,-3.2089,-3.2624,-3.2896,-3.297,-3.3142,-3.3386,-3.3556,-3.3641,-3.3569,-3.3738,-3.3907,-3.3992,-3.416,-3.4147,-3.416,-3.416,-3.4076,-3.4076,-3.4076,-3.4243,-3.4314,-3.4314,-3.4397,-3.4397,-3.4397,-3.4397,-3.4397,-3.4397,-3.4397,-3.4397,-3.4397,-3.4397,-3.4397,-3.4397,-3.4397,-3.4397,-3.4397,-3.4397,-3.4397,-3.4397,-3.4397,-3.4397,-3.4397,-3.4397,-0.7817,-0.8816,-1.0578,-1.1673,-1.2327,-1.2436,-1.2436,-1.2436,-1.2436,-1.2436,-1.2436,-1.2436,-1.2436,-1.2436,-1.2436,-1.2545,-1.2866,-1.3619,-1.4578,-1.5755,-1.6505,-1.7779,-1.8736,-1.9368,-1.9576,-1.9887,-2.0308,-2.0617,-2.0822,-2.0925,-2.0925,-2.0925,-2.0925,-2.0925,-2.0925,-2.0925,-2.0925,-2.1019,-2.1318,-2.2308,-2.2911,-2.3311,-2.38,-2.4492,-2.5294,-2.5887,-2.6284,-2.6678,-2.7262,-2.7272,-2.7272,-2.7272,-2.7272,-2.7272,-2.7272,-2.7272,-2.7272,-2.7272,-2.7272,-2.7272,-2.7272,-2.7272,-2.7272,-2.7357,-2.7536,-2.7987,-2.8538,-2.9268,-2.9988,-3.08,-3.1725,-3.2363,-3.281,-3.3081,-3.3068,-3.3154,-3.33,-3.3543,-3.3471,-3.3398,-3.3654,-3.3907,-3.4076,-3.4243,-3.416,-3.416,-3.4076,-3.4076,-3.4063,-3.4063,-3.4147,-3.423,-3.4327,-3.4314,-3.4397,-3.4397,-3.4397,-3.4397,-3.4397,-3.4397,-3.4397,-3.4397,-3.4397,-3.4397,-3.4397,-3.4397,-3.4397,-3.4397,-3.4397,-3.4397,-3.4397,-3.4397,-3.4397,-3.4397,-3.4397,-0.8146,-0.9688,-1.1446,-1.2223,-1.2436,-1.2436,-1.2436,-1.2436,-1.2436,-1.2436,-1.2436,-1.2436,-1.2436,-1.2436,-1.2436,-1.2762,-1.3624,-1.4261,-1.5755,-1.7147,-1.7674,-1.8729,-1.9465,-1.968,-1.9894,-2.0308,-2.0617,-2.0822,-2.0925,-2.0925,-2.0925,-2.0925,-2.0925,-2.0925,-2.0925,-2.0925,-2.0925,-2.1019,-2.1725,-2.261,-2.3592,-2.4187,-2.508,-2.5974,-2.686,-2.6965,-2.7071,-2.7167,-2.7272,-2.7272,-2.7272,-2.7272,-2.7272,-2.7272,-2.7272,-2.7272,-2.7272,-2.7272,-2.7272,-2.7272,-2.7272,-2.7357,-2.7357,-2.7536,-2.7809,-2.8445,-2.9176,-2.9988,-3.08,-3.1613,-3.2351,-3.2537,-3.2909,-3.2896,-3.2884,-3.3056,-3.3227,-3.33,-3.33,-3.3471,-3.3641,-3.3894,-3.3992,-3.4076,-3.3992,-3.3907,-3.3823,-3.381,-3.3894,-3.3979,-3.405,-3.4147,-3.4243,-3.4314,-3.4397,-3.4314,-3.4314,-3.4397,-3.4397,-3.4397,-3.4397,-3.4397,-3.4397,-3.4397,-3.4397,-3.4397,-3.4397,-3.4397,-3.4397,-3.4397,-3.4397,-3.4397,-3.4397,-3.4397,-3.4397]}]]